<?xml version="1.0" encoding="UTF-8" standalone="no" ?>
<gpx xmlns="http://www.topografix.com/GPX/1/1" xmlns:xsi="http://www.w3.org/2001/XMLSchema-instance" xsi:schemaLocation="http://www.topografix.com/GPX/1/1 http://www.topografix.com/GPX/1/1/gpx.xsd" version="1.1" creator="VisuGPX - https://www.visugpx.com">
  <metadata>
    <name>monesties</name>
    <desc><![CDATA[ le cerou ou le village ce mire au soleil .l on passe dans le tunel de encienne voie ferre.tres cour sans lumiere puits sur le pomt sur le cerou ,un peu de route avant le barrage l on passe l on fait du cote nord,tres beaut point de vue sur la passeraille.l on avalle le casse croute a la basse de loires.le retour croisse le chemin  de aller .avant l arrivealle voir le musser rue du barry bonne balade]]></desc>
  </metadata>
  <trk>
    <name><![CDATA[08-OCT-13 02:18:31 PM]]></name>
    <trkseg>
      <trkpt lat="44.07154" lon="2.09659">
        <ele>108.29</ele>
        <time>2013-10-08T06:58:15Z</time>
      </trkpt>
      <trkpt lat="44.07185" lon="2.09654">
        <ele>185.67</ele>
        <time>2013-10-08T06:58:33Z</time>
      </trkpt>
      <trkpt lat="44.07186" lon="2.09662">
        <ele>210.19</ele>
        <time>2013-10-08T06:59:00Z</time>
      </trkpt>
      <trkpt lat="44.07188" lon="2.09659">
        <ele>207.78</ele>
        <time>2013-10-08T06:59:20Z</time>
      </trkpt>
      <trkpt lat="44.07186" lon="2.09659">
        <ele>207.3</ele>
        <time>2013-10-08T06:59:37Z</time>
      </trkpt>
      <trkpt lat="44.07188" lon="2.09656">
        <ele>210.67</ele>
        <time>2013-10-08T06:59:49Z</time>
      </trkpt>
      <trkpt lat="44.07189" lon="2.09656">
        <ele>212.11</ele>
        <time>2013-10-08T07:00:01Z</time>
      </trkpt>
      <trkpt lat="44.07189" lon="2.09655">
        <ele>213.07</ele>
        <time>2013-10-08T07:00:17Z</time>
      </trkpt>
      <trkpt lat="44.0719" lon="2.09655">
        <ele>213.55</ele>
        <time>2013-10-08T07:00:29Z</time>
      </trkpt>
      <trkpt lat="44.0719" lon="2.09655">
        <ele>214.03</ele>
        <time>2013-10-08T07:00:48Z</time>
      </trkpt>
      <trkpt lat="44.0719" lon="2.09656">
        <ele>214.51</ele>
        <time>2013-10-08T07:00:59Z</time>
      </trkpt>
      <trkpt lat="44.0719" lon="2.09656">
        <ele>214.51</ele>
        <time>2013-10-08T07:01:11Z</time>
      </trkpt>
      <trkpt lat="44.0719" lon="2.09656">
        <ele>214.51</ele>
        <time>2013-10-08T07:01:19Z</time>
      </trkpt>
      <trkpt lat="44.07189" lon="2.09657">
        <ele>214.51</ele>
        <time>2013-10-08T07:01:28Z</time>
      </trkpt>
      <trkpt lat="44.0719" lon="2.09657">
        <ele>214.51</ele>
        <time>2013-10-08T07:01:42Z</time>
      </trkpt>
      <trkpt lat="44.07191" lon="2.09654">
        <ele>213.07</ele>
        <time>2013-10-08T07:01:52Z</time>
      </trkpt>
      <trkpt lat="44.07191" lon="2.09652">
        <ele>212.59</ele>
        <time>2013-10-08T07:01:54Z</time>
      </trkpt>
      <trkpt lat="44.0719" lon="2.09648">
        <ele>212.59</ele>
        <time>2013-10-08T07:02:00Z</time>
      </trkpt>
      <trkpt lat="44.07189" lon="2.09649">
        <ele>212.59</ele>
        <time>2013-10-08T07:02:02Z</time>
      </trkpt>
      <trkpt lat="44.07188" lon="2.09647">
        <ele>213.55</ele>
        <time>2013-10-08T07:02:17Z</time>
      </trkpt>
      <trkpt lat="44.07186" lon="2.09642">
        <ele>213.07</ele>
        <time>2013-10-08T07:02:27Z</time>
      </trkpt>
      <trkpt lat="44.07187" lon="2.09633">
        <ele>213.07</ele>
        <time>2013-10-08T07:02:33Z</time>
      </trkpt>
      <trkpt lat="44.07187" lon="2.09618">
        <ele>213.07</ele>
        <time>2013-10-08T07:02:44Z</time>
      </trkpt>
      <trkpt lat="44.07185" lon="2.09615">
        <ele>213.07</ele>
        <time>2013-10-08T07:02:46Z</time>
      </trkpt>
      <trkpt lat="44.07182" lon="2.09605">
        <ele>212.59</ele>
        <time>2013-10-08T07:02:57Z</time>
      </trkpt>
      <trkpt lat="44.07181" lon="2.09603">
        <ele>212.11</ele>
        <time>2013-10-08T07:03:02Z</time>
      </trkpt>
      <trkpt lat="44.07175" lon="2.09598">
        <ele>212.59</ele>
        <time>2013-10-08T07:03:11Z</time>
      </trkpt>
      <trkpt lat="44.07164" lon="2.09589">
        <ele>213.07</ele>
        <time>2013-10-08T07:03:26Z</time>
      </trkpt>
      <trkpt lat="44.07158" lon="2.09585">
        <ele>213.07</ele>
        <time>2013-10-08T07:03:32Z</time>
      </trkpt>
      <trkpt lat="44.07151" lon="2.09582">
        <ele>212.11</ele>
        <time>2013-10-08T07:03:38Z</time>
      </trkpt>
      <trkpt lat="44.07135" lon="2.09567">
        <ele>209.7</ele>
        <time>2013-10-08T07:03:54Z</time>
      </trkpt>
      <trkpt lat="44.07134" lon="2.09566">
        <ele>209.7</ele>
        <time>2013-10-08T07:03:55Z</time>
      </trkpt>
      <trkpt lat="44.07131" lon="2.09563">
        <ele>210.19</ele>
        <time>2013-10-08T07:03:58Z</time>
      </trkpt>
      <trkpt lat="44.07128" lon="2.09557">
        <ele>210.67</ele>
        <time>2013-10-08T07:04:03Z</time>
      </trkpt>
      <trkpt lat="44.07126" lon="2.09555">
        <ele>210.67</ele>
        <time>2013-10-08T07:04:05Z</time>
      </trkpt>
      <trkpt lat="44.07122" lon="2.0955">
        <ele>210.67</ele>
        <time>2013-10-08T07:04:10Z</time>
      </trkpt>
      <trkpt lat="44.07115" lon="2.09545">
        <ele>209.7</ele>
        <time>2013-10-08T07:04:16Z</time>
      </trkpt>
      <trkpt lat="44.07105" lon="2.09537">
        <ele>208.26</ele>
        <time>2013-10-08T07:04:27Z</time>
      </trkpt>
      <trkpt lat="44.07102" lon="2.09534">
        <ele>207.78</ele>
        <time>2013-10-08T07:04:29Z</time>
      </trkpt>
      <trkpt lat="44.07092" lon="2.09524">
        <ele>208.26</ele>
        <time>2013-10-08T07:04:41Z</time>
      </trkpt>
      <trkpt lat="44.07088" lon="2.09522">
        <ele>208.74</ele>
        <time>2013-10-08T07:04:45Z</time>
      </trkpt>
      <trkpt lat="44.07079" lon="2.09527">
        <ele>207.78</ele>
        <time>2013-10-08T07:04:58Z</time>
      </trkpt>
      <trkpt lat="44.07077" lon="2.09529">
        <ele>207.3</ele>
        <time>2013-10-08T07:05:01Z</time>
      </trkpt>
      <trkpt lat="44.0707" lon="2.09533">
        <ele>206.34</ele>
        <time>2013-10-08T07:05:07Z</time>
      </trkpt>
      <trkpt lat="44.07067" lon="2.09536">
        <ele>205.86</ele>
        <time>2013-10-08T07:05:10Z</time>
      </trkpt>
      <trkpt lat="44.07058" lon="2.0955">
        <ele>204.42</ele>
        <time>2013-10-08T07:05:20Z</time>
      </trkpt>
      <trkpt lat="44.07053" lon="2.09554">
        <ele>203.94</ele>
        <time>2013-10-08T07:05:25Z</time>
      </trkpt>
      <trkpt lat="44.07049" lon="2.09559">
        <ele>203.46</ele>
        <time>2013-10-08T07:05:30Z</time>
      </trkpt>
      <trkpt lat="44.07036" lon="2.09581">
        <ele>208.26</ele>
        <time>2013-10-08T07:05:45Z</time>
      </trkpt>
      <trkpt lat="44.0702" lon="2.09607">
        <ele>212.11</ele>
        <time>2013-10-08T07:06:04Z</time>
      </trkpt>
      <trkpt lat="44.07011" lon="2.09625">
        <ele>213.55</ele>
        <time>2013-10-08T07:06:18Z</time>
      </trkpt>
      <trkpt lat="44.07011" lon="2.09626">
        <ele>213.55</ele>
        <time>2013-10-08T07:06:20Z</time>
      </trkpt>
      <trkpt lat="44.07003" lon="2.09647">
        <ele>213.07</ele>
        <time>2013-10-08T07:06:33Z</time>
      </trkpt>
      <trkpt lat="44.06999" lon="2.0966">
        <ele>211.63</ele>
        <time>2013-10-08T07:06:43Z</time>
      </trkpt>
      <trkpt lat="44.06987" lon="2.09674">
        <ele>210.67</ele>
        <time>2013-10-08T07:06:58Z</time>
      </trkpt>
      <trkpt lat="44.0697" lon="2.09676">
        <ele>211.63</ele>
        <time>2013-10-08T07:07:13Z</time>
      </trkpt>
      <trkpt lat="44.06952" lon="2.09685">
        <ele>214.51</ele>
        <time>2013-10-08T07:07:27Z</time>
      </trkpt>
      <trkpt lat="44.06939" lon="2.09694">
        <ele>216.43</ele>
        <time>2013-10-08T07:07:38Z</time>
      </trkpt>
      <trkpt lat="44.06937" lon="2.09697">
        <ele>216.43</ele>
        <time>2013-10-08T07:07:41Z</time>
      </trkpt>
      <trkpt lat="44.06933" lon="2.097">
        <ele>217.4</ele>
        <time>2013-10-08T07:07:46Z</time>
      </trkpt>
      <trkpt lat="44.0693" lon="2.09702">
        <ele>217.88</ele>
        <time>2013-10-08T07:07:49Z</time>
      </trkpt>
      <trkpt lat="44.06924" lon="2.09706">
        <ele>217.4</ele>
        <time>2013-10-08T07:07:56Z</time>
      </trkpt>
      <trkpt lat="44.06923" lon="2.09706">
        <ele>217.4</ele>
        <time>2013-10-08T07:07:58Z</time>
      </trkpt>
      <trkpt lat="44.06922" lon="2.09719">
        <ele>218.84</ele>
        <time>2013-10-08T07:08:11Z</time>
      </trkpt>
      <trkpt lat="44.06924" lon="2.09726">
        <ele>218.36</ele>
        <time>2013-10-08T07:08:22Z</time>
      </trkpt>
      <trkpt lat="44.06927" lon="2.09738">
        <ele>216.91</ele>
        <time>2013-10-08T07:08:35Z</time>
      </trkpt>
      <trkpt lat="44.06929" lon="2.09747">
        <ele>215.47</ele>
        <time>2013-10-08T07:08:42Z</time>
      </trkpt>
      <trkpt lat="44.06937" lon="2.09763">
        <ele>211.63</ele>
        <time>2013-10-08T07:08:56Z</time>
      </trkpt>
      <trkpt lat="44.06949" lon="2.09779">
        <ele>210.67</ele>
        <time>2013-10-08T07:09:10Z</time>
      </trkpt>
      <trkpt lat="44.06949" lon="2.09781">
        <ele>210.67</ele>
        <time>2013-10-08T07:09:11Z</time>
      </trkpt>
      <trkpt lat="44.06959" lon="2.09796">
        <ele>213.07</ele>
        <time>2013-10-08T07:09:25Z</time>
      </trkpt>
      <trkpt lat="44.06969" lon="2.09809">
        <ele>213.07</ele>
        <time>2013-10-08T07:09:38Z</time>
      </trkpt>
      <trkpt lat="44.0697" lon="2.0981">
        <ele>213.55</ele>
        <time>2013-10-08T07:09:39Z</time>
      </trkpt>
      <trkpt lat="44.06975" lon="2.09818">
        <ele>215.95</ele>
        <time>2013-10-08T07:09:44Z</time>
      </trkpt>
      <trkpt lat="44.06985" lon="2.09837">
        <ele>216.43</ele>
        <time>2013-10-08T07:09:57Z</time>
      </trkpt>
      <trkpt lat="44.06993" lon="2.0985">
        <ele>216.43</ele>
        <time>2013-10-08T07:10:07Z</time>
      </trkpt>
      <trkpt lat="44.07" lon="2.09862">
        <ele>215.95</ele>
        <time>2013-10-08T07:10:16Z</time>
      </trkpt>
      <trkpt lat="44.07014" lon="2.09878">
        <ele>217.4</ele>
        <time>2013-10-08T07:10:30Z</time>
      </trkpt>
      <trkpt lat="44.07025" lon="2.09896">
        <ele>216.43</ele>
        <time>2013-10-08T07:10:43Z</time>
      </trkpt>
      <trkpt lat="44.0703" lon="2.09907">
        <ele>215.95</ele>
        <time>2013-10-08T07:10:50Z</time>
      </trkpt>
      <trkpt lat="44.07039" lon="2.09931">
        <ele>215.95</ele>
        <time>2013-10-08T07:11:07Z</time>
      </trkpt>
      <trkpt lat="44.07041" lon="2.09934">
        <ele>215.47</ele>
        <time>2013-10-08T07:11:09Z</time>
      </trkpt>
      <trkpt lat="44.07049" lon="2.09956">
        <ele>216.91</ele>
        <time>2013-10-08T07:11:24Z</time>
      </trkpt>
      <trkpt lat="44.07054" lon="2.09977">
        <ele>217.4</ele>
        <time>2013-10-08T07:11:38Z</time>
      </trkpt>
      <trkpt lat="44.07058" lon="2.09995">
        <ele>218.36</ele>
        <time>2013-10-08T07:11:51Z</time>
      </trkpt>
      <trkpt lat="44.07063" lon="2.10015">
        <ele>216.43</ele>
        <time>2013-10-08T07:12:05Z</time>
      </trkpt>
      <trkpt lat="44.07067" lon="2.10023">
        <ele>217.4</ele>
        <time>2013-10-08T07:12:12Z</time>
      </trkpt>
      <trkpt lat="44.07074" lon="2.10048">
        <ele>217.4</ele>
        <time>2013-10-08T07:12:39Z</time>
      </trkpt>
      <trkpt lat="44.07054" lon="2.10218">
        <ele>231.81</ele>
        <time>2013-10-08T07:14:19Z</time>
      </trkpt>
      <trkpt lat="44.07054" lon="2.10219">
        <ele>230.85</ele>
        <time>2013-10-08T07:14:20Z</time>
      </trkpt>
      <trkpt lat="44.07051" lon="2.10227">
        <ele>233.26</ele>
        <time>2013-10-08T07:14:27Z</time>
      </trkpt>
      <trkpt lat="44.07045" lon="2.10248">
        <ele>233.26</ele>
        <time>2013-10-08T07:14:41Z</time>
      </trkpt>
      <trkpt lat="44.07038" lon="2.10258">
        <ele>230.37</ele>
        <time>2013-10-08T07:14:53Z</time>
      </trkpt>
      <trkpt lat="44.07028" lon="2.10277">
        <ele>229.41</ele>
        <time>2013-10-08T07:15:09Z</time>
      </trkpt>
      <trkpt lat="44.07021" lon="2.10294">
        <ele>226.05</ele>
        <time>2013-10-08T07:15:23Z</time>
      </trkpt>
      <trkpt lat="44.07019" lon="2.10299">
        <ele>225.57</ele>
        <time>2013-10-08T07:15:28Z</time>
      </trkpt>
      <trkpt lat="44.07017" lon="2.10307">
        <ele>226.05</ele>
        <time>2013-10-08T07:15:35Z</time>
      </trkpt>
      <trkpt lat="44.07013" lon="2.10312">
        <ele>225.57</ele>
        <time>2013-10-08T07:15:48Z</time>
      </trkpt>
      <trkpt lat="44.0701" lon="2.10318">
        <ele>223.16</ele>
        <time>2013-10-08T07:16:07Z</time>
      </trkpt>
      <trkpt lat="44.07007" lon="2.10322">
        <ele>223.16</ele>
        <time>2013-10-08T07:16:12Z</time>
      </trkpt>
      <trkpt lat="44.07004" lon="2.10329">
        <ele>222.68</ele>
        <time>2013-10-08T07:16:17Z</time>
      </trkpt>
      <trkpt lat="44.06997" lon="2.10346">
        <ele>220.28</ele>
        <time>2013-10-08T07:16:31Z</time>
      </trkpt>
      <trkpt lat="44.06996" lon="2.10347">
        <ele>219.8</ele>
        <time>2013-10-08T07:16:32Z</time>
      </trkpt>
      <trkpt lat="44.06991" lon="2.10359">
        <ele>216.43</ele>
        <time>2013-10-08T07:16:43Z</time>
      </trkpt>
      <trkpt lat="44.06988" lon="2.10366">
        <ele>215.47</ele>
        <time>2013-10-08T07:16:50Z</time>
      </trkpt>
      <trkpt lat="44.06982" lon="2.10383">
        <ele>213.07</ele>
        <time>2013-10-08T07:17:03Z</time>
      </trkpt>
      <trkpt lat="44.06981" lon="2.10384">
        <ele>212.59</ele>
        <time>2013-10-08T07:17:04Z</time>
      </trkpt>
      <trkpt lat="44.06975" lon="2.10401">
        <ele>208.74</ele>
        <time>2013-10-08T07:17:21Z</time>
      </trkpt>
      <trkpt lat="44.06973" lon="2.10416">
        <ele>207.78</ele>
        <time>2013-10-08T07:17:37Z</time>
      </trkpt>
      <trkpt lat="44.06963" lon="2.10433">
        <ele>207.3</ele>
        <time>2013-10-08T07:17:47Z</time>
      </trkpt>
      <trkpt lat="44.06957" lon="2.10445">
        <ele>209.7</ele>
        <time>2013-10-08T07:17:57Z</time>
      </trkpt>
      <trkpt lat="44.0695" lon="2.10457">
        <ele>211.15</ele>
        <time>2013-10-08T07:18:04Z</time>
      </trkpt>
      <trkpt lat="44.06946" lon="2.10465">
        <ele>213.07</ele>
        <time>2013-10-08T07:18:09Z</time>
      </trkpt>
      <trkpt lat="44.06939" lon="2.10474">
        <ele>214.99</ele>
        <time>2013-10-08T07:18:17Z</time>
      </trkpt>
      <trkpt lat="44.06932" lon="2.1048">
        <ele>215.95</ele>
        <time>2013-10-08T07:18:23Z</time>
      </trkpt>
      <trkpt lat="44.06925" lon="2.10499">
        <ele>216.91</ele>
        <time>2013-10-08T07:18:36Z</time>
      </trkpt>
      <trkpt lat="44.06919" lon="2.10518">
        <ele>217.4</ele>
        <time>2013-10-08T07:18:51Z</time>
      </trkpt>
      <trkpt lat="44.06918" lon="2.10521">
        <ele>217.88</ele>
        <time>2013-10-08T07:18:53Z</time>
      </trkpt>
      <trkpt lat="44.06916" lon="2.10524">
        <ele>217.4</ele>
        <time>2013-10-08T07:18:55Z</time>
      </trkpt>
      <trkpt lat="44.06913" lon="2.10535">
        <ele>217.88</ele>
        <time>2013-10-08T07:19:01Z</time>
      </trkpt>
      <trkpt lat="44.0691" lon="2.10539">
        <ele>217.88</ele>
        <time>2013-10-08T07:19:04Z</time>
      </trkpt>
      <trkpt lat="44.06904" lon="2.10559">
        <ele>218.36</ele>
        <time>2013-10-08T07:19:19Z</time>
      </trkpt>
      <trkpt lat="44.06901" lon="2.10565">
        <ele>218.84</ele>
        <time>2013-10-08T07:19:24Z</time>
      </trkpt>
      <trkpt lat="44.06896" lon="2.1058">
        <ele>219.8</ele>
        <time>2013-10-08T07:19:35Z</time>
      </trkpt>
      <trkpt lat="44.06895" lon="2.10584">
        <ele>220.28</ele>
        <time>2013-10-08T07:19:37Z</time>
      </trkpt>
      <trkpt lat="44.06891" lon="2.10593">
        <ele>219.32</ele>
        <time>2013-10-08T07:19:44Z</time>
      </trkpt>
      <trkpt lat="44.06888" lon="2.10606">
        <ele>219.8</ele>
        <time>2013-10-08T07:19:53Z</time>
      </trkpt>
      <trkpt lat="44.06885" lon="2.10615">
        <ele>222.68</ele>
        <time>2013-10-08T07:19:59Z</time>
      </trkpt>
      <trkpt lat="44.06883" lon="2.10624">
        <ele>223.64</ele>
        <time>2013-10-08T07:20:05Z</time>
      </trkpt>
      <trkpt lat="44.06884" lon="2.1063">
        <ele>224.61</ele>
        <time>2013-10-08T07:20:09Z</time>
      </trkpt>
      <trkpt lat="44.06889" lon="2.10635">
        <ele>225.09</ele>
        <time>2013-10-08T07:20:15Z</time>
      </trkpt>
      <trkpt lat="44.069" lon="2.10635">
        <ele>226.05</ele>
        <time>2013-10-08T07:20:28Z</time>
      </trkpt>
      <trkpt lat="44.06903" lon="2.10637">
        <ele>225.09</ele>
        <time>2013-10-08T07:20:34Z</time>
      </trkpt>
      <trkpt lat="44.06905" lon="2.10637">
        <ele>224.61</ele>
        <time>2013-10-08T07:20:37Z</time>
      </trkpt>
      <trkpt lat="44.0692" lon="2.10642">
        <ele>224.12</ele>
        <time>2013-10-08T07:20:49Z</time>
      </trkpt>
      <trkpt lat="44.06927" lon="2.10644">
        <ele>225.57</ele>
        <time>2013-10-08T07:20:56Z</time>
      </trkpt>
      <trkpt lat="44.06935" lon="2.10644">
        <ele>225.09</ele>
        <time>2013-10-08T07:21:10Z</time>
      </trkpt>
      <trkpt lat="44.06932" lon="2.10645">
        <ele>225.09</ele>
        <time>2013-10-08T07:21:23Z</time>
      </trkpt>
      <trkpt lat="44.06933" lon="2.10644">
        <ele>225.57</ele>
        <time>2013-10-08T07:21:30Z</time>
      </trkpt>
      <trkpt lat="44.06947" lon="2.10626">
        <ele>224.12</ele>
        <time>2013-10-08T07:21:44Z</time>
      </trkpt>
      <trkpt lat="44.0695" lon="2.10621">
        <ele>223.64</ele>
        <time>2013-10-08T07:21:48Z</time>
      </trkpt>
      <trkpt lat="44.06965" lon="2.10605">
        <ele>220.76</ele>
        <time>2013-10-08T07:22:03Z</time>
      </trkpt>
      <trkpt lat="44.06972" lon="2.10597">
        <ele>220.76</ele>
        <time>2013-10-08T07:22:10Z</time>
      </trkpt>
      <trkpt lat="44.06977" lon="2.10593">
        <ele>221.24</ele>
        <time>2013-10-08T07:22:14Z</time>
      </trkpt>
      <trkpt lat="44.06992" lon="2.10594">
        <ele>225.09</ele>
        <time>2013-10-08T07:22:27Z</time>
      </trkpt>
      <trkpt lat="44.07" lon="2.10593">
        <ele>227.01</ele>
        <time>2013-10-08T07:22:34Z</time>
      </trkpt>
      <trkpt lat="44.07016" lon="2.10587">
        <ele>227.49</ele>
        <time>2013-10-08T07:22:49Z</time>
      </trkpt>
      <trkpt lat="44.0702" lon="2.10584">
        <ele>227.49</ele>
        <time>2013-10-08T07:22:56Z</time>
      </trkpt>
      <trkpt lat="44.07026" lon="2.1058">
        <ele>227.97</ele>
        <time>2013-10-08T07:23:03Z</time>
      </trkpt>
      <trkpt lat="44.07028" lon="2.10579">
        <ele>227.97</ele>
        <time>2013-10-08T07:23:05Z</time>
      </trkpt>
      <trkpt lat="44.07035" lon="2.10573">
        <ele>227.97</ele>
        <time>2013-10-08T07:23:14Z</time>
      </trkpt>
      <trkpt lat="44.07042" lon="2.10567">
        <ele>228.93</ele>
        <time>2013-10-08T07:23:24Z</time>
      </trkpt>
      <trkpt lat="44.07045" lon="2.1056">
        <ele>229.41</ele>
        <time>2013-10-08T07:23:29Z</time>
      </trkpt>
      <trkpt lat="44.0705" lon="2.10551">
        <ele>229.89</ele>
        <time>2013-10-08T07:23:37Z</time>
      </trkpt>
      <trkpt lat="44.07051" lon="2.10542">
        <ele>231.33</ele>
        <time>2013-10-08T07:23:44Z</time>
      </trkpt>
      <trkpt lat="44.07056" lon="2.10534">
        <ele>232.3</ele>
        <time>2013-10-08T07:23:51Z</time>
      </trkpt>
      <trkpt lat="44.07064" lon="2.10518">
        <ele>234.7</ele>
        <time>2013-10-08T07:24:05Z</time>
      </trkpt>
      <trkpt lat="44.07073" lon="2.10509">
        <ele>235.66</ele>
        <time>2013-10-08T07:24:14Z</time>
      </trkpt>
      <trkpt lat="44.07077" lon="2.10508">
        <ele>236.14</ele>
        <time>2013-10-08T07:24:18Z</time>
      </trkpt>
      <trkpt lat="44.07091" lon="2.10512">
        <ele>239.02</ele>
        <time>2013-10-08T07:24:31Z</time>
      </trkpt>
      <trkpt lat="44.07105" lon="2.10523">
        <ele>241.43</ele>
        <time>2013-10-08T07:24:45Z</time>
      </trkpt>
      <trkpt lat="44.07109" lon="2.10525">
        <ele>241.91</ele>
        <time>2013-10-08T07:24:48Z</time>
      </trkpt>
      <trkpt lat="44.07113" lon="2.1053">
        <ele>242.39</ele>
        <time>2013-10-08T07:24:52Z</time>
      </trkpt>
      <trkpt lat="44.07117" lon="2.10546">
        <ele>243.83</ele>
        <time>2013-10-08T07:25:04Z</time>
      </trkpt>
      <trkpt lat="44.07117" lon="2.10547">
        <ele>242.87</ele>
        <time>2013-10-08T07:25:18Z</time>
      </trkpt>
      <trkpt lat="44.07117" lon="2.10546">
        <ele>241.91</ele>
        <time>2013-10-08T07:25:35Z</time>
      </trkpt>
      <trkpt lat="44.07121" lon="2.10545">
        <ele>241.43</ele>
        <time>2013-10-08T07:25:39Z</time>
      </trkpt>
      <trkpt lat="44.0714" lon="2.10555">
        <ele>242.87</ele>
        <time>2013-10-08T07:25:52Z</time>
      </trkpt>
      <trkpt lat="44.07163" lon="2.10569">
        <ele>243.83</ele>
        <time>2013-10-08T07:26:01Z</time>
      </trkpt>
      <trkpt lat="44.07177" lon="2.10574">
        <ele>241.91</ele>
        <time>2013-10-08T07:26:10Z</time>
      </trkpt>
      <trkpt lat="44.07193" lon="2.10571">
        <ele>244.79</ele>
        <time>2013-10-08T07:26:22Z</time>
      </trkpt>
      <trkpt lat="44.07201" lon="2.10564">
        <ele>245.27</ele>
        <time>2013-10-08T07:26:30Z</time>
      </trkpt>
      <trkpt lat="44.07216" lon="2.10551">
        <ele>243.83</ele>
        <time>2013-10-08T07:26:44Z</time>
      </trkpt>
      <trkpt lat="44.0722" lon="2.10547">
        <ele>242.87</ele>
        <time>2013-10-08T07:26:49Z</time>
      </trkpt>
      <trkpt lat="44.07231" lon="2.10537">
        <ele>239.51</ele>
        <time>2013-10-08T07:27:01Z</time>
      </trkpt>
      <trkpt lat="44.07243" lon="2.1053">
        <ele>239.02</ele>
        <time>2013-10-08T07:27:11Z</time>
      </trkpt>
      <trkpt lat="44.07261" lon="2.10521">
        <ele>238.06</ele>
        <time>2013-10-08T07:27:26Z</time>
      </trkpt>
      <trkpt lat="44.07263" lon="2.10523">
        <ele>238.06</ele>
        <time>2013-10-08T07:27:28Z</time>
      </trkpt>
      <trkpt lat="44.07266" lon="2.10528">
        <ele>237.58</ele>
        <time>2013-10-08T07:27:32Z</time>
      </trkpt>
      <trkpt lat="44.07268" lon="2.10534">
        <ele>236.62</ele>
        <time>2013-10-08T07:27:37Z</time>
      </trkpt>
      <trkpt lat="44.07268" lon="2.10538">
        <ele>235.66</ele>
        <time>2013-10-08T07:27:40Z</time>
      </trkpt>
      <trkpt lat="44.07271" lon="2.10556">
        <ele>235.66</ele>
        <time>2013-10-08T07:27:51Z</time>
      </trkpt>
      <trkpt lat="44.07273" lon="2.10567">
        <ele>235.66</ele>
        <time>2013-10-08T07:27:59Z</time>
      </trkpt>
      <trkpt lat="44.07276" lon="2.10577">
        <ele>236.14</ele>
        <time>2013-10-08T07:28:06Z</time>
      </trkpt>
      <trkpt lat="44.07278" lon="2.10589">
        <ele>237.1</ele>
        <time>2013-10-08T07:28:14Z</time>
      </trkpt>
      <trkpt lat="44.0728" lon="2.10595">
        <ele>238.54</ele>
        <time>2013-10-08T07:28:18Z</time>
      </trkpt>
      <trkpt lat="44.07287" lon="2.10614">
        <ele>240.47</ele>
        <time>2013-10-08T07:28:33Z</time>
      </trkpt>
      <trkpt lat="44.07288" lon="2.10618">
        <ele>240.95</ele>
        <time>2013-10-08T07:28:36Z</time>
      </trkpt>
      <trkpt lat="44.07295" lon="2.10629">
        <ele>242.39</ele>
        <time>2013-10-08T07:28:48Z</time>
      </trkpt>
      <trkpt lat="44.07308" lon="2.10639">
        <ele>243.35</ele>
        <time>2013-10-08T07:29:02Z</time>
      </trkpt>
      <trkpt lat="44.07308" lon="2.1064">
        <ele>243.35</ele>
        <time>2013-10-08T07:29:03Z</time>
      </trkpt>
      <trkpt lat="44.0732" lon="2.10651">
        <ele>244.79</ele>
        <time>2013-10-08T07:29:14Z</time>
      </trkpt>
      <trkpt lat="44.07327" lon="2.10654">
        <ele>244.31</ele>
        <time>2013-10-08T07:29:19Z</time>
      </trkpt>
      <trkpt lat="44.07335" lon="2.10665">
        <ele>244.79</ele>
        <time>2013-10-08T07:29:31Z</time>
      </trkpt>
      <trkpt lat="44.07339" lon="2.10671">
        <ele>245.75</ele>
        <time>2013-10-08T07:29:37Z</time>
      </trkpt>
      <trkpt lat="44.0735" lon="2.10678">
        <ele>246.72</ele>
        <time>2013-10-08T07:29:49Z</time>
      </trkpt>
      <trkpt lat="44.07359" lon="2.10684">
        <ele>247.2</ele>
        <time>2013-10-08T07:30:01Z</time>
      </trkpt>
      <trkpt lat="44.0736" lon="2.10684">
        <ele>247.2</ele>
        <time>2013-10-08T07:30:02Z</time>
      </trkpt>
      <trkpt lat="44.07363" lon="2.10686">
        <ele>247.68</ele>
        <time>2013-10-08T07:30:05Z</time>
      </trkpt>
      <trkpt lat="44.07373" lon="2.10695">
        <ele>247.68</ele>
        <time>2013-10-08T07:30:17Z</time>
      </trkpt>
      <trkpt lat="44.07374" lon="2.10696">
        <ele>247.2</ele>
        <time>2013-10-08T07:30:18Z</time>
      </trkpt>
      <trkpt lat="44.07377" lon="2.10698">
        <ele>247.68</ele>
        <time>2013-10-08T07:30:21Z</time>
      </trkpt>
      <trkpt lat="44.07391" lon="2.1071">
        <ele>248.64</ele>
        <time>2013-10-08T07:30:35Z</time>
      </trkpt>
      <trkpt lat="44.07401" lon="2.10716">
        <ele>250.08</ele>
        <time>2013-10-08T07:30:45Z</time>
      </trkpt>
      <trkpt lat="44.07412" lon="2.10723">
        <ele>248.16</ele>
        <time>2013-10-08T07:30:57Z</time>
      </trkpt>
      <trkpt lat="44.07416" lon="2.1073">
        <ele>246.72</ele>
        <time>2013-10-08T07:31:03Z</time>
      </trkpt>
      <trkpt lat="44.07424" lon="2.10742">
        <ele>243.83</ele>
        <time>2013-10-08T07:31:16Z</time>
      </trkpt>
      <trkpt lat="44.07431" lon="2.10752">
        <ele>243.35</ele>
        <time>2013-10-08T07:31:25Z</time>
      </trkpt>
      <trkpt lat="44.07433" lon="2.10764">
        <ele>243.83</ele>
        <time>2013-10-08T07:31:37Z</time>
      </trkpt>
      <trkpt lat="44.07439" lon="2.10774">
        <ele>244.31</ele>
        <time>2013-10-08T07:31:49Z</time>
      </trkpt>
      <trkpt lat="44.07443" lon="2.10785">
        <ele>245.75</ele>
        <time>2013-10-08T07:31:59Z</time>
      </trkpt>
      <trkpt lat="44.0745" lon="2.10801">
        <ele>247.2</ele>
        <time>2013-10-08T07:32:12Z</time>
      </trkpt>
      <trkpt lat="44.07454" lon="2.10818">
        <ele>247.2</ele>
        <time>2013-10-08T07:32:26Z</time>
      </trkpt>
      <trkpt lat="44.07454" lon="2.1082">
        <ele>247.68</ele>
        <time>2013-10-08T07:32:28Z</time>
      </trkpt>
      <trkpt lat="44.07458" lon="2.1084">
        <ele>249.12</ele>
        <time>2013-10-08T07:32:42Z</time>
      </trkpt>
      <trkpt lat="44.07461" lon="2.10854">
        <ele>250.08</ele>
        <time>2013-10-08T07:32:54Z</time>
      </trkpt>
      <trkpt lat="44.07463" lon="2.10866">
        <ele>249.6</ele>
        <time>2013-10-08T07:33:07Z</time>
      </trkpt>
      <trkpt lat="44.07464" lon="2.10875">
        <ele>250.56</ele>
        <time>2013-10-08T07:33:17Z</time>
      </trkpt>
      <trkpt lat="44.07465" lon="2.10885">
        <ele>252.48</ele>
        <time>2013-10-08T07:33:28Z</time>
      </trkpt>
      <trkpt lat="44.07466" lon="2.10892">
        <ele>253.44</ele>
        <time>2013-10-08T07:33:39Z</time>
      </trkpt>
      <trkpt lat="44.07466" lon="2.10894">
        <ele>253.44</ele>
        <time>2013-10-08T07:33:41Z</time>
      </trkpt>
      <trkpt lat="44.07468" lon="2.1091">
        <ele>253.93</ele>
        <time>2013-10-08T07:33:53Z</time>
      </trkpt>
      <trkpt lat="44.07473" lon="2.10921">
        <ele>256.81</ele>
        <time>2013-10-08T07:34:02Z</time>
      </trkpt>
      <trkpt lat="44.07479" lon="2.10926">
        <ele>260.65</ele>
        <time>2013-10-08T07:34:14Z</time>
      </trkpt>
      <trkpt lat="44.07485" lon="2.10936">
        <ele>262.1</ele>
        <time>2013-10-08T07:34:31Z</time>
      </trkpt>
      <trkpt lat="44.0749" lon="2.10955">
        <ele>263.06</ele>
        <time>2013-10-08T07:34:46Z</time>
      </trkpt>
      <trkpt lat="44.07487" lon="2.10963">
        <ele>264.98</ele>
        <time>2013-10-08T07:35:03Z</time>
      </trkpt>
      <trkpt lat="44.07485" lon="2.10964">
        <ele>265.46</ele>
        <time>2013-10-08T07:35:18Z</time>
      </trkpt>
      <trkpt lat="44.07488" lon="2.10961">
        <ele>263.54</ele>
        <time>2013-10-08T07:35:40Z</time>
      </trkpt>
      <trkpt lat="44.07488" lon="2.10962">
        <ele>264.02</ele>
        <time>2013-10-08T07:35:57Z</time>
      </trkpt>
      <trkpt lat="44.07487" lon="2.10963">
        <ele>264.5</ele>
        <time>2013-10-08T07:36:27Z</time>
      </trkpt>
      <trkpt lat="44.07487" lon="2.10962">
        <ele>262.1</ele>
        <time>2013-10-08T07:36:56Z</time>
      </trkpt>
      <trkpt lat="44.07487" lon="2.10972">
        <ele>262.1</ele>
        <time>2013-10-08T07:37:11Z</time>
      </trkpt>
      <trkpt lat="44.07486" lon="2.10983">
        <ele>262.1</ele>
        <time>2013-10-08T07:37:25Z</time>
      </trkpt>
      <trkpt lat="44.07485" lon="2.10999">
        <ele>264.02</ele>
        <time>2013-10-08T07:37:38Z</time>
      </trkpt>
      <trkpt lat="44.07487" lon="2.11005">
        <ele>264.5</ele>
        <time>2013-10-08T07:37:42Z</time>
      </trkpt>
      <trkpt lat="44.07491" lon="2.11021">
        <ele>266.42</ele>
        <time>2013-10-08T07:37:54Z</time>
      </trkpt>
      <trkpt lat="44.07492" lon="2.11022">
        <ele>266.9</ele>
        <time>2013-10-08T07:37:55Z</time>
      </trkpt>
      <trkpt lat="44.07496" lon="2.11024">
        <ele>269.31</ele>
        <time>2013-10-08T07:38:07Z</time>
      </trkpt>
      <trkpt lat="44.07498" lon="2.11024">
        <ele>270.27</ele>
        <time>2013-10-08T07:38:23Z</time>
      </trkpt>
      <trkpt lat="44.075" lon="2.11041">
        <ele>274.59</ele>
        <time>2013-10-08T07:38:37Z</time>
      </trkpt>
      <trkpt lat="44.07501" lon="2.11059">
        <ele>273.63</ele>
        <time>2013-10-08T07:38:51Z</time>
      </trkpt>
      <trkpt lat="44.07497" lon="2.11078">
        <ele>271.23</ele>
        <time>2013-10-08T07:39:04Z</time>
      </trkpt>
      <trkpt lat="44.07497" lon="2.11082">
        <ele>269.79</ele>
        <time>2013-10-08T07:39:08Z</time>
      </trkpt>
      <trkpt lat="44.07497" lon="2.11098">
        <ele>267.86</ele>
        <time>2013-10-08T07:39:22Z</time>
      </trkpt>
      <trkpt lat="44.07497" lon="2.11109">
        <ele>267.38</ele>
        <time>2013-10-08T07:39:31Z</time>
      </trkpt>
      <trkpt lat="44.07495" lon="2.11126">
        <ele>265.94</ele>
        <time>2013-10-08T07:39:46Z</time>
      </trkpt>
      <trkpt lat="44.07494" lon="2.1114">
        <ele>264.98</ele>
        <time>2013-10-08T07:39:59Z</time>
      </trkpt>
      <trkpt lat="44.07494" lon="2.11146">
        <ele>263.54</ele>
        <time>2013-10-08T07:40:07Z</time>
      </trkpt>
      <trkpt lat="44.07493" lon="2.11149">
        <ele>264.02</ele>
        <time>2013-10-08T07:40:09Z</time>
      </trkpt>
      <trkpt lat="44.07493" lon="2.11153">
        <ele>264.5</ele>
        <time>2013-10-08T07:40:12Z</time>
      </trkpt>
      <trkpt lat="44.07494" lon="2.11171">
        <ele>266.42</ele>
        <time>2013-10-08T07:40:26Z</time>
      </trkpt>
      <trkpt lat="44.07497" lon="2.11183">
        <ele>269.31</ele>
        <time>2013-10-08T07:40:33Z</time>
      </trkpt>
      <trkpt lat="44.07499" lon="2.112">
        <ele>272.19</ele>
        <time>2013-10-08T07:40:46Z</time>
      </trkpt>
      <trkpt lat="44.07502" lon="2.11216">
        <ele>275.56</ele>
        <time>2013-10-08T07:40:59Z</time>
      </trkpt>
      <trkpt lat="44.07501" lon="2.11226">
        <ele>276.52</ele>
        <time>2013-10-08T07:41:07Z</time>
      </trkpt>
      <trkpt lat="44.07498" lon="2.11244">
        <ele>279.88</ele>
        <time>2013-10-08T07:41:21Z</time>
      </trkpt>
      <trkpt lat="44.07501" lon="2.11251">
        <ele>282.28</ele>
        <time>2013-10-08T07:41:27Z</time>
      </trkpt>
      <trkpt lat="44.07499" lon="2.11257">
        <ele>282.28</ele>
        <time>2013-10-08T07:41:31Z</time>
      </trkpt>
      <trkpt lat="44.07497" lon="2.11275">
        <ele>285.65</ele>
        <time>2013-10-08T07:41:44Z</time>
      </trkpt>
      <trkpt lat="44.07497" lon="2.11277">
        <ele>285.65</ele>
        <time>2013-10-08T07:41:45Z</time>
      </trkpt>
      <trkpt lat="44.07497" lon="2.1129">
        <ele>286.61</ele>
        <time>2013-10-08T07:41:54Z</time>
      </trkpt>
      <trkpt lat="44.07495" lon="2.11304">
        <ele>287.09</ele>
        <time>2013-10-08T07:42:04Z</time>
      </trkpt>
      <trkpt lat="44.07492" lon="2.11317">
        <ele>288.05</ele>
        <time>2013-10-08T07:42:13Z</time>
      </trkpt>
      <trkpt lat="44.07488" lon="2.11335">
        <ele>289.01</ele>
        <time>2013-10-08T07:42:27Z</time>
      </trkpt>
      <trkpt lat="44.07484" lon="2.11347">
        <ele>290.94</ele>
        <time>2013-10-08T07:42:37Z</time>
      </trkpt>
      <trkpt lat="44.0748" lon="2.11359">
        <ele>290.94</ele>
        <time>2013-10-08T07:42:46Z</time>
      </trkpt>
      <trkpt lat="44.07479" lon="2.11362">
        <ele>290.46</ele>
        <time>2013-10-08T07:42:48Z</time>
      </trkpt>
      <trkpt lat="44.07477" lon="2.11377">
        <ele>292.38</ele>
        <time>2013-10-08T07:42:58Z</time>
      </trkpt>
      <trkpt lat="44.07474" lon="2.11386">
        <ele>292.86</ele>
        <time>2013-10-08T07:43:04Z</time>
      </trkpt>
      <trkpt lat="44.07475" lon="2.11397">
        <ele>292.38</ele>
        <time>2013-10-08T07:43:13Z</time>
      </trkpt>
      <trkpt lat="44.07476" lon="2.11399">
        <ele>292.38</ele>
        <time>2013-10-08T07:43:15Z</time>
      </trkpt>
      <trkpt lat="44.07472" lon="2.11416">
        <ele>292.38</ele>
        <time>2013-10-08T07:43:27Z</time>
      </trkpt>
      <trkpt lat="44.0747" lon="2.11423">
        <ele>293.34</ele>
        <time>2013-10-08T07:43:32Z</time>
      </trkpt>
      <trkpt lat="44.0747" lon="2.11429">
        <ele>291.9</ele>
        <time>2013-10-08T07:43:38Z</time>
      </trkpt>
      <trkpt lat="44.0747" lon="2.11433">
        <ele>291.42</ele>
        <time>2013-10-08T07:43:40Z</time>
      </trkpt>
      <trkpt lat="44.07469" lon="2.11441">
        <ele>290.94</ele>
        <time>2013-10-08T07:43:45Z</time>
      </trkpt>
      <trkpt lat="44.07471" lon="2.11447">
        <ele>290.94</ele>
        <time>2013-10-08T07:43:49Z</time>
      </trkpt>
      <trkpt lat="44.07473" lon="2.11452">
        <ele>290.94</ele>
        <time>2013-10-08T07:43:52Z</time>
      </trkpt>
      <trkpt lat="44.07475" lon="2.11468">
        <ele>289.97</ele>
        <time>2013-10-08T07:44:02Z</time>
      </trkpt>
      <trkpt lat="44.07474" lon="2.11484">
        <ele>285.65</ele>
        <time>2013-10-08T07:44:14Z</time>
      </trkpt>
      <trkpt lat="44.07473" lon="2.1149">
        <ele>285.17</ele>
        <time>2013-10-08T07:44:18Z</time>
      </trkpt>
      <trkpt lat="44.07473" lon="2.11496">
        <ele>284.69</ele>
        <time>2013-10-08T07:44:22Z</time>
      </trkpt>
      <trkpt lat="44.07472" lon="2.11498">
        <ele>284.21</ele>
        <time>2013-10-08T07:44:24Z</time>
      </trkpt>
      <trkpt lat="44.07475" lon="2.11501">
        <ele>283.25</ele>
        <time>2013-10-08T07:44:27Z</time>
      </trkpt>
      <trkpt lat="44.07475" lon="2.1151">
        <ele>282.77</ele>
        <time>2013-10-08T07:44:37Z</time>
      </trkpt>
      <trkpt lat="44.07481" lon="2.11528">
        <ele>282.77</ele>
        <time>2013-10-08T07:44:50Z</time>
      </trkpt>
      <trkpt lat="44.07482" lon="2.11537">
        <ele>282.28</ele>
        <time>2013-10-08T07:44:56Z</time>
      </trkpt>
      <trkpt lat="44.07482" lon="2.11542">
        <ele>282.77</ele>
        <time>2013-10-08T07:44:59Z</time>
      </trkpt>
      <trkpt lat="44.07485" lon="2.11558">
        <ele>284.21</ele>
        <time>2013-10-08T07:45:12Z</time>
      </trkpt>
      <trkpt lat="44.07485" lon="2.1156">
        <ele>284.21</ele>
        <time>2013-10-08T07:45:14Z</time>
      </trkpt>
      <trkpt lat="44.07486" lon="2.11566">
        <ele>284.69</ele>
        <time>2013-10-08T07:45:20Z</time>
      </trkpt>
      <trkpt lat="44.07488" lon="2.11571">
        <ele>286.61</ele>
        <time>2013-10-08T07:45:25Z</time>
      </trkpt>
      <trkpt lat="44.07494" lon="2.11581">
        <ele>288.53</ele>
        <time>2013-10-08T07:45:34Z</time>
      </trkpt>
      <trkpt lat="44.07499" lon="2.11585">
        <ele>290.46</ele>
        <time>2013-10-08T07:45:37Z</time>
      </trkpt>
      <trkpt lat="44.07501" lon="2.1159">
        <ele>290.94</ele>
        <time>2013-10-08T07:45:41Z</time>
      </trkpt>
      <trkpt lat="44.07505" lon="2.11597">
        <ele>292.86</ele>
        <time>2013-10-08T07:45:47Z</time>
      </trkpt>
      <trkpt lat="44.07512" lon="2.1161">
        <ele>294.78</ele>
        <time>2013-10-08T07:45:59Z</time>
      </trkpt>
      <trkpt lat="44.07513" lon="2.11613">
        <ele>294.3</ele>
        <time>2013-10-08T07:46:01Z</time>
      </trkpt>
      <trkpt lat="44.07516" lon="2.1162">
        <ele>295.26</ele>
        <time>2013-10-08T07:46:05Z</time>
      </trkpt>
      <trkpt lat="44.07517" lon="2.11635">
        <ele>293.34</ele>
        <time>2013-10-08T07:46:15Z</time>
      </trkpt>
      <trkpt lat="44.07521" lon="2.11652">
        <ele>292.38</ele>
        <time>2013-10-08T07:46:26Z</time>
      </trkpt>
      <trkpt lat="44.07524" lon="2.11659">
        <ele>293.34</ele>
        <time>2013-10-08T07:46:31Z</time>
      </trkpt>
      <trkpt lat="44.07528" lon="2.11669">
        <ele>292.86</ele>
        <time>2013-10-08T07:46:38Z</time>
      </trkpt>
      <trkpt lat="44.07535" lon="2.11689">
        <ele>294.3</ele>
        <time>2013-10-08T07:46:51Z</time>
      </trkpt>
      <trkpt lat="44.07543" lon="2.11705">
        <ele>297.67</ele>
        <time>2013-10-08T07:47:03Z</time>
      </trkpt>
      <trkpt lat="44.07545" lon="2.11709">
        <ele>297.67</ele>
        <time>2013-10-08T07:47:06Z</time>
      </trkpt>
      <trkpt lat="44.07546" lon="2.11713">
        <ele>297.67</ele>
        <time>2013-10-08T07:47:09Z</time>
      </trkpt>
      <trkpt lat="44.07548" lon="2.11716">
        <ele>297.18</ele>
        <time>2013-10-08T07:47:12Z</time>
      </trkpt>
      <trkpt lat="44.0755" lon="2.11718">
        <ele>297.18</ele>
        <time>2013-10-08T07:47:14Z</time>
      </trkpt>
      <trkpt lat="44.07555" lon="2.11725">
        <ele>296.22</ele>
        <time>2013-10-08T07:47:22Z</time>
      </trkpt>
      <trkpt lat="44.07556" lon="2.11727">
        <ele>293.82</ele>
        <time>2013-10-08T07:47:33Z</time>
      </trkpt>
      <trkpt lat="44.07559" lon="2.11729">
        <ele>293.34</ele>
        <time>2013-10-08T07:47:37Z</time>
      </trkpt>
      <trkpt lat="44.07564" lon="2.1174">
        <ele>292.38</ele>
        <time>2013-10-08T07:47:45Z</time>
      </trkpt>
      <trkpt lat="44.07569" lon="2.11743">
        <ele>291.9</ele>
        <time>2013-10-08T07:47:49Z</time>
      </trkpt>
      <trkpt lat="44.0758" lon="2.11759">
        <ele>291.9</ele>
        <time>2013-10-08T07:48:04Z</time>
      </trkpt>
      <trkpt lat="44.07578" lon="2.11759">
        <ele>290.46</ele>
        <time>2013-10-08T07:48:22Z</time>
      </trkpt>
      <trkpt lat="44.07577" lon="2.11758">
        <ele>289.49</ele>
        <time>2013-10-08T07:48:52Z</time>
      </trkpt>
      <trkpt lat="44.07581" lon="2.11759">
        <ele>289.49</ele>
        <time>2013-10-08T07:48:56Z</time>
      </trkpt>
      <trkpt lat="44.07597" lon="2.11764">
        <ele>289.01</ele>
        <time>2013-10-08T07:49:07Z</time>
      </trkpt>
      <trkpt lat="44.07601" lon="2.1177">
        <ele>289.01</ele>
        <time>2013-10-08T07:49:21Z</time>
      </trkpt>
      <trkpt lat="44.07603" lon="2.11773">
        <ele>288.05</ele>
        <time>2013-10-08T07:49:24Z</time>
      </trkpt>
      <trkpt lat="44.07612" lon="2.11779">
        <ele>287.57</ele>
        <time>2013-10-08T07:49:30Z</time>
      </trkpt>
      <trkpt lat="44.07629" lon="2.1179">
        <ele>287.57</ele>
        <time>2013-10-08T07:49:43Z</time>
      </trkpt>
      <trkpt lat="44.07644" lon="2.11799">
        <ele>284.69</ele>
        <time>2013-10-08T07:49:56Z</time>
      </trkpt>
      <trkpt lat="44.07644" lon="2.11799">
        <ele>284.69</ele>
        <time>2013-10-08T07:49:57Z</time>
      </trkpt>
      <trkpt lat="44.07647" lon="2.11805">
        <ele>285.17</ele>
        <time>2013-10-08T07:50:03Z</time>
      </trkpt>
      <trkpt lat="44.0765" lon="2.11809">
        <ele>284.69</ele>
        <time>2013-10-08T07:50:07Z</time>
      </trkpt>
      <trkpt lat="44.07659" lon="2.11819">
        <ele>286.61</ele>
        <time>2013-10-08T07:50:18Z</time>
      </trkpt>
      <trkpt lat="44.07663" lon="2.11822">
        <ele>286.61</ele>
        <time>2013-10-08T07:50:23Z</time>
      </trkpt>
      <trkpt lat="44.07667" lon="2.11825">
        <ele>286.13</ele>
        <time>2013-10-08T07:50:26Z</time>
      </trkpt>
      <trkpt lat="44.07678" lon="2.11833">
        <ele>285.17</ele>
        <time>2013-10-08T07:50:41Z</time>
      </trkpt>
      <trkpt lat="44.07684" lon="2.11836">
        <ele>284.21</ele>
        <time>2013-10-08T07:50:48Z</time>
      </trkpt>
      <trkpt lat="44.07698" lon="2.11843">
        <ele>282.77</ele>
        <time>2013-10-08T07:51:01Z</time>
      </trkpt>
      <trkpt lat="44.0771" lon="2.11853">
        <ele>282.77</ele>
        <time>2013-10-08T07:51:13Z</time>
      </trkpt>
      <trkpt lat="44.07715" lon="2.11863">
        <ele>282.28</ele>
        <time>2013-10-08T07:51:24Z</time>
      </trkpt>
      <trkpt lat="44.07723" lon="2.11873">
        <ele>282.28</ele>
        <time>2013-10-08T07:51:33Z</time>
      </trkpt>
      <trkpt lat="44.07729" lon="2.1188">
        <ele>281.32</ele>
        <time>2013-10-08T07:51:39Z</time>
      </trkpt>
      <trkpt lat="44.07739" lon="2.11883">
        <ele>282.28</ele>
        <time>2013-10-08T07:51:53Z</time>
      </trkpt>
      <trkpt lat="44.07748" lon="2.1189">
        <ele>284.69</ele>
        <time>2013-10-08T07:52:07Z</time>
      </trkpt>
      <trkpt lat="44.07751" lon="2.11895">
        <ele>284.69</ele>
        <time>2013-10-08T07:52:11Z</time>
      </trkpt>
      <trkpt lat="44.07753" lon="2.11911">
        <ele>286.61</ele>
        <time>2013-10-08T07:52:21Z</time>
      </trkpt>
      <trkpt lat="44.07753" lon="2.11914">
        <ele>287.09</ele>
        <time>2013-10-08T07:52:23Z</time>
      </trkpt>
      <trkpt lat="44.0776" lon="2.11934">
        <ele>288.53</ele>
        <time>2013-10-08T07:52:37Z</time>
      </trkpt>
      <trkpt lat="44.07764" lon="2.11949">
        <ele>291.42</ele>
        <time>2013-10-08T07:52:50Z</time>
      </trkpt>
      <trkpt lat="44.07771" lon="2.11962">
        <ele>290.46</ele>
        <time>2013-10-08T07:53:01Z</time>
      </trkpt>
      <trkpt lat="44.0778" lon="2.11974">
        <ele>290.94</ele>
        <time>2013-10-08T07:53:11Z</time>
      </trkpt>
      <trkpt lat="44.07788" lon="2.11995">
        <ele>289.49</ele>
        <time>2013-10-08T07:53:27Z</time>
      </trkpt>
      <trkpt lat="44.07792" lon="2.12004">
        <ele>288.53</ele>
        <time>2013-10-08T07:53:34Z</time>
      </trkpt>
      <trkpt lat="44.07792" lon="2.12009">
        <ele>289.01</ele>
        <time>2013-10-08T07:53:37Z</time>
      </trkpt>
      <trkpt lat="44.07796" lon="2.12017">
        <ele>288.53</ele>
        <time>2013-10-08T07:53:43Z</time>
      </trkpt>
      <trkpt lat="44.07799" lon="2.1203">
        <ele>288.53</ele>
        <time>2013-10-08T07:53:53Z</time>
      </trkpt>
      <trkpt lat="44.07803" lon="2.12034">
        <ele>288.53</ele>
        <time>2013-10-08T07:53:57Z</time>
      </trkpt>
      <trkpt lat="44.07806" lon="2.12042">
        <ele>288.05</ele>
        <time>2013-10-08T07:54:03Z</time>
      </trkpt>
      <trkpt lat="44.07806" lon="2.12046">
        <ele>288.53</ele>
        <time>2013-10-08T07:54:06Z</time>
      </trkpt>
      <trkpt lat="44.07808" lon="2.12051">
        <ele>289.97</ele>
        <time>2013-10-08T07:54:11Z</time>
      </trkpt>
      <trkpt lat="44.07814" lon="2.12068">
        <ele>292.38</ele>
        <time>2013-10-08T07:54:25Z</time>
      </trkpt>
      <trkpt lat="44.07818" lon="2.12074">
        <ele>293.34</ele>
        <time>2013-10-08T07:54:30Z</time>
      </trkpt>
      <trkpt lat="44.0782" lon="2.12077">
        <ele>294.3</ele>
        <time>2013-10-08T07:54:33Z</time>
      </trkpt>
      <trkpt lat="44.07822" lon="2.1208">
        <ele>294.3</ele>
        <time>2013-10-08T07:54:35Z</time>
      </trkpt>
      <trkpt lat="44.07825" lon="2.12085">
        <ele>295.74</ele>
        <time>2013-10-08T07:54:43Z</time>
      </trkpt>
      <trkpt lat="44.07833" lon="2.12096">
        <ele>299.11</ele>
        <time>2013-10-08T07:54:56Z</time>
      </trkpt>
      <trkpt lat="44.07844" lon="2.1211">
        <ele>300.07</ele>
        <time>2013-10-08T07:55:11Z</time>
      </trkpt>
      <trkpt lat="44.07847" lon="2.12122">
        <ele>301.03</ele>
        <time>2013-10-08T07:55:24Z</time>
      </trkpt>
      <trkpt lat="44.07847" lon="2.1213">
        <ele>302.95</ele>
        <time>2013-10-08T07:55:35Z</time>
      </trkpt>
      <trkpt lat="44.07848" lon="2.12132">
        <ele>302.47</ele>
        <time>2013-10-08T07:55:53Z</time>
      </trkpt>
      <trkpt lat="44.07853" lon="2.12146">
        <ele>303.91</ele>
        <time>2013-10-08T07:56:08Z</time>
      </trkpt>
      <trkpt lat="44.07854" lon="2.12147">
        <ele>303.91</ele>
        <time>2013-10-08T07:56:10Z</time>
      </trkpt>
      <trkpt lat="44.07856" lon="2.12147">
        <ele>303.43</ele>
        <time>2013-10-08T07:56:12Z</time>
      </trkpt>
      <trkpt lat="44.07864" lon="2.12146">
        <ele>302.47</ele>
        <time>2013-10-08T07:56:22Z</time>
      </trkpt>
      <trkpt lat="44.0788" lon="2.12143">
        <ele>301.03</ele>
        <time>2013-10-08T07:56:34Z</time>
      </trkpt>
      <trkpt lat="44.07898" lon="2.12142">
        <ele>297.67</ele>
        <time>2013-10-08T07:56:48Z</time>
      </trkpt>
      <trkpt lat="44.07906" lon="2.12138">
        <ele>295.26</ele>
        <time>2013-10-08T07:56:55Z</time>
      </trkpt>
      <trkpt lat="44.07911" lon="2.12126">
        <ele>293.34</ele>
        <time>2013-10-08T07:57:10Z</time>
      </trkpt>
      <trkpt lat="44.07909" lon="2.12126">
        <ele>291.42</ele>
        <time>2013-10-08T07:57:21Z</time>
      </trkpt>
      <trkpt lat="44.07909" lon="2.12125">
        <ele>290.94</ele>
        <time>2013-10-08T07:57:33Z</time>
      </trkpt>
      <trkpt lat="44.0791" lon="2.12125">
        <ele>291.42</ele>
        <time>2013-10-08T07:57:47Z</time>
      </trkpt>
      <trkpt lat="44.07912" lon="2.12125">
        <ele>291.9</ele>
        <time>2013-10-08T07:58:06Z</time>
      </trkpt>
      <trkpt lat="44.0791" lon="2.12127">
        <ele>291.42</ele>
        <time>2013-10-08T07:58:19Z</time>
      </trkpt>
      <trkpt lat="44.0791" lon="2.12126">
        <ele>291.42</ele>
        <time>2013-10-08T07:58:45Z</time>
      </trkpt>
      <trkpt lat="44.07911" lon="2.12125">
        <ele>291.42</ele>
        <time>2013-10-08T07:58:49Z</time>
      </trkpt>
      <trkpt lat="44.07913" lon="2.12127">
        <ele>291.42</ele>
        <time>2013-10-08T07:59:00Z</time>
      </trkpt>
      <trkpt lat="44.07913" lon="2.12126">
        <ele>290.94</ele>
        <time>2013-10-08T07:59:10Z</time>
      </trkpt>
      <trkpt lat="44.07912" lon="2.12126">
        <ele>290.94</ele>
        <time>2013-10-08T07:59:36Z</time>
      </trkpt>
      <trkpt lat="44.07911" lon="2.12128">
        <ele>291.9</ele>
        <time>2013-10-08T07:59:46Z</time>
      </trkpt>
      <trkpt lat="44.07911" lon="2.12128">
        <ele>293.82</ele>
        <time>2013-10-08T08:00:01Z</time>
      </trkpt>
      <trkpt lat="44.07911" lon="2.12129">
        <ele>294.3</ele>
        <time>2013-10-08T08:00:28Z</time>
      </trkpt>
      <trkpt lat="44.07911" lon="2.1213">
        <ele>294.78</ele>
        <time>2013-10-08T08:00:54Z</time>
      </trkpt>
      <trkpt lat="44.07911" lon="2.12128">
        <ele>293.82</ele>
        <time>2013-10-08T08:01:19Z</time>
      </trkpt>
      <trkpt lat="44.0791" lon="2.12128">
        <ele>293.82</ele>
        <time>2013-10-08T08:01:30Z</time>
      </trkpt>
      <trkpt lat="44.0791" lon="2.12127">
        <ele>294.3</ele>
        <time>2013-10-08T08:01:55Z</time>
      </trkpt>
      <trkpt lat="44.07912" lon="2.12126">
        <ele>294.78</ele>
        <time>2013-10-08T08:02:19Z</time>
      </trkpt>
      <trkpt lat="44.07915" lon="2.12127">
        <ele>293.34</ele>
        <time>2013-10-08T08:02:45Z</time>
      </trkpt>
      <trkpt lat="44.07913" lon="2.12124">
        <ele>293.82</ele>
        <time>2013-10-08T08:03:06Z</time>
      </trkpt>
      <trkpt lat="44.07912" lon="2.12128">
        <ele>293.34</ele>
        <time>2013-10-08T08:03:25Z</time>
      </trkpt>
      <trkpt lat="44.07912" lon="2.12128">
        <ele>293.82</ele>
        <time>2013-10-08T08:03:39Z</time>
      </trkpt>
      <trkpt lat="44.07912" lon="2.12128">
        <ele>294.3</ele>
        <time>2013-10-08T08:04:06Z</time>
      </trkpt>
      <trkpt lat="44.07912" lon="2.12128">
        <ele>294.3</ele>
        <time>2013-10-08T08:04:34Z</time>
      </trkpt>
      <trkpt lat="44.07911" lon="2.12128">
        <ele>294.3</ele>
        <time>2013-10-08T08:04:53Z</time>
      </trkpt>
      <trkpt lat="44.07912" lon="2.12137">
        <ele>292.86</ele>
        <time>2013-10-08T08:05:04Z</time>
      </trkpt>
      <trkpt lat="44.07918" lon="2.12137">
        <ele>291.42</ele>
        <time>2013-10-08T08:05:14Z</time>
      </trkpt>
      <trkpt lat="44.07934" lon="2.12135">
        <ele>292.38</ele>
        <time>2013-10-08T08:05:29Z</time>
      </trkpt>
      <trkpt lat="44.07943" lon="2.12133">
        <ele>290.94</ele>
        <time>2013-10-08T08:05:40Z</time>
      </trkpt>
      <trkpt lat="44.07959" lon="2.12129">
        <ele>288.53</ele>
        <time>2013-10-08T08:05:53Z</time>
      </trkpt>
      <trkpt lat="44.07969" lon="2.12128">
        <ele>285.65</ele>
        <time>2013-10-08T08:06:06Z</time>
      </trkpt>
      <trkpt lat="44.07972" lon="2.12126">
        <ele>285.65</ele>
        <time>2013-10-08T08:06:08Z</time>
      </trkpt>
      <trkpt lat="44.07993" lon="2.12124">
        <ele>286.61</ele>
        <time>2013-10-08T08:06:22Z</time>
      </trkpt>
      <trkpt lat="44.08007" lon="2.12122">
        <ele>287.09</ele>
        <time>2013-10-08T08:06:31Z</time>
      </trkpt>
      <trkpt lat="44.08022" lon="2.12123">
        <ele>288.05</ele>
        <time>2013-10-08T08:06:43Z</time>
      </trkpt>
      <trkpt lat="44.0803" lon="2.12121">
        <ele>288.05</ele>
        <time>2013-10-08T08:06:50Z</time>
      </trkpt>
      <trkpt lat="44.08036" lon="2.12119">
        <ele>288.53</ele>
        <time>2013-10-08T08:06:56Z</time>
      </trkpt>
      <trkpt lat="44.08055" lon="2.12114">
        <ele>288.05</ele>
        <time>2013-10-08T08:07:12Z</time>
      </trkpt>
      <trkpt lat="44.08071" lon="2.12112">
        <ele>288.05</ele>
        <time>2013-10-08T08:07:26Z</time>
      </trkpt>
      <trkpt lat="44.08074" lon="2.1211">
        <ele>288.05</ele>
        <time>2013-10-08T08:07:29Z</time>
      </trkpt>
      <trkpt lat="44.08079" lon="2.1211">
        <ele>288.53</ele>
        <time>2013-10-08T08:07:33Z</time>
      </trkpt>
      <trkpt lat="44.08099" lon="2.12106">
        <ele>289.49</ele>
        <time>2013-10-08T08:07:49Z</time>
      </trkpt>
      <trkpt lat="44.08116" lon="2.12107">
        <ele>288.53</ele>
        <time>2013-10-08T08:08:03Z</time>
      </trkpt>
      <trkpt lat="44.08119" lon="2.12107">
        <ele>288.05</ele>
        <time>2013-10-08T08:08:05Z</time>
      </trkpt>
      <trkpt lat="44.08131" lon="2.12106">
        <ele>286.13</ele>
        <time>2013-10-08T08:08:14Z</time>
      </trkpt>
      <trkpt lat="44.08146" lon="2.12106">
        <ele>284.69</ele>
        <time>2013-10-08T08:08:28Z</time>
      </trkpt>
      <trkpt lat="44.0816" lon="2.12102">
        <ele>284.21</ele>
        <time>2013-10-08T08:08:41Z</time>
      </trkpt>
      <trkpt lat="44.08181" lon="2.121">
        <ele>284.21</ele>
        <time>2013-10-08T08:08:57Z</time>
      </trkpt>
      <trkpt lat="44.08191" lon="2.121">
        <ele>284.21</ele>
        <time>2013-10-08T08:09:04Z</time>
      </trkpt>
      <trkpt lat="44.08203" lon="2.12101">
        <ele>284.69</ele>
        <time>2013-10-08T08:09:12Z</time>
      </trkpt>
      <trkpt lat="44.0823" lon="2.12104">
        <ele>284.69</ele>
        <time>2013-10-08T08:09:28Z</time>
      </trkpt>
      <trkpt lat="44.08246" lon="2.12108">
        <ele>283.73</ele>
        <time>2013-10-08T08:09:42Z</time>
      </trkpt>
      <trkpt lat="44.08247" lon="2.12109">
        <ele>284.21</ele>
        <time>2013-10-08T08:09:43Z</time>
      </trkpt>
      <trkpt lat="44.08257" lon="2.12111">
        <ele>282.77</ele>
        <time>2013-10-08T08:09:48Z</time>
      </trkpt>
      <trkpt lat="44.08261" lon="2.12111">
        <ele>281.8</ele>
        <time>2013-10-08T08:09:51Z</time>
      </trkpt>
      <trkpt lat="44.08269" lon="2.12114">
        <ele>280.36</ele>
        <time>2013-10-08T08:09:58Z</time>
      </trkpt>
      <trkpt lat="44.08273" lon="2.12115">
        <ele>279.88</ele>
        <time>2013-10-08T08:10:01Z</time>
      </trkpt>
      <trkpt lat="44.08285" lon="2.12119">
        <ele>277.96</ele>
        <time>2013-10-08T08:10:12Z</time>
      </trkpt>
      <trkpt lat="44.08291" lon="2.1212">
        <ele>276.52</ele>
        <time>2013-10-08T08:10:16Z</time>
      </trkpt>
      <trkpt lat="44.08307" lon="2.12122">
        <ele>273.15</ele>
        <time>2013-10-08T08:10:30Z</time>
      </trkpt>
      <trkpt lat="44.08319" lon="2.12125">
        <ele>271.23</ele>
        <time>2013-10-08T08:10:40Z</time>
      </trkpt>
      <trkpt lat="44.08333" lon="2.12131">
        <ele>269.31</ele>
        <time>2013-10-08T08:10:52Z</time>
      </trkpt>
      <trkpt lat="44.08341" lon="2.12133">
        <ele>268.35</ele>
        <time>2013-10-08T08:10:58Z</time>
      </trkpt>
      <trkpt lat="44.08358" lon="2.1214">
        <ele>263.54</ele>
        <time>2013-10-08T08:11:11Z</time>
      </trkpt>
      <trkpt lat="44.08368" lon="2.1215">
        <ele>259.21</ele>
        <time>2013-10-08T08:11:24Z</time>
      </trkpt>
      <trkpt lat="44.08368" lon="2.12151">
        <ele>259.21</ele>
        <time>2013-10-08T08:11:25Z</time>
      </trkpt>
      <trkpt lat="44.08372" lon="2.1216">
        <ele>259.21</ele>
        <time>2013-10-08T08:11:31Z</time>
      </trkpt>
      <trkpt lat="44.08373" lon="2.12177">
        <ele>256.81</ele>
        <time>2013-10-08T08:11:43Z</time>
      </trkpt>
      <trkpt lat="44.08377" lon="2.12195">
        <ele>257.77</ele>
        <time>2013-10-08T08:11:53Z</time>
      </trkpt>
      <trkpt lat="44.08381" lon="2.12215">
        <ele>259.69</ele>
        <time>2013-10-08T08:12:05Z</time>
      </trkpt>
      <trkpt lat="44.08382" lon="2.12223">
        <ele>259.69</ele>
        <time>2013-10-08T08:12:10Z</time>
      </trkpt>
      <trkpt lat="44.08392" lon="2.12243">
        <ele>258.73</ele>
        <time>2013-10-08T08:12:24Z</time>
      </trkpt>
      <trkpt lat="44.08401" lon="2.12258">
        <ele>259.69</ele>
        <time>2013-10-08T08:12:37Z</time>
      </trkpt>
      <trkpt lat="44.08405" lon="2.1228">
        <ele>258.25</ele>
        <time>2013-10-08T08:12:50Z</time>
      </trkpt>
      <trkpt lat="44.08405" lon="2.12288">
        <ele>258.25</ele>
        <time>2013-10-08T08:12:57Z</time>
      </trkpt>
      <trkpt lat="44.08404" lon="2.1229">
        <ele>257.77</ele>
        <time>2013-10-08T08:12:59Z</time>
      </trkpt>
      <trkpt lat="44.08405" lon="2.12302">
        <ele>257.29</ele>
        <time>2013-10-08T08:13:05Z</time>
      </trkpt>
      <trkpt lat="44.08404" lon="2.12312">
        <ele>254.41</ele>
        <time>2013-10-08T08:13:11Z</time>
      </trkpt>
      <trkpt lat="44.08402" lon="2.12326">
        <ele>252.48</ele>
        <time>2013-10-08T08:13:19Z</time>
      </trkpt>
      <trkpt lat="44.084" lon="2.12334">
        <ele>250.08</ele>
        <time>2013-10-08T08:13:24Z</time>
      </trkpt>
      <trkpt lat="44.08397" lon="2.12361">
        <ele>247.68</ele>
        <time>2013-10-08T08:13:40Z</time>
      </trkpt>
      <trkpt lat="44.08394" lon="2.12377">
        <ele>246.72</ele>
        <time>2013-10-08T08:13:49Z</time>
      </trkpt>
      <trkpt lat="44.08393" lon="2.1238">
        <ele>246.23</ele>
        <time>2013-10-08T08:13:51Z</time>
      </trkpt>
      <trkpt lat="44.08389" lon="2.12392">
        <ele>244.79</ele>
        <time>2013-10-08T08:13:58Z</time>
      </trkpt>
      <trkpt lat="44.08391" lon="2.12408">
        <ele>243.35</ele>
        <time>2013-10-08T08:14:08Z</time>
      </trkpt>
      <trkpt lat="44.08392" lon="2.12426">
        <ele>244.31</ele>
        <time>2013-10-08T08:14:18Z</time>
      </trkpt>
      <trkpt lat="44.08392" lon="2.12446">
        <ele>244.79</ele>
        <time>2013-10-08T08:14:29Z</time>
      </trkpt>
      <trkpt lat="44.08391" lon="2.1245">
        <ele>245.27</ele>
        <time>2013-10-08T08:14:31Z</time>
      </trkpt>
      <trkpt lat="44.08387" lon="2.12458">
        <ele>246.23</ele>
        <time>2013-10-08T08:14:37Z</time>
      </trkpt>
      <trkpt lat="44.08387" lon="2.12463">
        <ele>246.23</ele>
        <time>2013-10-08T08:14:40Z</time>
      </trkpt>
      <trkpt lat="44.0839" lon="2.12495">
        <ele>245.75</ele>
        <time>2013-10-08T08:14:58Z</time>
      </trkpt>
      <trkpt lat="44.0839" lon="2.12501">
        <ele>245.27</ele>
        <time>2013-10-08T08:15:03Z</time>
      </trkpt>
      <trkpt lat="44.08388" lon="2.1251">
        <ele>246.23</ele>
        <time>2013-10-08T08:15:13Z</time>
      </trkpt>
      <trkpt lat="44.08388" lon="2.12514">
        <ele>246.23</ele>
        <time>2013-10-08T08:15:16Z</time>
      </trkpt>
      <trkpt lat="44.08387" lon="2.12518">
        <ele>245.75</ele>
        <time>2013-10-08T08:15:18Z</time>
      </trkpt>
      <trkpt lat="44.08383" lon="2.12546">
        <ele>246.23</ele>
        <time>2013-10-08T08:15:33Z</time>
      </trkpt>
      <trkpt lat="44.08381" lon="2.12558">
        <ele>246.72</ele>
        <time>2013-10-08T08:15:42Z</time>
      </trkpt>
      <trkpt lat="44.0838" lon="2.12562">
        <ele>246.23</ele>
        <time>2013-10-08T08:15:45Z</time>
      </trkpt>
      <trkpt lat="44.08376" lon="2.12584">
        <ele>247.68</ele>
        <time>2013-10-08T08:15:59Z</time>
      </trkpt>
      <trkpt lat="44.08372" lon="2.12607">
        <ele>248.16</ele>
        <time>2013-10-08T08:16:13Z</time>
      </trkpt>
      <trkpt lat="44.0837" lon="2.1263">
        <ele>249.12</ele>
        <time>2013-10-08T08:16:29Z</time>
      </trkpt>
      <trkpt lat="44.08365" lon="2.12651">
        <ele>250.56</ele>
        <time>2013-10-08T08:16:43Z</time>
      </trkpt>
      <trkpt lat="44.08359" lon="2.12673">
        <ele>251.04</ele>
        <time>2013-10-08T08:16:57Z</time>
      </trkpt>
      <trkpt lat="44.08354" lon="2.12692">
        <ele>250.56</ele>
        <time>2013-10-08T08:17:10Z</time>
      </trkpt>
      <trkpt lat="44.08355" lon="2.12708">
        <ele>251.52</ele>
        <time>2013-10-08T08:17:20Z</time>
      </trkpt>
      <trkpt lat="44.08354" lon="2.12715">
        <ele>251.52</ele>
        <time>2013-10-08T08:17:24Z</time>
      </trkpt>
      <trkpt lat="44.08357" lon="2.12731">
        <ele>252.96</ele>
        <time>2013-10-08T08:17:33Z</time>
      </trkpt>
      <trkpt lat="44.08365" lon="2.12753">
        <ele>255.37</ele>
        <time>2013-10-08T08:17:48Z</time>
      </trkpt>
      <trkpt lat="44.08368" lon="2.12762">
        <ele>256.81</ele>
        <time>2013-10-08T08:17:54Z</time>
      </trkpt>
      <trkpt lat="44.0837" lon="2.12771">
        <ele>257.77</ele>
        <time>2013-10-08T08:18:00Z</time>
      </trkpt>
      <trkpt lat="44.08372" lon="2.12776">
        <ele>257.77</ele>
        <time>2013-10-08T08:18:03Z</time>
      </trkpt>
      <trkpt lat="44.08374" lon="2.12783">
        <ele>258.73</ele>
        <time>2013-10-08T08:18:08Z</time>
      </trkpt>
      <trkpt lat="44.08375" lon="2.12788">
        <ele>258.73</ele>
        <time>2013-10-08T08:18:11Z</time>
      </trkpt>
      <trkpt lat="44.08378" lon="2.12797">
        <ele>259.21</ele>
        <time>2013-10-08T08:18:17Z</time>
      </trkpt>
      <trkpt lat="44.08379" lon="2.12802">
        <ele>260.17</ele>
        <time>2013-10-08T08:18:21Z</time>
      </trkpt>
      <trkpt lat="44.08382" lon="2.1281">
        <ele>261.62</ele>
        <time>2013-10-08T08:18:26Z</time>
      </trkpt>
      <trkpt lat="44.08381" lon="2.12815">
        <ele>262.1</ele>
        <time>2013-10-08T08:18:29Z</time>
      </trkpt>
      <trkpt lat="44.08387" lon="2.12829">
        <ele>265.46</ele>
        <time>2013-10-08T08:18:38Z</time>
      </trkpt>
      <trkpt lat="44.0839" lon="2.12846">
        <ele>267.86</ele>
        <time>2013-10-08T08:18:49Z</time>
      </trkpt>
      <trkpt lat="44.08393" lon="2.12862">
        <ele>269.31</ele>
        <time>2013-10-08T08:19:00Z</time>
      </trkpt>
      <trkpt lat="44.08399" lon="2.12879">
        <ele>268.35</ele>
        <time>2013-10-08T08:19:11Z</time>
      </trkpt>
      <trkpt lat="44.08407" lon="2.12896">
        <ele>268.35</ele>
        <time>2013-10-08T08:19:25Z</time>
      </trkpt>
      <trkpt lat="44.08409" lon="2.12899">
        <ele>268.83</ele>
        <time>2013-10-08T08:19:27Z</time>
      </trkpt>
      <trkpt lat="44.08416" lon="2.12909">
        <ele>268.83</ele>
        <time>2013-10-08T08:19:35Z</time>
      </trkpt>
      <trkpt lat="44.08432" lon="2.12922">
        <ele>268.83</ele>
        <time>2013-10-08T08:19:51Z</time>
      </trkpt>
      <trkpt lat="44.08442" lon="2.12936">
        <ele>269.79</ele>
        <time>2013-10-08T08:20:05Z</time>
      </trkpt>
      <trkpt lat="44.08443" lon="2.12938">
        <ele>270.27</ele>
        <time>2013-10-08T08:20:07Z</time>
      </trkpt>
      <trkpt lat="44.08452" lon="2.1296">
        <ele>273.15</ele>
        <time>2013-10-08T08:20:22Z</time>
      </trkpt>
      <trkpt lat="44.08457" lon="2.12982">
        <ele>274.59</ele>
        <time>2013-10-08T08:20:36Z</time>
      </trkpt>
      <trkpt lat="44.0846" lon="2.13003">
        <ele>274.11</ele>
        <time>2013-10-08T08:20:51Z</time>
      </trkpt>
      <trkpt lat="44.08466" lon="2.13016">
        <ele>275.07</ele>
        <time>2013-10-08T08:21:01Z</time>
      </trkpt>
      <trkpt lat="44.08466" lon="2.13041">
        <ele>275.56</ele>
        <time>2013-10-08T08:21:16Z</time>
      </trkpt>
      <trkpt lat="44.08465" lon="2.13064">
        <ele>277.48</ele>
        <time>2013-10-08T08:21:30Z</time>
      </trkpt>
      <trkpt lat="44.08463" lon="2.13073">
        <ele>277.48</ele>
        <time>2013-10-08T08:21:36Z</time>
      </trkpt>
      <trkpt lat="44.08462" lon="2.13095">
        <ele>276.52</ele>
        <time>2013-10-08T08:21:50Z</time>
      </trkpt>
      <trkpt lat="44.08462" lon="2.13099">
        <ele>277</ele>
        <time>2013-10-08T08:21:53Z</time>
      </trkpt>
      <trkpt lat="44.08457" lon="2.13121">
        <ele>277.96</ele>
        <time>2013-10-08T08:22:08Z</time>
      </trkpt>
      <trkpt lat="44.08457" lon="2.13121">
        <ele>277.96</ele>
        <time>2013-10-08T08:22:09Z</time>
      </trkpt>
      <trkpt lat="44.08451" lon="2.13127">
        <ele>277</ele>
        <time>2013-10-08T08:22:25Z</time>
      </trkpt>
      <trkpt lat="44.08451" lon="2.13129">
        <ele>277.96</ele>
        <time>2013-10-08T08:22:36Z</time>
      </trkpt>
      <trkpt lat="44.0845" lon="2.13135">
        <ele>277.48</ele>
        <time>2013-10-08T08:22:48Z</time>
      </trkpt>
      <trkpt lat="44.08441" lon="2.13154">
        <ele>276.52</ele>
        <time>2013-10-08T08:23:05Z</time>
      </trkpt>
      <trkpt lat="44.08434" lon="2.13174">
        <ele>276.04</ele>
        <time>2013-10-08T08:23:21Z</time>
      </trkpt>
      <trkpt lat="44.08431" lon="2.13181">
        <ele>275.07</ele>
        <time>2013-10-08T08:23:27Z</time>
      </trkpt>
      <trkpt lat="44.0843" lon="2.13185">
        <ele>275.07</ele>
        <time>2013-10-08T08:23:29Z</time>
      </trkpt>
      <trkpt lat="44.08428" lon="2.13194">
        <ele>276.04</ele>
        <time>2013-10-08T08:23:36Z</time>
      </trkpt>
      <trkpt lat="44.08437" lon="2.13209">
        <ele>276.52</ele>
        <time>2013-10-08T08:23:51Z</time>
      </trkpt>
      <trkpt lat="44.08441" lon="2.13212">
        <ele>277</ele>
        <time>2013-10-08T08:23:56Z</time>
      </trkpt>
      <trkpt lat="44.08454" lon="2.1322">
        <ele>277.48</ele>
        <time>2013-10-08T08:24:09Z</time>
      </trkpt>
      <trkpt lat="44.08467" lon="2.13224">
        <ele>276.52</ele>
        <time>2013-10-08T08:24:21Z</time>
      </trkpt>
      <trkpt lat="44.08471" lon="2.13229">
        <ele>275.56</ele>
        <time>2013-10-08T08:24:35Z</time>
      </trkpt>
      <trkpt lat="44.08478" lon="2.13232">
        <ele>274.59</ele>
        <time>2013-10-08T08:24:41Z</time>
      </trkpt>
      <trkpt lat="44.08485" lon="2.13235">
        <ele>273.15</ele>
        <time>2013-10-08T08:24:48Z</time>
      </trkpt>
      <trkpt lat="44.08492" lon="2.13243">
        <ele>270.27</ele>
        <time>2013-10-08T08:24:56Z</time>
      </trkpt>
      <trkpt lat="44.0849" lon="2.13256">
        <ele>267.86</ele>
        <time>2013-10-08T08:25:03Z</time>
      </trkpt>
      <trkpt lat="44.08479" lon="2.13267">
        <ele>265.94</ele>
        <time>2013-10-08T08:25:16Z</time>
      </trkpt>
      <trkpt lat="44.08479" lon="2.13268">
        <ele>265.94</ele>
        <time>2013-10-08T08:25:17Z</time>
      </trkpt>
      <trkpt lat="44.08475" lon="2.13269">
        <ele>265.94</ele>
        <time>2013-10-08T08:25:20Z</time>
      </trkpt>
      <trkpt lat="44.08462" lon="2.13281">
        <ele>268.83</ele>
        <time>2013-10-08T08:25:35Z</time>
      </trkpt>
      <trkpt lat="44.08447" lon="2.1329">
        <ele>271.23</ele>
        <time>2013-10-08T08:25:47Z</time>
      </trkpt>
      <trkpt lat="44.08435" lon="2.13301">
        <ele>273.63</ele>
        <time>2013-10-08T08:26:01Z</time>
      </trkpt>
      <trkpt lat="44.08427" lon="2.1332">
        <ele>273.15</ele>
        <time>2013-10-08T08:26:16Z</time>
      </trkpt>
      <trkpt lat="44.08427" lon="2.13332">
        <ele>273.63</ele>
        <time>2013-10-08T08:26:25Z</time>
      </trkpt>
      <trkpt lat="44.08428" lon="2.13345">
        <ele>273.63</ele>
        <time>2013-10-08T08:26:34Z</time>
      </trkpt>
      <trkpt lat="44.08429" lon="2.13349">
        <ele>274.11</ele>
        <time>2013-10-08T08:26:37Z</time>
      </trkpt>
      <trkpt lat="44.08432" lon="2.13367">
        <ele>276.52</ele>
        <time>2013-10-08T08:26:49Z</time>
      </trkpt>
      <trkpt lat="44.08433" lon="2.13368">
        <ele>276.52</ele>
        <time>2013-10-08T08:26:50Z</time>
      </trkpt>
      <trkpt lat="44.0844" lon="2.13388">
        <ele>277.96</ele>
        <time>2013-10-08T08:27:04Z</time>
      </trkpt>
      <trkpt lat="44.08446" lon="2.13405">
        <ele>277.48</ele>
        <time>2013-10-08T08:27:17Z</time>
      </trkpt>
      <trkpt lat="44.08447" lon="2.13408">
        <ele>277.48</ele>
        <time>2013-10-08T08:27:19Z</time>
      </trkpt>
      <trkpt lat="44.08451" lon="2.13414">
        <ele>277</ele>
        <time>2013-10-08T08:27:24Z</time>
      </trkpt>
      <trkpt lat="44.08452" lon="2.13416">
        <ele>277</ele>
        <time>2013-10-08T08:27:26Z</time>
      </trkpt>
      <trkpt lat="44.08459" lon="2.13438">
        <ele>277</ele>
        <time>2013-10-08T08:27:41Z</time>
      </trkpt>
      <trkpt lat="44.08462" lon="2.13444">
        <ele>277.48</ele>
        <time>2013-10-08T08:27:46Z</time>
      </trkpt>
      <trkpt lat="44.08464" lon="2.13468">
        <ele>277.96</ele>
        <time>2013-10-08T08:28:01Z</time>
      </trkpt>
      <trkpt lat="44.08464" lon="2.13491">
        <ele>281.32</ele>
        <time>2013-10-08T08:28:15Z</time>
      </trkpt>
      <trkpt lat="44.08465" lon="2.1351">
        <ele>280.36</ele>
        <time>2013-10-08T08:28:28Z</time>
      </trkpt>
      <trkpt lat="44.08464" lon="2.13513">
        <ele>279.88</ele>
        <time>2013-10-08T08:28:30Z</time>
      </trkpt>
      <trkpt lat="44.08463" lon="2.1352">
        <ele>279.4</ele>
        <time>2013-10-08T08:28:34Z</time>
      </trkpt>
      <trkpt lat="44.08464" lon="2.13528">
        <ele>279.88</ele>
        <time>2013-10-08T08:28:38Z</time>
      </trkpt>
      <trkpt lat="44.0846" lon="2.13555">
        <ele>277.96</ele>
        <time>2013-10-08T08:28:54Z</time>
      </trkpt>
      <trkpt lat="44.08458" lon="2.13575">
        <ele>277.96</ele>
        <time>2013-10-08T08:29:10Z</time>
      </trkpt>
      <trkpt lat="44.08457" lon="2.13594">
        <ele>277.48</ele>
        <time>2013-10-08T08:29:21Z</time>
      </trkpt>
      <trkpt lat="44.08458" lon="2.13603">
        <ele>277</ele>
        <time>2013-10-08T08:29:27Z</time>
      </trkpt>
      <trkpt lat="44.08467" lon="2.13622">
        <ele>274.59</ele>
        <time>2013-10-08T08:29:43Z</time>
      </trkpt>
      <trkpt lat="44.08469" lon="2.13626">
        <ele>274.59</ele>
        <time>2013-10-08T08:29:46Z</time>
      </trkpt>
      <trkpt lat="44.08471" lon="2.13652">
        <ele>272.19</ele>
        <time>2013-10-08T08:30:03Z</time>
      </trkpt>
      <trkpt lat="44.08471" lon="2.13656">
        <ele>272.19</ele>
        <time>2013-10-08T08:30:05Z</time>
      </trkpt>
      <trkpt lat="44.08469" lon="2.13663">
        <ele>271.71</ele>
        <time>2013-10-08T08:30:11Z</time>
      </trkpt>
      <trkpt lat="44.08467" lon="2.13669">
        <ele>271.23</ele>
        <time>2013-10-08T08:30:16Z</time>
      </trkpt>
      <trkpt lat="44.08464" lon="2.13679">
        <ele>270.75</ele>
        <time>2013-10-08T08:30:23Z</time>
      </trkpt>
      <trkpt lat="44.08458" lon="2.13701">
        <ele>273.15</ele>
        <time>2013-10-08T08:30:37Z</time>
      </trkpt>
      <trkpt lat="44.0846" lon="2.13719">
        <ele>272.19</ele>
        <time>2013-10-08T08:30:49Z</time>
      </trkpt>
      <trkpt lat="44.08466" lon="2.1374">
        <ele>275.56</ele>
        <time>2013-10-08T08:31:04Z</time>
      </trkpt>
      <trkpt lat="44.08466" lon="2.13747">
        <ele>277</ele>
        <time>2013-10-08T08:31:09Z</time>
      </trkpt>
      <trkpt lat="44.08467" lon="2.13752">
        <ele>277.48</ele>
        <time>2013-10-08T08:31:12Z</time>
      </trkpt>
      <trkpt lat="44.08468" lon="2.13759">
        <ele>277.96</ele>
        <time>2013-10-08T08:31:16Z</time>
      </trkpt>
      <trkpt lat="44.08468" lon="2.13762">
        <ele>278.44</ele>
        <time>2013-10-08T08:31:19Z</time>
      </trkpt>
      <trkpt lat="44.08468" lon="2.13785">
        <ele>276.04</ele>
        <time>2013-10-08T08:31:32Z</time>
      </trkpt>
      <trkpt lat="44.08468" lon="2.13794">
        <ele>274.11</ele>
        <time>2013-10-08T08:31:39Z</time>
      </trkpt>
      <trkpt lat="44.08468" lon="2.138">
        <ele>274.11</ele>
        <time>2013-10-08T08:31:42Z</time>
      </trkpt>
      <trkpt lat="44.08467" lon="2.13807">
        <ele>273.63</ele>
        <time>2013-10-08T08:31:48Z</time>
      </trkpt>
      <trkpt lat="44.08466" lon="2.13809">
        <ele>274.11</ele>
        <time>2013-10-08T08:31:50Z</time>
      </trkpt>
      <trkpt lat="44.08464" lon="2.13817">
        <ele>275.56</ele>
        <time>2013-10-08T08:31:55Z</time>
      </trkpt>
      <trkpt lat="44.08464" lon="2.13826">
        <ele>277</ele>
        <time>2013-10-08T08:32:01Z</time>
      </trkpt>
      <trkpt lat="44.08465" lon="2.13832">
        <ele>277.48</ele>
        <time>2013-10-08T08:32:04Z</time>
      </trkpt>
      <trkpt lat="44.08472" lon="2.13847">
        <ele>277.96</ele>
        <time>2013-10-08T08:32:15Z</time>
      </trkpt>
      <trkpt lat="44.08476" lon="2.13855">
        <ele>277.96</ele>
        <time>2013-10-08T08:32:30Z</time>
      </trkpt>
      <trkpt lat="44.08474" lon="2.13859">
        <ele>277</ele>
        <time>2013-10-08T08:32:44Z</time>
      </trkpt>
      <trkpt lat="44.08482" lon="2.13865">
        <ele>276.52</ele>
        <time>2013-10-08T08:32:58Z</time>
      </trkpt>
      <trkpt lat="44.08488" lon="2.13868">
        <ele>276.04</ele>
        <time>2013-10-08T08:33:04Z</time>
      </trkpt>
      <trkpt lat="44.08492" lon="2.13869">
        <ele>276.52</ele>
        <time>2013-10-08T08:33:07Z</time>
      </trkpt>
      <trkpt lat="44.08505" lon="2.13878">
        <ele>276.52</ele>
        <time>2013-10-08T08:33:21Z</time>
      </trkpt>
      <trkpt lat="44.08516" lon="2.13883">
        <ele>276.04</ele>
        <time>2013-10-08T08:33:33Z</time>
      </trkpt>
      <trkpt lat="44.08522" lon="2.13886">
        <ele>275.56</ele>
        <time>2013-10-08T08:33:38Z</time>
      </trkpt>
      <trkpt lat="44.08534" lon="2.13889">
        <ele>276.04</ele>
        <time>2013-10-08T08:33:49Z</time>
      </trkpt>
      <trkpt lat="44.0854" lon="2.13894">
        <ele>276.52</ele>
        <time>2013-10-08T08:33:55Z</time>
      </trkpt>
      <trkpt lat="44.08554" lon="2.13908">
        <ele>276.04</ele>
        <time>2013-10-08T08:34:09Z</time>
      </trkpt>
      <trkpt lat="44.08555" lon="2.13911">
        <ele>276.52</ele>
        <time>2013-10-08T08:34:11Z</time>
      </trkpt>
      <trkpt lat="44.08553" lon="2.13941">
        <ele>277.96</ele>
        <time>2013-10-08T08:34:26Z</time>
      </trkpt>
      <trkpt lat="44.08541" lon="2.13951">
        <ele>281.32</ele>
        <time>2013-10-08T08:34:38Z</time>
      </trkpt>
      <trkpt lat="44.08522" lon="2.13952">
        <ele>279.88</ele>
        <time>2013-10-08T08:34:53Z</time>
      </trkpt>
      <trkpt lat="44.08517" lon="2.13952">
        <ele>277.96</ele>
        <time>2013-10-08T08:34:59Z</time>
      </trkpt>
      <trkpt lat="44.08499" lon="2.1395">
        <ele>277.96</ele>
        <time>2013-10-08T08:35:15Z</time>
      </trkpt>
      <trkpt lat="44.08495" lon="2.13949">
        <ele>277.96</ele>
        <time>2013-10-08T08:35:19Z</time>
      </trkpt>
      <trkpt lat="44.08478" lon="2.13947">
        <ele>277.48</ele>
        <time>2013-10-08T08:35:34Z</time>
      </trkpt>
      <trkpt lat="44.08463" lon="2.13948">
        <ele>279.4</ele>
        <time>2013-10-08T08:35:46Z</time>
      </trkpt>
      <trkpt lat="44.08462" lon="2.13948">
        <ele>279.4</ele>
        <time>2013-10-08T08:35:47Z</time>
      </trkpt>
      <trkpt lat="44.08457" lon="2.13948">
        <ele>278.44</ele>
        <time>2013-10-08T08:35:52Z</time>
      </trkpt>
      <trkpt lat="44.08447" lon="2.1395">
        <ele>274.59</ele>
        <time>2013-10-08T08:36:02Z</time>
      </trkpt>
      <trkpt lat="44.08436" lon="2.13952">
        <ele>274.59</ele>
        <time>2013-10-08T08:36:12Z</time>
      </trkpt>
      <trkpt lat="44.08422" lon="2.1397">
        <ele>273.63</ele>
        <time>2013-10-08T08:36:29Z</time>
      </trkpt>
      <trkpt lat="44.08415" lon="2.13985">
        <ele>273.63</ele>
        <time>2013-10-08T08:36:41Z</time>
      </trkpt>
      <trkpt lat="44.08405" lon="2.14005">
        <ele>271.71</ele>
        <time>2013-10-08T08:36:55Z</time>
      </trkpt>
      <trkpt lat="44.08399" lon="2.14027">
        <ele>270.75</ele>
        <time>2013-10-08T08:37:09Z</time>
      </trkpt>
      <trkpt lat="44.08393" lon="2.14042">
        <ele>269.31</ele>
        <time>2013-10-08T08:37:21Z</time>
      </trkpt>
      <trkpt lat="44.0839" lon="2.14058">
        <ele>268.35</ele>
        <time>2013-10-08T08:37:31Z</time>
      </trkpt>
      <trkpt lat="44.08386" lon="2.14073">
        <ele>267.86</ele>
        <time>2013-10-08T08:37:42Z</time>
      </trkpt>
      <trkpt lat="44.08384" lon="2.14081">
        <ele>267.38</ele>
        <time>2013-10-08T08:37:47Z</time>
      </trkpt>
      <trkpt lat="44.08383" lon="2.1409">
        <ele>267.38</ele>
        <time>2013-10-08T08:37:53Z</time>
      </trkpt>
      <trkpt lat="44.0838" lon="2.14102">
        <ele>266.9</ele>
        <time>2013-10-08T08:38:01Z</time>
      </trkpt>
      <trkpt lat="44.0838" lon="2.14105">
        <ele>266.42</ele>
        <time>2013-10-08T08:38:03Z</time>
      </trkpt>
      <trkpt lat="44.08377" lon="2.14116">
        <ele>266.9</ele>
        <time>2013-10-08T08:38:10Z</time>
      </trkpt>
      <trkpt lat="44.08375" lon="2.14134">
        <ele>265.94</ele>
        <time>2013-10-08T08:38:22Z</time>
      </trkpt>
      <trkpt lat="44.08373" lon="2.14138">
        <ele>265.94</ele>
        <time>2013-10-08T08:38:25Z</time>
      </trkpt>
      <trkpt lat="44.08372" lon="2.1415">
        <ele>265.94</ele>
        <time>2013-10-08T08:38:32Z</time>
      </trkpt>
      <trkpt lat="44.08366" lon="2.1416">
        <ele>265.94</ele>
        <time>2013-10-08T08:38:39Z</time>
      </trkpt>
      <trkpt lat="44.08361" lon="2.14159">
        <ele>266.42</ele>
        <time>2013-10-08T08:38:43Z</time>
      </trkpt>
      <trkpt lat="44.08355" lon="2.14158">
        <ele>266.9</ele>
        <time>2013-10-08T08:38:52Z</time>
      </trkpt>
      <trkpt lat="44.08354" lon="2.1416">
        <ele>266.9</ele>
        <time>2013-10-08T08:38:54Z</time>
      </trkpt>
      <trkpt lat="44.08349" lon="2.14175">
        <ele>268.35</ele>
        <time>2013-10-08T08:39:05Z</time>
      </trkpt>
      <trkpt lat="44.08346" lon="2.14177">
        <ele>267.86</ele>
        <time>2013-10-08T08:39:08Z</time>
      </trkpt>
      <trkpt lat="44.08344" lon="2.14181">
        <ele>267.86</ele>
        <time>2013-10-08T08:39:11Z</time>
      </trkpt>
      <trkpt lat="44.08341" lon="2.14184">
        <ele>265.94</ele>
        <time>2013-10-08T08:39:18Z</time>
      </trkpt>
      <trkpt lat="44.08339" lon="2.14187">
        <ele>265.46</ele>
        <time>2013-10-08T08:39:20Z</time>
      </trkpt>
      <trkpt lat="44.08336" lon="2.14199">
        <ele>264.5</ele>
        <time>2013-10-08T08:39:29Z</time>
      </trkpt>
      <trkpt lat="44.08337" lon="2.14205">
        <ele>264.02</ele>
        <time>2013-10-08T08:39:32Z</time>
      </trkpt>
      <trkpt lat="44.08332" lon="2.14216">
        <ele>263.54</ele>
        <time>2013-10-08T08:39:40Z</time>
      </trkpt>
      <trkpt lat="44.08329" lon="2.14225">
        <ele>264.5</ele>
        <time>2013-10-08T08:39:46Z</time>
      </trkpt>
      <trkpt lat="44.08323" lon="2.14239">
        <ele>264.5</ele>
        <time>2013-10-08T08:39:56Z</time>
      </trkpt>
      <trkpt lat="44.08321" lon="2.14257">
        <ele>264.98</ele>
        <time>2013-10-08T08:40:09Z</time>
      </trkpt>
      <trkpt lat="44.08322" lon="2.14262">
        <ele>264.5</ele>
        <time>2013-10-08T08:40:13Z</time>
      </trkpt>
      <trkpt lat="44.08323" lon="2.14273">
        <ele>265.46</ele>
        <time>2013-10-08T08:40:21Z</time>
      </trkpt>
      <trkpt lat="44.08324" lon="2.14277">
        <ele>265.94</ele>
        <time>2013-10-08T08:40:24Z</time>
      </trkpt>
      <trkpt lat="44.08332" lon="2.14295">
        <ele>266.42</ele>
        <time>2013-10-08T08:40:37Z</time>
      </trkpt>
      <trkpt lat="44.08332" lon="2.14297">
        <ele>266.42</ele>
        <time>2013-10-08T08:40:38Z</time>
      </trkpt>
      <trkpt lat="44.08331" lon="2.14319">
        <ele>266.9</ele>
        <time>2013-10-08T08:40:51Z</time>
      </trkpt>
      <trkpt lat="44.08322" lon="2.14331">
        <ele>267.38</ele>
        <time>2013-10-08T08:41:04Z</time>
      </trkpt>
      <trkpt lat="44.08318" lon="2.14335">
        <ele>266.42</ele>
        <time>2013-10-08T08:41:09Z</time>
      </trkpt>
      <trkpt lat="44.08314" lon="2.1435">
        <ele>268.83</ele>
        <time>2013-10-08T08:41:25Z</time>
      </trkpt>
      <trkpt lat="44.08308" lon="2.14367">
        <ele>268.35</ele>
        <time>2013-10-08T08:41:38Z</time>
      </trkpt>
      <trkpt lat="44.08307" lon="2.14381">
        <ele>268.35</ele>
        <time>2013-10-08T08:41:53Z</time>
      </trkpt>
      <trkpt lat="44.08307" lon="2.14384">
        <ele>268.35</ele>
        <time>2013-10-08T08:41:55Z</time>
      </trkpt>
      <trkpt lat="44.08309" lon="2.14396">
        <ele>267.86</ele>
        <time>2013-10-08T08:42:03Z</time>
      </trkpt>
      <trkpt lat="44.08307" lon="2.14409">
        <ele>267.86</ele>
        <time>2013-10-08T08:42:12Z</time>
      </trkpt>
      <trkpt lat="44.08306" lon="2.14416">
        <ele>266.42</ele>
        <time>2013-10-08T08:42:17Z</time>
      </trkpt>
      <trkpt lat="44.08307" lon="2.14431">
        <ele>265.94</ele>
        <time>2013-10-08T08:42:30Z</time>
      </trkpt>
      <trkpt lat="44.08306" lon="2.14438">
        <ele>266.42</ele>
        <time>2013-10-08T08:42:45Z</time>
      </trkpt>
      <trkpt lat="44.08308" lon="2.14435">
        <ele>270.27</ele>
        <time>2013-10-08T08:42:57Z</time>
      </trkpt>
      <trkpt lat="44.08309" lon="2.14435">
        <ele>270.75</ele>
        <time>2013-10-08T08:43:00Z</time>
      </trkpt>
      <trkpt lat="44.08312" lon="2.14444">
        <ele>272.67</ele>
        <time>2013-10-08T08:43:06Z</time>
      </trkpt>
      <trkpt lat="44.08313" lon="2.14449">
        <ele>273.15</ele>
        <time>2013-10-08T08:43:11Z</time>
      </trkpt>
      <trkpt lat="44.08315" lon="2.14461">
        <ele>273.63</ele>
        <time>2013-10-08T08:43:20Z</time>
      </trkpt>
      <trkpt lat="44.08314" lon="2.14466">
        <ele>274.11</ele>
        <time>2013-10-08T08:43:23Z</time>
      </trkpt>
      <trkpt lat="44.08314" lon="2.14469">
        <ele>274.11</ele>
        <time>2013-10-08T08:43:25Z</time>
      </trkpt>
      <trkpt lat="44.08315" lon="2.14476">
        <ele>274.11</ele>
        <time>2013-10-08T08:43:29Z</time>
      </trkpt>
      <trkpt lat="44.08316" lon="2.14496">
        <ele>274.11</ele>
        <time>2013-10-08T08:43:43Z</time>
      </trkpt>
      <trkpt lat="44.08314" lon="2.14506">
        <ele>274.11</ele>
        <time>2013-10-08T08:43:50Z</time>
      </trkpt>
      <trkpt lat="44.08312" lon="2.14523">
        <ele>272.19</ele>
        <time>2013-10-08T08:44:00Z</time>
      </trkpt>
      <trkpt lat="44.08306" lon="2.14541">
        <ele>270.27</ele>
        <time>2013-10-08T08:44:13Z</time>
      </trkpt>
      <trkpt lat="44.08304" lon="2.14561">
        <ele>269.31</ele>
        <time>2013-10-08T08:44:23Z</time>
      </trkpt>
      <trkpt lat="44.083" lon="2.14579">
        <ele>267.86</ele>
        <time>2013-10-08T08:44:35Z</time>
      </trkpt>
      <trkpt lat="44.08294" lon="2.14595">
        <ele>268.35</ele>
        <time>2013-10-08T08:44:46Z</time>
      </trkpt>
      <trkpt lat="44.08291" lon="2.14605">
        <ele>267.86</ele>
        <time>2013-10-08T08:44:53Z</time>
      </trkpt>
      <trkpt lat="44.08287" lon="2.14618">
        <ele>268.35</ele>
        <time>2013-10-08T08:45:02Z</time>
      </trkpt>
      <trkpt lat="44.08278" lon="2.14636">
        <ele>271.23</ele>
        <time>2013-10-08T08:45:14Z</time>
      </trkpt>
      <trkpt lat="44.0827" lon="2.14657">
        <ele>271.71</ele>
        <time>2013-10-08T08:45:29Z</time>
      </trkpt>
      <trkpt lat="44.08263" lon="2.14675">
        <ele>272.67</ele>
        <time>2013-10-08T08:45:42Z</time>
      </trkpt>
      <trkpt lat="44.08259" lon="2.14683">
        <ele>272.67</ele>
        <time>2013-10-08T08:45:48Z</time>
      </trkpt>
      <trkpt lat="44.08253" lon="2.14698">
        <ele>272.67</ele>
        <time>2013-10-08T08:45:59Z</time>
      </trkpt>
      <trkpt lat="44.08253" lon="2.14702">
        <ele>272.67</ele>
        <time>2013-10-08T08:46:02Z</time>
      </trkpt>
      <trkpt lat="44.08249" lon="2.14712">
        <ele>272.67</ele>
        <time>2013-10-08T08:46:08Z</time>
      </trkpt>
      <trkpt lat="44.08245" lon="2.14733">
        <ele>272.19</ele>
        <time>2013-10-08T08:46:21Z</time>
      </trkpt>
      <trkpt lat="44.08243" lon="2.14737">
        <ele>272.19</ele>
        <time>2013-10-08T08:46:24Z</time>
      </trkpt>
      <trkpt lat="44.08249" lon="2.14755">
        <ele>273.63</ele>
        <time>2013-10-08T08:46:37Z</time>
      </trkpt>
      <trkpt lat="44.08252" lon="2.14763">
        <ele>274.59</ele>
        <time>2013-10-08T08:46:45Z</time>
      </trkpt>
      <trkpt lat="44.08255" lon="2.14768">
        <ele>275.56</ele>
        <time>2013-10-08T08:46:50Z</time>
      </trkpt>
      <trkpt lat="44.08267" lon="2.14769">
        <ele>277.96</ele>
        <time>2013-10-08T08:47:03Z</time>
      </trkpt>
      <trkpt lat="44.08277" lon="2.14769">
        <ele>280.36</ele>
        <time>2013-10-08T08:47:13Z</time>
      </trkpt>
      <trkpt lat="44.08292" lon="2.14772">
        <ele>282.77</ele>
        <time>2013-10-08T08:47:27Z</time>
      </trkpt>
      <trkpt lat="44.08305" lon="2.14777">
        <ele>282.28</ele>
        <time>2013-10-08T08:47:40Z</time>
      </trkpt>
      <trkpt lat="44.0831" lon="2.14779">
        <ele>281.8</ele>
        <time>2013-10-08T08:47:43Z</time>
      </trkpt>
      <trkpt lat="44.08323" lon="2.1479">
        <ele>282.28</ele>
        <time>2013-10-08T08:47:57Z</time>
      </trkpt>
      <trkpt lat="44.08326" lon="2.14791">
        <ele>283.25</ele>
        <time>2013-10-08T08:48:02Z</time>
      </trkpt>
      <trkpt lat="44.08331" lon="2.14793">
        <ele>283.25</ele>
        <time>2013-10-08T08:48:06Z</time>
      </trkpt>
      <trkpt lat="44.08346" lon="2.14799">
        <ele>284.21</ele>
        <time>2013-10-08T08:48:20Z</time>
      </trkpt>
      <trkpt lat="44.0836" lon="2.14799">
        <ele>283.25</ele>
        <time>2013-10-08T08:48:32Z</time>
      </trkpt>
      <trkpt lat="44.08364" lon="2.14799">
        <ele>283.25</ele>
        <time>2013-10-08T08:48:36Z</time>
      </trkpt>
      <trkpt lat="44.08384" lon="2.14801">
        <ele>283.73</ele>
        <time>2013-10-08T08:48:53Z</time>
      </trkpt>
      <trkpt lat="44.08401" lon="2.14814">
        <ele>285.65</ele>
        <time>2013-10-08T08:49:08Z</time>
      </trkpt>
      <trkpt lat="44.08406" lon="2.14816">
        <ele>286.61</ele>
        <time>2013-10-08T08:49:11Z</time>
      </trkpt>
      <trkpt lat="44.08409" lon="2.14825">
        <ele>287.09</ele>
        <time>2013-10-08T08:49:16Z</time>
      </trkpt>
      <trkpt lat="44.08409" lon="2.14841">
        <ele>288.53</ele>
        <time>2013-10-08T08:49:24Z</time>
      </trkpt>
      <trkpt lat="44.08408" lon="2.14843">
        <ele>288.53</ele>
        <time>2013-10-08T08:49:26Z</time>
      </trkpt>
      <trkpt lat="44.08397" lon="2.14862">
        <ele>288.53</ele>
        <time>2013-10-08T08:49:37Z</time>
      </trkpt>
      <trkpt lat="44.0839" lon="2.14865">
        <ele>288.05</ele>
        <time>2013-10-08T08:49:43Z</time>
      </trkpt>
      <trkpt lat="44.08386" lon="2.14865">
        <ele>288.05</ele>
        <time>2013-10-08T08:49:46Z</time>
      </trkpt>
      <trkpt lat="44.08382" lon="2.14866">
        <ele>287.57</ele>
        <time>2013-10-08T08:49:49Z</time>
      </trkpt>
      <trkpt lat="44.08367" lon="2.14871">
        <ele>287.57</ele>
        <time>2013-10-08T08:50:03Z</time>
      </trkpt>
      <trkpt lat="44.08354" lon="2.14876">
        <ele>288.05</ele>
        <time>2013-10-08T08:50:15Z</time>
      </trkpt>
      <trkpt lat="44.08341" lon="2.14885">
        <ele>288.53</ele>
        <time>2013-10-08T08:50:29Z</time>
      </trkpt>
      <trkpt lat="44.08331" lon="2.1489">
        <ele>289.49</ele>
        <time>2013-10-08T08:50:39Z</time>
      </trkpt>
      <trkpt lat="44.08317" lon="2.14896">
        <ele>289.49</ele>
        <time>2013-10-08T08:50:53Z</time>
      </trkpt>
      <trkpt lat="44.08312" lon="2.14897">
        <ele>288.53</ele>
        <time>2013-10-08T08:50:58Z</time>
      </trkpt>
      <trkpt lat="44.08304" lon="2.149">
        <ele>287.57</ele>
        <time>2013-10-08T08:51:06Z</time>
      </trkpt>
      <trkpt lat="44.08288" lon="2.14906">
        <ele>285.65</ele>
        <time>2013-10-08T08:51:21Z</time>
      </trkpt>
      <trkpt lat="44.08274" lon="2.14905">
        <ele>285.65</ele>
        <time>2013-10-08T08:51:34Z</time>
      </trkpt>
      <trkpt lat="44.08257" lon="2.14904">
        <ele>285.17</ele>
        <time>2013-10-08T08:51:49Z</time>
      </trkpt>
      <trkpt lat="44.08242" lon="2.14903">
        <ele>283.73</ele>
        <time>2013-10-08T08:52:02Z</time>
      </trkpt>
      <trkpt lat="44.08231" lon="2.14911">
        <ele>280.36</ele>
        <time>2013-10-08T08:52:14Z</time>
      </trkpt>
      <trkpt lat="44.0823" lon="2.1492">
        <ele>278.44</ele>
        <time>2013-10-08T08:52:20Z</time>
      </trkpt>
      <trkpt lat="44.0823" lon="2.14932">
        <ele>276.04</ele>
        <time>2013-10-08T08:52:28Z</time>
      </trkpt>
      <trkpt lat="44.08233" lon="2.1494">
        <ele>275.07</ele>
        <time>2013-10-08T08:52:34Z</time>
      </trkpt>
      <trkpt lat="44.08233" lon="2.14945">
        <ele>273.63</ele>
        <time>2013-10-08T08:52:38Z</time>
      </trkpt>
      <trkpt lat="44.08229" lon="2.14942">
        <ele>273.63</ele>
        <time>2013-10-08T08:52:54Z</time>
      </trkpt>
      <trkpt lat="44.08231" lon="2.14944">
        <ele>273.15</ele>
        <time>2013-10-08T08:53:02Z</time>
      </trkpt>
      <trkpt lat="44.08237" lon="2.1497">
        <ele>271.71</ele>
        <time>2013-10-08T08:53:17Z</time>
      </trkpt>
      <trkpt lat="44.08232" lon="2.14995">
        <ele>270.27</ele>
        <time>2013-10-08T08:53:30Z</time>
      </trkpt>
      <trkpt lat="44.0823" lon="2.15019">
        <ele>268.83</ele>
        <time>2013-10-08T08:53:47Z</time>
      </trkpt>
      <trkpt lat="44.08227" lon="2.15023">
        <ele>268.83</ele>
        <time>2013-10-08T08:54:14Z</time>
      </trkpt>
      <trkpt lat="44.08226" lon="2.15021">
        <ele>269.31</ele>
        <time>2013-10-08T08:54:34Z</time>
      </trkpt>
      <trkpt lat="44.08225" lon="2.15022">
        <ele>270.27</ele>
        <time>2013-10-08T08:54:51Z</time>
      </trkpt>
      <trkpt lat="44.08224" lon="2.15036">
        <ele>269.79</ele>
        <time>2013-10-08T08:55:05Z</time>
      </trkpt>
      <trkpt lat="44.08222" lon="2.15048">
        <ele>269.79</ele>
        <time>2013-10-08T08:55:14Z</time>
      </trkpt>
      <trkpt lat="44.08215" lon="2.15066">
        <ele>267.86</ele>
        <time>2013-10-08T08:55:30Z</time>
      </trkpt>
      <trkpt lat="44.08213" lon="2.1507">
        <ele>266.42</ele>
        <time>2013-10-08T08:55:33Z</time>
      </trkpt>
      <trkpt lat="44.08209" lon="2.15077">
        <ele>264.98</ele>
        <time>2013-10-08T08:55:39Z</time>
      </trkpt>
      <trkpt lat="44.08208" lon="2.1508">
        <ele>264.5</ele>
        <time>2013-10-08T08:55:41Z</time>
      </trkpt>
      <trkpt lat="44.08202" lon="2.15097">
        <ele>261.14</ele>
        <time>2013-10-08T08:55:55Z</time>
      </trkpt>
      <trkpt lat="44.08195" lon="2.15116">
        <ele>258.73</ele>
        <time>2013-10-08T08:56:10Z</time>
      </trkpt>
      <trkpt lat="44.08195" lon="2.15118">
        <ele>259.69</ele>
        <time>2013-10-08T08:56:11Z</time>
      </trkpt>
      <trkpt lat="44.08193" lon="2.15128">
        <ele>260.65</ele>
        <time>2013-10-08T08:56:18Z</time>
      </trkpt>
      <trkpt lat="44.08194" lon="2.15132">
        <ele>260.65</ele>
        <time>2013-10-08T08:56:21Z</time>
      </trkpt>
      <trkpt lat="44.08195" lon="2.15144">
        <ele>263.06</ele>
        <time>2013-10-08T08:56:30Z</time>
      </trkpt>
      <trkpt lat="44.08195" lon="2.15153">
        <ele>264.5</ele>
        <time>2013-10-08T08:56:36Z</time>
      </trkpt>
      <trkpt lat="44.08197" lon="2.15161">
        <ele>265.46</ele>
        <time>2013-10-08T08:56:41Z</time>
      </trkpt>
      <trkpt lat="44.08199" lon="2.15171">
        <ele>267.38</ele>
        <time>2013-10-08T08:56:47Z</time>
      </trkpt>
      <trkpt lat="44.08203" lon="2.15196">
        <ele>269.79</ele>
        <time>2013-10-08T08:57:04Z</time>
      </trkpt>
      <trkpt lat="44.08209" lon="2.15222">
        <ele>272.19</ele>
        <time>2013-10-08T08:57:20Z</time>
      </trkpt>
      <trkpt lat="44.08211" lon="2.15235">
        <ele>272.67</ele>
        <time>2013-10-08T08:57:28Z</time>
      </trkpt>
      <trkpt lat="44.0821" lon="2.15247">
        <ele>272.19</ele>
        <time>2013-10-08T08:57:35Z</time>
      </trkpt>
      <trkpt lat="44.08205" lon="2.15271">
        <ele>270.75</ele>
        <time>2013-10-08T08:57:48Z</time>
      </trkpt>
      <trkpt lat="44.08202" lon="2.1528">
        <ele>271.23</ele>
        <time>2013-10-08T08:57:54Z</time>
      </trkpt>
      <trkpt lat="44.08201" lon="2.15293">
        <ele>271.23</ele>
        <time>2013-10-08T08:58:01Z</time>
      </trkpt>
      <trkpt lat="44.08199" lon="2.15298">
        <ele>271.23</ele>
        <time>2013-10-08T08:58:05Z</time>
      </trkpt>
      <trkpt lat="44.08195" lon="2.15326">
        <ele>269.79</ele>
        <time>2013-10-08T08:58:21Z</time>
      </trkpt>
      <trkpt lat="44.08195" lon="2.15327">
        <ele>269.79</ele>
        <time>2013-10-08T08:58:22Z</time>
      </trkpt>
      <trkpt lat="44.08195" lon="2.15337">
        <ele>269.79</ele>
        <time>2013-10-08T08:58:28Z</time>
      </trkpt>
      <trkpt lat="44.08195" lon="2.15344">
        <ele>269.79</ele>
        <time>2013-10-08T08:58:32Z</time>
      </trkpt>
      <trkpt lat="44.08191" lon="2.15368">
        <ele>269.79</ele>
        <time>2013-10-08T08:58:47Z</time>
      </trkpt>
      <trkpt lat="44.08186" lon="2.15392">
        <ele>269.31</ele>
        <time>2013-10-08T08:59:01Z</time>
      </trkpt>
      <trkpt lat="44.08183" lon="2.15402">
        <ele>268.83</ele>
        <time>2013-10-08T08:59:07Z</time>
      </trkpt>
      <trkpt lat="44.0818" lon="2.15415">
        <ele>269.31</ele>
        <time>2013-10-08T08:59:14Z</time>
      </trkpt>
      <trkpt lat="44.0818" lon="2.15419">
        <ele>269.79</ele>
        <time>2013-10-08T08:59:17Z</time>
      </trkpt>
      <trkpt lat="44.08178" lon="2.15427">
        <ele>269.79</ele>
        <time>2013-10-08T08:59:22Z</time>
      </trkpt>
      <trkpt lat="44.08173" lon="2.15455">
        <ele>268.83</ele>
        <time>2013-10-08T08:59:38Z</time>
      </trkpt>
      <trkpt lat="44.08173" lon="2.1546">
        <ele>268.83</ele>
        <time>2013-10-08T08:59:41Z</time>
      </trkpt>
      <trkpt lat="44.08165" lon="2.15482">
        <ele>269.31</ele>
        <time>2013-10-08T08:59:55Z</time>
      </trkpt>
      <trkpt lat="44.08161" lon="2.15501">
        <ele>269.31</ele>
        <time>2013-10-08T09:00:06Z</time>
      </trkpt>
      <trkpt lat="44.08159" lon="2.15515">
        <ele>269.79</ele>
        <time>2013-10-08T09:00:14Z</time>
      </trkpt>
      <trkpt lat="44.08157" lon="2.15525">
        <ele>269.79</ele>
        <time>2013-10-08T09:00:20Z</time>
      </trkpt>
      <trkpt lat="44.08158" lon="2.15534">
        <ele>269.79</ele>
        <time>2013-10-08T09:00:26Z</time>
      </trkpt>
      <trkpt lat="44.08158" lon="2.15544">
        <ele>268.35</ele>
        <time>2013-10-08T09:00:32Z</time>
      </trkpt>
      <trkpt lat="44.08159" lon="2.15573">
        <ele>266.9</ele>
        <time>2013-10-08T09:00:49Z</time>
      </trkpt>
      <trkpt lat="44.08158" lon="2.15575">
        <ele>266.9</ele>
        <time>2013-10-08T09:00:50Z</time>
      </trkpt>
      <trkpt lat="44.08159" lon="2.15582">
        <ele>266.42</ele>
        <time>2013-10-08T09:00:54Z</time>
      </trkpt>
      <trkpt lat="44.08161" lon="2.15608">
        <ele>268.83</ele>
        <time>2013-10-08T09:01:10Z</time>
      </trkpt>
      <trkpt lat="44.08165" lon="2.15628">
        <ele>270.75</ele>
        <time>2013-10-08T09:01:24Z</time>
      </trkpt>
      <trkpt lat="44.08169" lon="2.15651">
        <ele>270.75</ele>
        <time>2013-10-08T09:01:37Z</time>
      </trkpt>
      <trkpt lat="44.08176" lon="2.15676">
        <ele>272.19</ele>
        <time>2013-10-08T09:01:54Z</time>
      </trkpt>
      <trkpt lat="44.08176" lon="2.15678">
        <ele>272.67</ele>
        <time>2013-10-08T09:01:55Z</time>
      </trkpt>
      <trkpt lat="44.08177" lon="2.15682">
        <ele>272.67</ele>
        <time>2013-10-08T09:01:58Z</time>
      </trkpt>
      <trkpt lat="44.08181" lon="2.15699">
        <ele>273.15</ele>
        <time>2013-10-08T09:02:08Z</time>
      </trkpt>
      <trkpt lat="44.08181" lon="2.15709">
        <ele>273.15</ele>
        <time>2013-10-08T09:02:14Z</time>
      </trkpt>
      <trkpt lat="44.08188" lon="2.15726">
        <ele>274.59</ele>
        <time>2013-10-08T09:02:28Z</time>
      </trkpt>
      <trkpt lat="44.08189" lon="2.15738">
        <ele>274.59</ele>
        <time>2013-10-08T09:02:43Z</time>
      </trkpt>
      <trkpt lat="44.0819" lon="2.15741">
        <ele>273.63</ele>
        <time>2013-10-08T09:03:07Z</time>
      </trkpt>
      <trkpt lat="44.0819" lon="2.15743">
        <ele>274.11</ele>
        <time>2013-10-08T09:03:26Z</time>
      </trkpt>
      <trkpt lat="44.08192" lon="2.15745">
        <ele>274.59</ele>
        <time>2013-10-08T09:03:31Z</time>
      </trkpt>
      <trkpt lat="44.08205" lon="2.15755">
        <ele>276.04</ele>
        <time>2013-10-08T09:03:46Z</time>
      </trkpt>
      <trkpt lat="44.08219" lon="2.15762">
        <ele>276.52</ele>
        <time>2013-10-08T09:04:01Z</time>
      </trkpt>
      <trkpt lat="44.08224" lon="2.15766">
        <ele>276.04</ele>
        <time>2013-10-08T09:04:06Z</time>
      </trkpt>
      <trkpt lat="44.08228" lon="2.15773">
        <ele>276.52</ele>
        <time>2013-10-08T09:04:12Z</time>
      </trkpt>
      <trkpt lat="44.08237" lon="2.15779">
        <ele>276.04</ele>
        <time>2013-10-08T09:04:19Z</time>
      </trkpt>
      <trkpt lat="44.08243" lon="2.15803">
        <ele>272.67</ele>
        <time>2013-10-08T09:04:33Z</time>
      </trkpt>
      <trkpt lat="44.08241" lon="2.15812">
        <ele>272.19</ele>
        <time>2013-10-08T09:04:38Z</time>
      </trkpt>
      <trkpt lat="44.0824" lon="2.15815">
        <ele>272.19</ele>
        <time>2013-10-08T09:04:40Z</time>
      </trkpt>
      <trkpt lat="44.08226" lon="2.15833">
        <ele>273.15</ele>
        <time>2013-10-08T09:04:54Z</time>
      </trkpt>
      <trkpt lat="44.08214" lon="2.1583">
        <ele>273.63</ele>
        <time>2013-10-08T09:05:07Z</time>
      </trkpt>
      <trkpt lat="44.08213" lon="2.15829">
        <ele>273.63</ele>
        <time>2013-10-08T09:05:08Z</time>
      </trkpt>
      <trkpt lat="44.08212" lon="2.15827">
        <ele>273.63</ele>
        <time>2013-10-08T09:05:10Z</time>
      </trkpt>
      <trkpt lat="44.08197" lon="2.15825">
        <ele>273.15</ele>
        <time>2013-10-08T09:05:25Z</time>
      </trkpt>
      <trkpt lat="44.0819" lon="2.15829">
        <ele>272.67</ele>
        <time>2013-10-08T09:05:30Z</time>
      </trkpt>
      <trkpt lat="44.08188" lon="2.15838">
        <ele>272.67</ele>
        <time>2013-10-08T09:05:37Z</time>
      </trkpt>
      <trkpt lat="44.08192" lon="2.15847">
        <ele>271.23</ele>
        <time>2013-10-08T09:05:45Z</time>
      </trkpt>
      <trkpt lat="44.08192" lon="2.15851">
        <ele>270.27</ele>
        <time>2013-10-08T09:05:48Z</time>
      </trkpt>
      <trkpt lat="44.08193" lon="2.15853">
        <ele>270.27</ele>
        <time>2013-10-08T09:05:50Z</time>
      </trkpt>
      <trkpt lat="44.08194" lon="2.15855">
        <ele>270.27</ele>
        <time>2013-10-08T09:05:52Z</time>
      </trkpt>
      <trkpt lat="44.08199" lon="2.15875">
        <ele>270.75</ele>
        <time>2013-10-08T09:06:06Z</time>
      </trkpt>
      <trkpt lat="44.08198" lon="2.15893">
        <ele>269.31</ele>
        <time>2013-10-08T09:06:17Z</time>
      </trkpt>
      <trkpt lat="44.08197" lon="2.15916">
        <ele>267.38</ele>
        <time>2013-10-08T09:06:31Z</time>
      </trkpt>
      <trkpt lat="44.08199" lon="2.15929">
        <ele>266.9</ele>
        <time>2013-10-08T09:06:41Z</time>
      </trkpt>
      <trkpt lat="44.08199" lon="2.1595">
        <ele>266.42</ele>
        <time>2013-10-08T09:06:54Z</time>
      </trkpt>
      <trkpt lat="44.08201" lon="2.15976">
        <ele>266.9</ele>
        <time>2013-10-08T09:07:11Z</time>
      </trkpt>
      <trkpt lat="44.082" lon="2.15986">
        <ele>266.9</ele>
        <time>2013-10-08T09:07:19Z</time>
      </trkpt>
      <trkpt lat="44.08196" lon="2.1601">
        <ele>266.9</ele>
        <time>2013-10-08T09:07:34Z</time>
      </trkpt>
      <trkpt lat="44.08193" lon="2.16026">
        <ele>267.86</ele>
        <time>2013-10-08T09:07:45Z</time>
      </trkpt>
      <trkpt lat="44.08194" lon="2.16027">
        <ele>267.86</ele>
        <time>2013-10-08T09:07:46Z</time>
      </trkpt>
      <trkpt lat="44.08191" lon="2.16036">
        <ele>267.86</ele>
        <time>2013-10-08T09:07:52Z</time>
      </trkpt>
      <trkpt lat="44.08186" lon="2.16059">
        <ele>268.83</ele>
        <time>2013-10-08T09:08:06Z</time>
      </trkpt>
      <trkpt lat="44.08184" lon="2.16068">
        <ele>269.31</ele>
        <time>2013-10-08T09:08:12Z</time>
      </trkpt>
      <trkpt lat="44.0818" lon="2.16081">
        <ele>268.83</ele>
        <time>2013-10-08T09:08:22Z</time>
      </trkpt>
      <trkpt lat="44.0818" lon="2.16087">
        <ele>268.83</ele>
        <time>2013-10-08T09:08:31Z</time>
      </trkpt>
      <trkpt lat="44.08179" lon="2.16091">
        <ele>268.83</ele>
        <time>2013-10-08T09:08:34Z</time>
      </trkpt>
      <trkpt lat="44.08175" lon="2.16113">
        <ele>267.38</ele>
        <time>2013-10-08T09:08:50Z</time>
      </trkpt>
      <trkpt lat="44.08168" lon="2.16129">
        <ele>266.9</ele>
        <time>2013-10-08T09:09:05Z</time>
      </trkpt>
      <trkpt lat="44.08166" lon="2.16127">
        <ele>266.42</ele>
        <time>2013-10-08T09:09:10Z</time>
      </trkpt>
      <trkpt lat="44.08162" lon="2.16127">
        <ele>266.42</ele>
        <time>2013-10-08T09:09:15Z</time>
      </trkpt>
      <trkpt lat="44.08154" lon="2.16127">
        <ele>265.94</ele>
        <time>2013-10-08T09:09:22Z</time>
      </trkpt>
      <trkpt lat="44.08141" lon="2.16127">
        <ele>264.5</ele>
        <time>2013-10-08T09:09:34Z</time>
      </trkpt>
      <trkpt lat="44.08129" lon="2.16129">
        <ele>263.54</ele>
        <time>2013-10-08T09:09:45Z</time>
      </trkpt>
      <trkpt lat="44.08119" lon="2.16129">
        <ele>263.06</ele>
        <time>2013-10-08T09:09:53Z</time>
      </trkpt>
      <trkpt lat="44.08116" lon="2.1613">
        <ele>263.06</ele>
        <time>2013-10-08T09:09:56Z</time>
      </trkpt>
      <trkpt lat="44.08111" lon="2.16128">
        <ele>262.1</ele>
        <time>2013-10-08T09:10:01Z</time>
      </trkpt>
      <trkpt lat="44.08095" lon="2.1613">
        <ele>263.06</ele>
        <time>2013-10-08T09:10:15Z</time>
      </trkpt>
      <trkpt lat="44.0808" lon="2.16133">
        <ele>263.54</ele>
        <time>2013-10-08T09:10:31Z</time>
      </trkpt>
      <trkpt lat="44.08079" lon="2.16132">
        <ele>264.02</ele>
        <time>2013-10-08T09:10:33Z</time>
      </trkpt>
      <trkpt lat="44.08077" lon="2.16133">
        <ele>264.02</ele>
        <time>2013-10-08T09:10:36Z</time>
      </trkpt>
      <trkpt lat="44.08073" lon="2.16132">
        <ele>264.5</ele>
        <time>2013-10-08T09:10:42Z</time>
      </trkpt>
      <trkpt lat="44.08071" lon="2.16132">
        <ele>264.5</ele>
        <time>2013-10-08T09:10:57Z</time>
      </trkpt>
      <trkpt lat="44.08071" lon="2.16132">
        <ele>265.46</ele>
        <time>2013-10-08T09:11:16Z</time>
      </trkpt>
      <trkpt lat="44.08071" lon="2.16132">
        <ele>265.46</ele>
        <time>2013-10-08T09:11:35Z</time>
      </trkpt>
      <trkpt lat="44.08071" lon="2.16132">
        <ele>264.98</ele>
        <time>2013-10-08T09:11:54Z</time>
      </trkpt>
      <trkpt lat="44.0807" lon="2.16132">
        <ele>264.98</ele>
        <time>2013-10-08T09:12:08Z</time>
      </trkpt>
      <trkpt lat="44.0806" lon="2.16127">
        <ele>264.02</ele>
        <time>2013-10-08T09:12:22Z</time>
      </trkpt>
      <trkpt lat="44.08058" lon="2.16123">
        <ele>263.54</ele>
        <time>2013-10-08T09:12:26Z</time>
      </trkpt>
      <trkpt lat="44.08054" lon="2.16119">
        <ele>263.54</ele>
        <time>2013-10-08T09:12:31Z</time>
      </trkpt>
      <trkpt lat="44.08046" lon="2.16099">
        <ele>265.46</ele>
        <time>2013-10-08T09:12:46Z</time>
      </trkpt>
      <trkpt lat="44.08044" lon="2.16095">
        <ele>265.46</ele>
        <time>2013-10-08T09:12:50Z</time>
      </trkpt>
      <trkpt lat="44.08043" lon="2.16091">
        <ele>265.94</ele>
        <time>2013-10-08T09:12:53Z</time>
      </trkpt>
      <trkpt lat="44.08039" lon="2.16081">
        <ele>265.94</ele>
        <time>2013-10-08T09:13:01Z</time>
      </trkpt>
      <trkpt lat="44.0803" lon="2.16061">
        <ele>266.42</ele>
        <time>2013-10-08T09:13:16Z</time>
      </trkpt>
      <trkpt lat="44.08025" lon="2.16052">
        <ele>266.42</ele>
        <time>2013-10-08T09:13:24Z</time>
      </trkpt>
      <trkpt lat="44.0802" lon="2.16037">
        <ele>265.94</ele>
        <time>2013-10-08T09:13:34Z</time>
      </trkpt>
      <trkpt lat="44.08016" lon="2.16028">
        <ele>265.94</ele>
        <time>2013-10-08T09:13:41Z</time>
      </trkpt>
      <trkpt lat="44.08014" lon="2.16017">
        <ele>265.94</ele>
        <time>2013-10-08T09:13:48Z</time>
      </trkpt>
      <trkpt lat="44.08006" lon="2.16003">
        <ele>264.5</ele>
        <time>2013-10-08T09:14:01Z</time>
      </trkpt>
      <trkpt lat="44.08005" lon="2.15998">
        <ele>264.98</ele>
        <time>2013-10-08T09:14:04Z</time>
      </trkpt>
      <trkpt lat="44.07999" lon="2.15975">
        <ele>264.02</ele>
        <time>2013-10-08T09:14:20Z</time>
      </trkpt>
      <trkpt lat="44.07996" lon="2.1595">
        <ele>262.1</ele>
        <time>2013-10-08T09:14:38Z</time>
      </trkpt>
      <trkpt lat="44.07992" lon="2.15916">
        <ele>262.1</ele>
        <time>2013-10-08T09:14:59Z</time>
      </trkpt>
      <trkpt lat="44.07978" lon="2.15892">
        <ele>262.58</ele>
        <time>2013-10-08T09:15:22Z</time>
      </trkpt>
      <trkpt lat="44.07965" lon="2.1587">
        <ele>264.98</ele>
        <time>2013-10-08T09:15:42Z</time>
      </trkpt>
      <trkpt lat="44.07964" lon="2.15841">
        <ele>264.98</ele>
        <time>2013-10-08T09:16:00Z</time>
      </trkpt>
      <trkpt lat="44.07962" lon="2.15808">
        <ele>267.86</ele>
        <time>2013-10-08T09:16:21Z</time>
      </trkpt>
      <trkpt lat="44.07962" lon="2.15805">
        <ele>268.83</ele>
        <time>2013-10-08T09:16:23Z</time>
      </trkpt>
      <trkpt lat="44.07961" lon="2.15801">
        <ele>269.31</ele>
        <time>2013-10-08T09:16:25Z</time>
      </trkpt>
      <trkpt lat="44.07961" lon="2.15779">
        <ele>273.63</ele>
        <time>2013-10-08T09:16:39Z</time>
      </trkpt>
      <trkpt lat="44.07961" lon="2.15775">
        <ele>274.11</ele>
        <time>2013-10-08T09:16:42Z</time>
      </trkpt>
      <trkpt lat="44.07962" lon="2.15754">
        <ele>277</ele>
        <time>2013-10-08T09:16:57Z</time>
      </trkpt>
      <trkpt lat="44.07964" lon="2.15738">
        <ele>277.48</ele>
        <time>2013-10-08T09:17:07Z</time>
      </trkpt>
      <trkpt lat="44.07962" lon="2.15719">
        <ele>277.96</ele>
        <time>2013-10-08T09:17:20Z</time>
      </trkpt>
      <trkpt lat="44.07962" lon="2.15716">
        <ele>277.96</ele>
        <time>2013-10-08T09:17:22Z</time>
      </trkpt>
      <trkpt lat="44.07963" lon="2.15703">
        <ele>277.48</ele>
        <time>2013-10-08T09:17:29Z</time>
      </trkpt>
      <trkpt lat="44.07962" lon="2.15679">
        <ele>277.48</ele>
        <time>2013-10-08T09:17:44Z</time>
      </trkpt>
      <trkpt lat="44.07964" lon="2.15663">
        <ele>277.96</ele>
        <time>2013-10-08T09:17:54Z</time>
      </trkpt>
      <trkpt lat="44.07964" lon="2.15639">
        <ele>277.48</ele>
        <time>2013-10-08T09:18:07Z</time>
      </trkpt>
      <trkpt lat="44.07968" lon="2.1562">
        <ele>275.07</ele>
        <time>2013-10-08T09:18:19Z</time>
      </trkpt>
      <trkpt lat="44.07973" lon="2.15598">
        <ele>274.59</ele>
        <time>2013-10-08T09:18:33Z</time>
      </trkpt>
      <trkpt lat="44.07976" lon="2.15576">
        <ele>272.67</ele>
        <time>2013-10-08T09:18:47Z</time>
      </trkpt>
      <trkpt lat="44.07976" lon="2.15572">
        <ele>272.67</ele>
        <time>2013-10-08T09:18:49Z</time>
      </trkpt>
      <trkpt lat="44.07985" lon="2.1555">
        <ele>273.63</ele>
        <time>2013-10-08T09:19:04Z</time>
      </trkpt>
      <trkpt lat="44.07995" lon="2.15528">
        <ele>275.07</ele>
        <time>2013-10-08T09:19:18Z</time>
      </trkpt>
      <trkpt lat="44.08003" lon="2.15509">
        <ele>272.19</ele>
        <time>2013-10-08T09:19:30Z</time>
      </trkpt>
      <trkpt lat="44.08006" lon="2.15504">
        <ele>272.67</ele>
        <time>2013-10-08T09:19:34Z</time>
      </trkpt>
      <trkpt lat="44.08013" lon="2.15481">
        <ele>272.67</ele>
        <time>2013-10-08T09:19:50Z</time>
      </trkpt>
      <trkpt lat="44.08016" lon="2.15474">
        <ele>272.19</ele>
        <time>2013-10-08T09:19:55Z</time>
      </trkpt>
      <trkpt lat="44.08017" lon="2.15471">
        <ele>272.19</ele>
        <time>2013-10-08T09:19:57Z</time>
      </trkpt>
      <trkpt lat="44.08026" lon="2.15448">
        <ele>268.83</ele>
        <time>2013-10-08T09:20:15Z</time>
      </trkpt>
      <trkpt lat="44.08029" lon="2.15438">
        <ele>267.86</ele>
        <time>2013-10-08T09:20:22Z</time>
      </trkpt>
      <trkpt lat="44.08034" lon="2.15413">
        <ele>266.42</ele>
        <time>2013-10-08T09:20:38Z</time>
      </trkpt>
      <trkpt lat="44.08035" lon="2.15389">
        <ele>266.9</ele>
        <time>2013-10-08T09:20:53Z</time>
      </trkpt>
      <trkpt lat="44.08039" lon="2.1537">
        <ele>268.83</ele>
        <time>2013-10-08T09:21:05Z</time>
      </trkpt>
      <trkpt lat="44.08042" lon="2.15353">
        <ele>269.31</ele>
        <time>2013-10-08T09:21:14Z</time>
      </trkpt>
      <trkpt lat="44.08047" lon="2.15325">
        <ele>269.79</ele>
        <time>2013-10-08T09:21:32Z</time>
      </trkpt>
      <trkpt lat="44.08053" lon="2.15307">
        <ele>269.31</ele>
        <time>2013-10-08T09:21:44Z</time>
      </trkpt>
      <trkpt lat="44.08062" lon="2.15284">
        <ele>270.27</ele>
        <time>2013-10-08T09:21:59Z</time>
      </trkpt>
      <trkpt lat="44.08065" lon="2.1526">
        <ele>270.75</ele>
        <time>2013-10-08T09:22:14Z</time>
      </trkpt>
      <trkpt lat="44.08066" lon="2.1524">
        <ele>270.75</ele>
        <time>2013-10-08T09:22:27Z</time>
      </trkpt>
      <trkpt lat="44.0807" lon="2.15225">
        <ele>270.75</ele>
        <time>2013-10-08T09:22:35Z</time>
      </trkpt>
      <trkpt lat="44.08071" lon="2.15199">
        <ele>269.79</ele>
        <time>2013-10-08T09:22:51Z</time>
      </trkpt>
      <trkpt lat="44.08072" lon="2.15193">
        <ele>269.79</ele>
        <time>2013-10-08T09:22:55Z</time>
      </trkpt>
      <trkpt lat="44.08075" lon="2.15183">
        <ele>269.79</ele>
        <time>2013-10-08T09:23:02Z</time>
      </trkpt>
      <trkpt lat="44.08075" lon="2.15158">
        <ele>272.67</ele>
        <time>2013-10-08T09:23:17Z</time>
      </trkpt>
      <trkpt lat="44.08074" lon="2.15136">
        <ele>274.11</ele>
        <time>2013-10-08T09:23:30Z</time>
      </trkpt>
      <trkpt lat="44.08071" lon="2.15114">
        <ele>271.71</ele>
        <time>2013-10-08T09:23:44Z</time>
      </trkpt>
      <trkpt lat="44.08069" lon="2.15106">
        <ele>271.23</ele>
        <time>2013-10-08T09:23:49Z</time>
      </trkpt>
      <trkpt lat="44.08068" lon="2.15083">
        <ele>268.35</ele>
        <time>2013-10-08T09:24:03Z</time>
      </trkpt>
      <trkpt lat="44.08066" lon="2.15067">
        <ele>267.86</ele>
        <time>2013-10-08T09:24:14Z</time>
      </trkpt>
      <trkpt lat="44.08064" lon="2.15045">
        <ele>265.94</ele>
        <time>2013-10-08T09:24:27Z</time>
      </trkpt>
      <trkpt lat="44.08062" lon="2.15025">
        <ele>265.46</ele>
        <time>2013-10-08T09:24:39Z</time>
      </trkpt>
      <trkpt lat="44.0806" lon="2.15017">
        <ele>265.46</ele>
        <time>2013-10-08T09:24:44Z</time>
      </trkpt>
      <trkpt lat="44.08059" lon="2.14989">
        <ele>265.46</ele>
        <time>2013-10-08T09:25:00Z</time>
      </trkpt>
      <trkpt lat="44.08055" lon="2.14965">
        <ele>264.02</ele>
        <time>2013-10-08T09:25:15Z</time>
      </trkpt>
      <trkpt lat="44.08052" lon="2.14941">
        <ele>264.02</ele>
        <time>2013-10-08T09:25:29Z</time>
      </trkpt>
      <trkpt lat="44.08052" lon="2.14933">
        <ele>263.54</ele>
        <time>2013-10-08T09:25:34Z</time>
      </trkpt>
      <trkpt lat="44.08049" lon="2.14913">
        <ele>264.98</ele>
        <time>2013-10-08T09:25:47Z</time>
      </trkpt>
      <trkpt lat="44.08045" lon="2.14901">
        <ele>264.5</ele>
        <time>2013-10-08T09:25:55Z</time>
      </trkpt>
      <trkpt lat="44.08037" lon="2.14887">
        <ele>260.65</ele>
        <time>2013-10-08T09:26:08Z</time>
      </trkpt>
      <trkpt lat="44.08036" lon="2.14882">
        <ele>259.21</ele>
        <time>2013-10-08T09:26:13Z</time>
      </trkpt>
      <trkpt lat="44.08035" lon="2.14878">
        <ele>259.21</ele>
        <time>2013-10-08T09:26:15Z</time>
      </trkpt>
      <trkpt lat="44.08034" lon="2.14851">
        <ele>257.29</ele>
        <time>2013-10-08T09:26:30Z</time>
      </trkpt>
      <trkpt lat="44.08033" lon="2.14828">
        <ele>258.25</ele>
        <time>2013-10-08T09:26:44Z</time>
      </trkpt>
      <trkpt lat="44.08033" lon="2.14817">
        <ele>260.65</ele>
        <time>2013-10-08T09:26:51Z</time>
      </trkpt>
      <trkpt lat="44.08032" lon="2.14798">
        <ele>262.1</ele>
        <time>2013-10-08T09:27:04Z</time>
      </trkpt>
      <trkpt lat="44.08031" lon="2.1478">
        <ele>264.5</ele>
        <time>2013-10-08T09:27:15Z</time>
      </trkpt>
      <trkpt lat="44.08028" lon="2.14759">
        <ele>266.9</ele>
        <time>2013-10-08T09:27:29Z</time>
      </trkpt>
      <trkpt lat="44.08021" lon="2.1474">
        <ele>266.9</ele>
        <time>2013-10-08T09:27:42Z</time>
      </trkpt>
      <trkpt lat="44.08024" lon="2.1472">
        <ele>263.54</ele>
        <time>2013-10-08T09:27:55Z</time>
      </trkpt>
      <trkpt lat="44.08029" lon="2.14711">
        <ele>262.58</ele>
        <time>2013-10-08T09:28:02Z</time>
      </trkpt>
      <trkpt lat="44.0804" lon="2.14695">
        <ele>263.54</ele>
        <time>2013-10-08T09:28:15Z</time>
      </trkpt>
      <trkpt lat="44.0805" lon="2.14671">
        <ele>263.06</ele>
        <time>2013-10-08T09:28:31Z</time>
      </trkpt>
      <trkpt lat="44.08052" lon="2.14666">
        <ele>262.58</ele>
        <time>2013-10-08T09:28:35Z</time>
      </trkpt>
      <trkpt lat="44.08053" lon="2.1466">
        <ele>262.58</ele>
        <time>2013-10-08T09:28:39Z</time>
      </trkpt>
      <trkpt lat="44.08064" lon="2.14635">
        <ele>261.62</ele>
        <time>2013-10-08T09:28:55Z</time>
      </trkpt>
      <trkpt lat="44.08064" lon="2.14634">
        <ele>261.62</ele>
        <time>2013-10-08T09:28:56Z</time>
      </trkpt>
      <trkpt lat="44.08071" lon="2.14607">
        <ele>264.02</ele>
        <time>2013-10-08T09:29:14Z</time>
      </trkpt>
      <trkpt lat="44.08075" lon="2.14583">
        <ele>264.98</ele>
        <time>2013-10-08T09:29:29Z</time>
      </trkpt>
      <trkpt lat="44.08078" lon="2.14562">
        <ele>264.02</ele>
        <time>2013-10-08T09:29:43Z</time>
      </trkpt>
      <trkpt lat="44.08081" lon="2.1454">
        <ele>263.06</ele>
        <time>2013-10-08T09:29:57Z</time>
      </trkpt>
      <trkpt lat="44.08086" lon="2.14526">
        <ele>262.1</ele>
        <time>2013-10-08T09:30:06Z</time>
      </trkpt>
      <trkpt lat="44.08094" lon="2.14506">
        <ele>262.58</ele>
        <time>2013-10-08T09:30:20Z</time>
      </trkpt>
      <trkpt lat="44.08103" lon="2.14492">
        <ele>263.06</ele>
        <time>2013-10-08T09:30:31Z</time>
      </trkpt>
      <trkpt lat="44.08108" lon="2.14481">
        <ele>263.06</ele>
        <time>2013-10-08T09:30:38Z</time>
      </trkpt>
      <trkpt lat="44.08112" lon="2.14477">
        <ele>263.06</ele>
        <time>2013-10-08T09:30:42Z</time>
      </trkpt>
      <trkpt lat="44.0812" lon="2.14458">
        <ele>264.02</ele>
        <time>2013-10-08T09:30:56Z</time>
      </trkpt>
      <trkpt lat="44.08123" lon="2.14438">
        <ele>262.1</ele>
        <time>2013-10-08T09:31:09Z</time>
      </trkpt>
      <trkpt lat="44.08122" lon="2.14426">
        <ele>261.14</ele>
        <time>2013-10-08T09:31:18Z</time>
      </trkpt>
      <trkpt lat="44.08119" lon="2.14416">
        <ele>263.06</ele>
        <time>2013-10-08T09:31:26Z</time>
      </trkpt>
      <trkpt lat="44.08107" lon="2.14394">
        <ele>264.98</ele>
        <time>2013-10-08T09:31:44Z</time>
      </trkpt>
      <trkpt lat="44.08103" lon="2.14382">
        <ele>265.46</ele>
        <time>2013-10-08T09:31:52Z</time>
      </trkpt>
      <trkpt lat="44.08102" lon="2.1437">
        <ele>264.98</ele>
        <time>2013-10-08T09:31:59Z</time>
      </trkpt>
      <trkpt lat="44.08104" lon="2.14344">
        <ele>263.54</ele>
        <time>2013-10-08T09:32:14Z</time>
      </trkpt>
      <trkpt lat="44.08106" lon="2.14324">
        <ele>262.1</ele>
        <time>2013-10-08T09:32:27Z</time>
      </trkpt>
      <trkpt lat="44.08098" lon="2.14303">
        <ele>261.62</ele>
        <time>2013-10-08T09:32:43Z</time>
      </trkpt>
      <trkpt lat="44.0809" lon="2.14292">
        <ele>262.1</ele>
        <time>2013-10-08T09:32:55Z</time>
      </trkpt>
      <trkpt lat="44.0809" lon="2.14268">
        <ele>261.62</ele>
        <time>2013-10-08T09:33:11Z</time>
      </trkpt>
      <trkpt lat="44.0809" lon="2.14267">
        <ele>261.62</ele>
        <time>2013-10-08T09:33:12Z</time>
      </trkpt>
      <trkpt lat="44.08105" lon="2.14255">
        <ele>262.1</ele>
        <time>2013-10-08T09:33:28Z</time>
      </trkpt>
      <trkpt lat="44.0812" lon="2.14246">
        <ele>264.02</ele>
        <time>2013-10-08T09:33:42Z</time>
      </trkpt>
      <trkpt lat="44.08131" lon="2.14226">
        <ele>264.02</ele>
        <time>2013-10-08T09:33:57Z</time>
      </trkpt>
      <trkpt lat="44.08134" lon="2.14205">
        <ele>264.5</ele>
        <time>2013-10-08T09:34:11Z</time>
      </trkpt>
      <trkpt lat="44.08136" lon="2.14177">
        <ele>264.5</ele>
        <time>2013-10-08T09:34:27Z</time>
      </trkpt>
      <trkpt lat="44.08137" lon="2.14162">
        <ele>264.02</ele>
        <time>2013-10-08T09:34:37Z</time>
      </trkpt>
      <trkpt lat="44.08137" lon="2.14145">
        <ele>262.58</ele>
        <time>2013-10-08T09:34:47Z</time>
      </trkpt>
      <trkpt lat="44.08138" lon="2.14121">
        <ele>264.02</ele>
        <time>2013-10-08T09:35:01Z</time>
      </trkpt>
      <trkpt lat="44.08139" lon="2.14116">
        <ele>264.02</ele>
        <time>2013-10-08T09:35:05Z</time>
      </trkpt>
      <trkpt lat="44.08138" lon="2.14103">
        <ele>264.5</ele>
        <time>2013-10-08T09:35:13Z</time>
      </trkpt>
      <trkpt lat="44.08135" lon="2.14077">
        <ele>263.06</ele>
        <time>2013-10-08T09:35:30Z</time>
      </trkpt>
      <trkpt lat="44.08131" lon="2.1406">
        <ele>260.65</ele>
        <time>2013-10-08T09:35:41Z</time>
      </trkpt>
      <trkpt lat="44.08128" lon="2.14039">
        <ele>262.58</ele>
        <time>2013-10-08T09:35:54Z</time>
      </trkpt>
      <trkpt lat="44.08127" lon="2.14034">
        <ele>262.1</ele>
        <time>2013-10-08T09:35:58Z</time>
      </trkpt>
      <trkpt lat="44.08127" lon="2.14006">
        <ele>261.14</ele>
        <time>2013-10-08T09:36:16Z</time>
      </trkpt>
      <trkpt lat="44.08127" lon="2.1399">
        <ele>261.62</ele>
        <time>2013-10-08T09:36:27Z</time>
      </trkpt>
      <trkpt lat="44.0813" lon="2.13967">
        <ele>260.65</ele>
        <time>2013-10-08T09:36:43Z</time>
      </trkpt>
      <trkpt lat="44.08133" lon="2.13953">
        <ele>260.65</ele>
        <time>2013-10-08T09:36:52Z</time>
      </trkpt>
      <trkpt lat="44.08134" lon="2.13941">
        <ele>260.17</ele>
        <time>2013-10-08T09:36:59Z</time>
      </trkpt>
      <trkpt lat="44.08134" lon="2.13936">
        <ele>261.14</ele>
        <time>2013-10-08T09:37:02Z</time>
      </trkpt>
      <trkpt lat="44.08136" lon="2.13931">
        <ele>261.14</ele>
        <time>2013-10-08T09:37:05Z</time>
      </trkpt>
      <trkpt lat="44.08138" lon="2.1391">
        <ele>260.65</ele>
        <time>2013-10-08T09:37:18Z</time>
      </trkpt>
      <trkpt lat="44.08144" lon="2.13884">
        <ele>263.06</ele>
        <time>2013-10-08T09:37:34Z</time>
      </trkpt>
      <trkpt lat="44.08145" lon="2.1388">
        <ele>262.58</ele>
        <time>2013-10-08T09:37:37Z</time>
      </trkpt>
      <trkpt lat="44.08146" lon="2.13859">
        <ele>260.65</ele>
        <time>2013-10-08T09:37:51Z</time>
      </trkpt>
      <trkpt lat="44.08146" lon="2.13856">
        <ele>261.14</ele>
        <time>2013-10-08T09:37:53Z</time>
      </trkpt>
      <trkpt lat="44.08145" lon="2.13849">
        <ele>261.62</ele>
        <time>2013-10-08T09:37:57Z</time>
      </trkpt>
      <trkpt lat="44.08146" lon="2.13829">
        <ele>262.1</ele>
        <time>2013-10-08T09:38:11Z</time>
      </trkpt>
      <trkpt lat="44.08144" lon="2.13809">
        <ele>261.14</ele>
        <time>2013-10-08T09:38:23Z</time>
      </trkpt>
      <trkpt lat="44.08145" lon="2.138">
        <ele>262.1</ele>
        <time>2013-10-08T09:38:29Z</time>
      </trkpt>
      <trkpt lat="44.0815" lon="2.13785">
        <ele>264.02</ele>
        <time>2013-10-08T09:38:39Z</time>
      </trkpt>
      <trkpt lat="44.08157" lon="2.13761">
        <ele>263.06</ele>
        <time>2013-10-08T09:38:55Z</time>
      </trkpt>
      <trkpt lat="44.08157" lon="2.13756">
        <ele>263.06</ele>
        <time>2013-10-08T09:38:58Z</time>
      </trkpt>
      <trkpt lat="44.08156" lon="2.13735">
        <ele>263.54</ele>
        <time>2013-10-08T09:39:11Z</time>
      </trkpt>
      <trkpt lat="44.08156" lon="2.13728">
        <ele>264.02</ele>
        <time>2013-10-08T09:39:16Z</time>
      </trkpt>
      <trkpt lat="44.08156" lon="2.13712">
        <ele>264.5</ele>
        <time>2013-10-08T09:39:26Z</time>
      </trkpt>
      <trkpt lat="44.0816" lon="2.13687">
        <ele>264.5</ele>
        <time>2013-10-08T09:39:42Z</time>
      </trkpt>
      <trkpt lat="44.08162" lon="2.13681">
        <ele>264.98</ele>
        <time>2013-10-08T09:39:48Z</time>
      </trkpt>
      <trkpt lat="44.08163" lon="2.13671">
        <ele>264.98</ele>
        <time>2013-10-08T09:39:55Z</time>
      </trkpt>
      <trkpt lat="44.08168" lon="2.13647">
        <ele>264.02</ele>
        <time>2013-10-08T09:40:10Z</time>
      </trkpt>
      <trkpt lat="44.08173" lon="2.13629">
        <ele>262.1</ele>
        <time>2013-10-08T09:40:23Z</time>
      </trkpt>
      <trkpt lat="44.08175" lon="2.1362">
        <ele>262.58</ele>
        <time>2013-10-08T09:40:29Z</time>
      </trkpt>
      <trkpt lat="44.08184" lon="2.13598">
        <ele>262.1</ele>
        <time>2013-10-08T09:40:44Z</time>
      </trkpt>
      <trkpt lat="44.08188" lon="2.13576">
        <ele>263.06</ele>
        <time>2013-10-08T09:40:58Z</time>
      </trkpt>
      <trkpt lat="44.08191" lon="2.13562">
        <ele>262.58</ele>
        <time>2013-10-08T09:41:07Z</time>
      </trkpt>
      <trkpt lat="44.08193" lon="2.13541">
        <ele>261.14</ele>
        <time>2013-10-08T09:41:21Z</time>
      </trkpt>
      <trkpt lat="44.08195" lon="2.13531">
        <ele>261.14</ele>
        <time>2013-10-08T09:41:27Z</time>
      </trkpt>
      <trkpt lat="44.08196" lon="2.13524">
        <ele>261.62</ele>
        <time>2013-10-08T09:41:32Z</time>
      </trkpt>
      <trkpt lat="44.08197" lon="2.13514">
        <ele>262.1</ele>
        <time>2013-10-08T09:41:39Z</time>
      </trkpt>
      <trkpt lat="44.08198" lon="2.13506">
        <ele>263.06</ele>
        <time>2013-10-08T09:41:44Z</time>
      </trkpt>
      <trkpt lat="44.08201" lon="2.13482">
        <ele>264.02</ele>
        <time>2013-10-08T09:42:00Z</time>
      </trkpt>
      <trkpt lat="44.08201" lon="2.13476">
        <ele>263.54</ele>
        <time>2013-10-08T09:42:05Z</time>
      </trkpt>
      <trkpt lat="44.08207" lon="2.13462">
        <ele>266.9</ele>
        <time>2013-10-08T09:42:18Z</time>
      </trkpt>
      <trkpt lat="44.08209" lon="2.13456">
        <ele>267.86</ele>
        <time>2013-10-08T09:42:22Z</time>
      </trkpt>
      <trkpt lat="44.08209" lon="2.1344">
        <ele>266.42</ele>
        <time>2013-10-08T09:42:33Z</time>
      </trkpt>
      <trkpt lat="44.08207" lon="2.13434">
        <ele>264.98</ele>
        <time>2013-10-08T09:42:38Z</time>
      </trkpt>
      <trkpt lat="44.08203" lon="2.13417">
        <ele>262.58</ele>
        <time>2013-10-08T09:42:53Z</time>
      </trkpt>
      <trkpt lat="44.082" lon="2.13411">
        <ele>262.58</ele>
        <time>2013-10-08T09:43:07Z</time>
      </trkpt>
      <trkpt lat="44.08199" lon="2.13408">
        <ele>263.06</ele>
        <time>2013-10-08T09:43:22Z</time>
      </trkpt>
      <trkpt lat="44.08197" lon="2.13406">
        <ele>262.58</ele>
        <time>2013-10-08T09:43:39Z</time>
      </trkpt>
      <trkpt lat="44.08196" lon="2.13406">
        <ele>262.1</ele>
        <time>2013-10-08T09:43:53Z</time>
      </trkpt>
      <trkpt lat="44.08196" lon="2.13406">
        <ele>262.58</ele>
        <time>2013-10-08T09:44:01Z</time>
      </trkpt>
      <trkpt lat="44.08194" lon="2.13402">
        <ele>262.58</ele>
        <time>2013-10-08T09:44:05Z</time>
      </trkpt>
      <trkpt lat="44.0819" lon="2.13399">
        <ele>261.14</ele>
        <time>2013-10-08T09:44:17Z</time>
      </trkpt>
      <trkpt lat="44.08191" lon="2.13399">
        <ele>260.65</ele>
        <time>2013-10-08T09:44:36Z</time>
      </trkpt>
      <trkpt lat="44.08191" lon="2.13399">
        <ele>260.65</ele>
        <time>2013-10-08T09:44:58Z</time>
      </trkpt>
      <trkpt lat="44.08191" lon="2.13399">
        <ele>260.65</ele>
        <time>2013-10-08T09:45:24Z</time>
      </trkpt>
      <trkpt lat="44.08191" lon="2.13399">
        <ele>260.65</ele>
        <time>2013-10-08T09:45:47Z</time>
      </trkpt>
      <trkpt lat="44.0819" lon="2.13399">
        <ele>260.17</ele>
        <time>2013-10-08T09:46:07Z</time>
      </trkpt>
      <trkpt lat="44.08191" lon="2.13399">
        <ele>260.17</ele>
        <time>2013-10-08T09:46:22Z</time>
      </trkpt>
      <trkpt lat="44.0819" lon="2.13399">
        <ele>260.65</ele>
        <time>2013-10-08T09:46:45Z</time>
      </trkpt>
      <trkpt lat="44.0819" lon="2.13398">
        <ele>260.65</ele>
        <time>2013-10-08T09:47:09Z</time>
      </trkpt>
      <trkpt lat="44.08188" lon="2.13398">
        <ele>259.21</ele>
        <time>2013-10-08T09:47:41Z</time>
      </trkpt>
      <trkpt lat="44.08188" lon="2.13398">
        <ele>259.21</ele>
        <time>2013-10-08T09:47:56Z</time>
      </trkpt>
      <trkpt lat="44.08188" lon="2.13398">
        <ele>259.21</ele>
        <time>2013-10-08T09:48:15Z</time>
      </trkpt>
      <trkpt lat="44.08181" lon="2.13338">
        <ele>326.02</ele>
        <time>2013-10-08T09:50:12Z</time>
      </trkpt>
      <trkpt lat="44.08191" lon="2.13397">
        <ele>270.27</ele>
        <time>2013-10-08T09:50:38Z</time>
      </trkpt>
      <trkpt lat="44.08189" lon="2.13397">
        <ele>260.65</ele>
        <time>2013-10-08T09:51:11Z</time>
      </trkpt>
      <trkpt lat="44.08189" lon="2.13396">
        <ele>270.27</ele>
        <time>2013-10-08T09:51:43Z</time>
      </trkpt>
      <trkpt lat="44.08189" lon="2.13398">
        <ele>272.67</ele>
        <time>2013-10-08T09:52:16Z</time>
      </trkpt>
      <trkpt lat="44.08189" lon="2.13397">
        <ele>269.79</ele>
        <time>2013-10-08T09:52:46Z</time>
      </trkpt>
      <trkpt lat="44.08189" lon="2.13395">
        <ele>270.27</ele>
        <time>2013-10-08T09:53:19Z</time>
      </trkpt>
      <trkpt lat="44.08189" lon="2.13396">
        <ele>271.71</ele>
        <time>2013-10-08T09:53:46Z</time>
      </trkpt>
      <trkpt lat="44.0819" lon="2.13396">
        <ele>271.71</ele>
        <time>2013-10-08T09:54:14Z</time>
      </trkpt>
      <trkpt lat="44.0819" lon="2.13397">
        <ele>270.75</ele>
        <time>2013-10-08T09:54:42Z</time>
      </trkpt>
      <trkpt lat="44.0819" lon="2.13397">
        <ele>269.31</ele>
        <time>2013-10-08T09:55:13Z</time>
      </trkpt>
      <trkpt lat="44.0819" lon="2.13395">
        <ele>268.83</ele>
        <time>2013-10-08T09:55:41Z</time>
      </trkpt>
      <trkpt lat="44.0819" lon="2.13395">
        <ele>268.35</ele>
        <time>2013-10-08T09:56:15Z</time>
      </trkpt>
      <trkpt lat="44.0819" lon="2.13396">
        <ele>267.86</ele>
        <time>2013-10-08T09:56:42Z</time>
      </trkpt>
      <trkpt lat="44.0819" lon="2.13396">
        <ele>267.86</ele>
        <time>2013-10-08T09:57:09Z</time>
      </trkpt>
      <trkpt lat="44.0819" lon="2.13395">
        <ele>267.86</ele>
        <time>2013-10-08T09:57:36Z</time>
      </trkpt>
      <trkpt lat="44.0819" lon="2.13395">
        <ele>267.38</ele>
        <time>2013-10-08T09:58:06Z</time>
      </trkpt>
      <trkpt lat="44.08191" lon="2.13395">
        <ele>266.42</ele>
        <time>2013-10-08T09:58:38Z</time>
      </trkpt>
      <trkpt lat="44.0819" lon="2.13396">
        <ele>265.46</ele>
        <time>2013-10-08T09:59:09Z</time>
      </trkpt>
      <trkpt lat="44.0819" lon="2.13395">
        <ele>264.5</ele>
        <time>2013-10-08T09:59:41Z</time>
      </trkpt>
      <trkpt lat="44.08189" lon="2.13395">
        <ele>264.02</ele>
        <time>2013-10-08T10:00:15Z</time>
      </trkpt>
      <trkpt lat="44.08189" lon="2.13394">
        <ele>264.5</ele>
        <time>2013-10-08T10:00:48Z</time>
      </trkpt>
      <trkpt lat="44.08189" lon="2.13394">
        <ele>264.02</ele>
        <time>2013-10-08T10:01:21Z</time>
      </trkpt>
      <trkpt lat="44.08187" lon="2.13394">
        <ele>263.54</ele>
        <time>2013-10-08T10:01:51Z</time>
      </trkpt>
      <trkpt lat="44.08188" lon="2.13394">
        <ele>263.06</ele>
        <time>2013-10-08T10:02:29Z</time>
      </trkpt>
      <trkpt lat="44.08188" lon="2.13394">
        <ele>263.06</ele>
        <time>2013-10-08T10:03:01Z</time>
      </trkpt>
      <trkpt lat="44.08188" lon="2.13394">
        <ele>263.54</ele>
        <time>2013-10-08T10:03:35Z</time>
      </trkpt>
      <trkpt lat="44.08188" lon="2.13394">
        <ele>264.02</ele>
        <time>2013-10-08T10:04:04Z</time>
      </trkpt>
      <trkpt lat="44.08187" lon="2.13393">
        <ele>264.5</ele>
        <time>2013-10-08T10:04:36Z</time>
      </trkpt>
      <trkpt lat="44.08186" lon="2.13394">
        <ele>264.98</ele>
        <time>2013-10-08T10:05:08Z</time>
      </trkpt>
      <trkpt lat="44.08186" lon="2.13394">
        <ele>264.98</ele>
        <time>2013-10-08T10:05:40Z</time>
      </trkpt>
      <trkpt lat="44.08186" lon="2.13395">
        <ele>264.98</ele>
        <time>2013-10-08T10:06:17Z</time>
      </trkpt>
      <trkpt lat="44.08187" lon="2.13395">
        <ele>264.5</ele>
        <time>2013-10-08T10:06:49Z</time>
      </trkpt>
      <trkpt lat="44.08187" lon="2.13395">
        <ele>264.02</ele>
        <time>2013-10-08T10:07:23Z</time>
      </trkpt>
      <trkpt lat="44.08187" lon="2.13395">
        <ele>263.54</ele>
        <time>2013-10-08T10:07:59Z</time>
      </trkpt>
      <trkpt lat="44.08187" lon="2.13395">
        <ele>263.54</ele>
        <time>2013-10-08T10:08:28Z</time>
      </trkpt>
      <trkpt lat="44.08187" lon="2.13395">
        <ele>263.54</ele>
        <time>2013-10-08T10:09:00Z</time>
      </trkpt>
      <trkpt lat="44.08188" lon="2.13395">
        <ele>263.06</ele>
        <time>2013-10-08T10:09:31Z</time>
      </trkpt>
      <trkpt lat="44.08189" lon="2.13395">
        <ele>262.58</ele>
        <time>2013-10-08T10:10:03Z</time>
      </trkpt>
      <trkpt lat="44.08189" lon="2.13395">
        <ele>263.06</ele>
        <time>2013-10-08T10:10:33Z</time>
      </trkpt>
      <trkpt lat="44.0819" lon="2.13396">
        <ele>263.54</ele>
        <time>2013-10-08T10:11:06Z</time>
      </trkpt>
      <trkpt lat="44.0819" lon="2.13396">
        <ele>263.54</ele>
        <time>2013-10-08T10:11:40Z</time>
      </trkpt>
      <trkpt lat="44.0819" lon="2.13397">
        <ele>263.54</ele>
        <time>2013-10-08T10:12:13Z</time>
      </trkpt>
      <trkpt lat="44.08191" lon="2.13397">
        <ele>263.54</ele>
        <time>2013-10-08T10:12:47Z</time>
      </trkpt>
      <trkpt lat="44.08191" lon="2.13397">
        <ele>263.54</ele>
        <time>2013-10-08T10:13:22Z</time>
      </trkpt>
      <trkpt lat="44.08191" lon="2.13396">
        <ele>264.02</ele>
        <time>2013-10-08T10:13:52Z</time>
      </trkpt>
      <trkpt lat="44.0819" lon="2.13396">
        <ele>264.5</ele>
        <time>2013-10-08T10:14:24Z</time>
      </trkpt>
      <trkpt lat="44.0819" lon="2.13396">
        <ele>264.5</ele>
        <time>2013-10-08T10:14:58Z</time>
      </trkpt>
      <trkpt lat="44.0819" lon="2.13396">
        <ele>264.5</ele>
        <time>2013-10-08T10:15:28Z</time>
      </trkpt>
      <trkpt lat="44.08189" lon="2.13397">
        <ele>264.5</ele>
        <time>2013-10-08T10:16:00Z</time>
      </trkpt>
      <trkpt lat="44.08188" lon="2.13398">
        <ele>264.5</ele>
        <time>2013-10-08T10:16:28Z</time>
      </trkpt>
      <trkpt lat="44.08188" lon="2.13398">
        <ele>264.98</ele>
        <time>2013-10-08T10:16:59Z</time>
      </trkpt>
      <trkpt lat="44.08188" lon="2.13397">
        <ele>264.98</ele>
        <time>2013-10-08T10:17:28Z</time>
      </trkpt>
      <trkpt lat="44.08187" lon="2.13397">
        <ele>264.98</ele>
        <time>2013-10-08T10:17:56Z</time>
      </trkpt>
      <trkpt lat="44.08187" lon="2.13397">
        <ele>264.5</ele>
        <time>2013-10-08T10:18:28Z</time>
      </trkpt>
      <trkpt lat="44.08189" lon="2.13396">
        <ele>264.98</ele>
        <time>2013-10-08T10:19:01Z</time>
      </trkpt>
      <trkpt lat="44.08189" lon="2.13397">
        <ele>265.94</ele>
        <time>2013-10-08T10:19:39Z</time>
      </trkpt>
      <trkpt lat="44.08189" lon="2.13397">
        <ele>265.94</ele>
        <time>2013-10-08T10:20:14Z</time>
      </trkpt>
      <trkpt lat="44.08189" lon="2.13397">
        <ele>266.42</ele>
        <time>2013-10-08T10:20:44Z</time>
      </trkpt>
      <trkpt lat="44.08188" lon="2.13397">
        <ele>266.42</ele>
        <time>2013-10-08T10:21:13Z</time>
      </trkpt>
      <trkpt lat="44.08188" lon="2.13397">
        <ele>265.94</ele>
        <time>2013-10-08T10:21:44Z</time>
      </trkpt>
      <trkpt lat="44.08188" lon="2.13397">
        <ele>265.46</ele>
        <time>2013-10-08T10:22:19Z</time>
      </trkpt>
      <trkpt lat="44.08188" lon="2.13396">
        <ele>264.98</ele>
        <time>2013-10-08T10:23:00Z</time>
      </trkpt>
      <trkpt lat="44.08188" lon="2.13396">
        <ele>265.94</ele>
        <time>2013-10-08T10:23:32Z</time>
      </trkpt>
      <trkpt lat="44.08188" lon="2.13397">
        <ele>265.94</ele>
        <time>2013-10-08T10:24:05Z</time>
      </trkpt>
      <trkpt lat="44.08189" lon="2.13396">
        <ele>265.46</ele>
        <time>2013-10-08T10:24:36Z</time>
      </trkpt>
      <trkpt lat="44.08189" lon="2.13397">
        <ele>265.46</ele>
        <time>2013-10-08T10:25:08Z</time>
      </trkpt>
      <trkpt lat="44.08189" lon="2.13396">
        <ele>265.46</ele>
        <time>2013-10-08T10:25:29Z</time>
      </trkpt>
      <trkpt lat="44.08189" lon="2.13396">
        <ele>265.46</ele>
        <time>2013-10-08T10:26:05Z</time>
      </trkpt>
      <trkpt lat="44.08189" lon="2.13396">
        <ele>265.46</ele>
        <time>2013-10-08T10:26:33Z</time>
      </trkpt>
      <trkpt lat="44.08188" lon="2.13396">
        <ele>265.46</ele>
        <time>2013-10-08T10:26:55Z</time>
      </trkpt>
      <trkpt lat="44.08188" lon="2.13396">
        <ele>265.94</ele>
        <time>2013-10-08T10:27:29Z</time>
      </trkpt>
      <trkpt lat="44.08188" lon="2.13396">
        <ele>265.94</ele>
        <time>2013-10-08T10:28:02Z</time>
      </trkpt>
      <trkpt lat="44.08188" lon="2.13397">
        <ele>265.94</ele>
        <time>2013-10-08T10:28:41Z</time>
      </trkpt>
      <trkpt lat="44.08187" lon="2.13398">
        <ele>265.94</ele>
        <time>2013-10-08T10:29:14Z</time>
      </trkpt>
      <trkpt lat="44.08187" lon="2.13397">
        <ele>265.94</ele>
        <time>2013-10-08T10:29:43Z</time>
      </trkpt>
      <trkpt lat="44.08187" lon="2.13396">
        <ele>265.94</ele>
        <time>2013-10-08T10:30:06Z</time>
      </trkpt>
      <trkpt lat="44.08186" lon="2.13397">
        <ele>266.42</ele>
        <time>2013-10-08T10:30:31Z</time>
      </trkpt>
      <trkpt lat="44.08186" lon="2.13397">
        <ele>266.9</ele>
        <time>2013-10-08T10:30:51Z</time>
      </trkpt>
      <trkpt lat="44.08186" lon="2.13395">
        <ele>268.35</ele>
        <time>2013-10-08T10:31:15Z</time>
      </trkpt>
      <trkpt lat="44.08187" lon="2.13395">
        <ele>268.35</ele>
        <time>2013-10-08T10:31:29Z</time>
      </trkpt>
      <trkpt lat="44.08187" lon="2.13396">
        <ele>268.83</ele>
        <time>2013-10-08T10:31:46Z</time>
      </trkpt>
      <trkpt lat="44.08187" lon="2.13396">
        <ele>269.31</ele>
        <time>2013-10-08T10:32:04Z</time>
      </trkpt>
      <trkpt lat="44.08187" lon="2.13396">
        <ele>269.31</ele>
        <time>2013-10-08T10:32:06Z</time>
      </trkpt>
      <trkpt lat="44.08185" lon="2.13395">
        <ele>268.83</ele>
        <time>2013-10-08T10:32:08Z</time>
      </trkpt>
      <trkpt lat="44.08182" lon="2.13401">
        <ele>268.35</ele>
        <time>2013-10-08T10:32:15Z</time>
      </trkpt>
      <trkpt lat="44.08178" lon="2.13404">
        <ele>268.35</ele>
        <time>2013-10-08T10:32:20Z</time>
      </trkpt>
      <trkpt lat="44.08152" lon="2.13392">
        <ele>270.27</ele>
        <time>2013-10-08T10:32:43Z</time>
      </trkpt>
      <trkpt lat="44.08136" lon="2.13388">
        <ele>270.75</ele>
        <time>2013-10-08T10:33:05Z</time>
      </trkpt>
      <trkpt lat="44.08126" lon="2.13371">
        <ele>271.23</ele>
        <time>2013-10-08T10:33:27Z</time>
      </trkpt>
      <trkpt lat="44.08129" lon="2.13375">
        <ele>268.35</ele>
        <time>2013-10-08T10:33:44Z</time>
      </trkpt>
      <trkpt lat="44.08133" lon="2.1338">
        <ele>266.42</ele>
        <time>2013-10-08T10:33:59Z</time>
      </trkpt>
      <trkpt lat="44.08149" lon="2.13397">
        <ele>267.86</ele>
        <time>2013-10-08T10:34:21Z</time>
      </trkpt>
      <trkpt lat="44.08181" lon="2.13399">
        <ele>268.83</ele>
        <time>2013-10-08T10:34:46Z</time>
      </trkpt>
      <trkpt lat="44.08187" lon="2.13397">
        <ele>267.86</ele>
        <time>2013-10-08T10:35:04Z</time>
      </trkpt>
      <trkpt lat="44.08197" lon="2.13399">
        <ele>268.35</ele>
        <time>2013-10-08T10:35:26Z</time>
      </trkpt>
      <trkpt lat="44.08196" lon="2.13402">
        <ele>269.31</ele>
        <time>2013-10-08T10:35:49Z</time>
      </trkpt>
      <trkpt lat="44.08197" lon="2.13404">
        <ele>268.83</ele>
        <time>2013-10-08T10:36:08Z</time>
      </trkpt>
      <trkpt lat="44.08194" lon="2.13404">
        <ele>268.35</ele>
        <time>2013-10-08T10:36:28Z</time>
      </trkpt>
      <trkpt lat="44.08196" lon="2.13413">
        <ele>271.23</ele>
        <time>2013-10-08T10:36:49Z</time>
      </trkpt>
      <trkpt lat="44.08196" lon="2.13409">
        <ele>272.19</ele>
        <time>2013-10-08T10:37:10Z</time>
      </trkpt>
      <trkpt lat="44.08199" lon="2.13403">
        <ele>271.71</ele>
        <time>2013-10-08T10:37:28Z</time>
      </trkpt>
      <trkpt lat="44.08197" lon="2.13404">
        <ele>272.19</ele>
        <time>2013-10-08T10:37:50Z</time>
      </trkpt>
      <trkpt lat="44.08198" lon="2.13407">
        <ele>271.71</ele>
        <time>2013-10-08T10:38:10Z</time>
      </trkpt>
      <trkpt lat="44.08194" lon="2.1341">
        <ele>271.71</ele>
        <time>2013-10-08T10:38:36Z</time>
      </trkpt>
      <trkpt lat="44.08192" lon="2.13407">
        <ele>272.19</ele>
        <time>2013-10-08T10:38:55Z</time>
      </trkpt>
      <trkpt lat="44.08188" lon="2.134">
        <ele>274.11</ele>
        <time>2013-10-08T10:39:13Z</time>
      </trkpt>
      <trkpt lat="44.0819" lon="2.13398">
        <ele>275.56</ele>
        <time>2013-10-08T10:39:36Z</time>
      </trkpt>
      <trkpt lat="44.08181" lon="2.13391">
        <ele>278.44</ele>
        <time>2013-10-08T10:39:56Z</time>
      </trkpt>
      <trkpt lat="44.08187" lon="2.13395">
        <ele>273.15</ele>
        <time>2013-10-08T10:40:17Z</time>
      </trkpt>
      <trkpt lat="44.0819" lon="2.13396">
        <ele>267.86</ele>
        <time>2013-10-08T10:40:39Z</time>
      </trkpt>
      <trkpt lat="44.08191" lon="2.13396">
        <ele>266.9</ele>
        <time>2013-10-08T10:41:01Z</time>
      </trkpt>
      <trkpt lat="44.0819" lon="2.13397">
        <ele>265.94</ele>
        <time>2013-10-08T10:41:25Z</time>
      </trkpt>
      <trkpt lat="44.08186" lon="2.13395">
        <ele>266.42</ele>
        <time>2013-10-08T10:41:37Z</time>
      </trkpt>
      <trkpt lat="44.08178" lon="2.13393">
        <ele>263.06</ele>
        <time>2013-10-08T10:41:51Z</time>
      </trkpt>
      <trkpt lat="44.08167" lon="2.13388">
        <ele>262.58</ele>
        <time>2013-10-08T10:42:06Z</time>
      </trkpt>
      <trkpt lat="44.08156" lon="2.13385">
        <ele>261.62</ele>
        <time>2013-10-08T10:42:20Z</time>
      </trkpt>
      <trkpt lat="44.08146" lon="2.13381">
        <ele>261.62</ele>
        <time>2013-10-08T10:42:29Z</time>
      </trkpt>
      <trkpt lat="44.08131" lon="2.13375">
        <ele>261.14</ele>
        <time>2013-10-08T10:42:45Z</time>
      </trkpt>
      <trkpt lat="44.08139" lon="2.13361">
        <ele>261.62</ele>
        <time>2013-10-08T10:42:58Z</time>
      </trkpt>
      <trkpt lat="44.08142" lon="2.13355">
        <ele>260.17</ele>
        <time>2013-10-08T10:43:13Z</time>
      </trkpt>
      <trkpt lat="44.08147" lon="2.13347">
        <ele>262.58</ele>
        <time>2013-10-08T10:43:25Z</time>
      </trkpt>
      <trkpt lat="44.08155" lon="2.13337">
        <ele>263.54</ele>
        <time>2013-10-08T10:43:37Z</time>
      </trkpt>
      <trkpt lat="44.08157" lon="2.13335">
        <ele>263.06</ele>
        <time>2013-10-08T10:43:39Z</time>
      </trkpt>
      <trkpt lat="44.08171" lon="2.13327">
        <ele>262.58</ele>
        <time>2013-10-08T10:43:55Z</time>
      </trkpt>
      <trkpt lat="44.08174" lon="2.13324">
        <ele>262.58</ele>
        <time>2013-10-08T10:43:58Z</time>
      </trkpt>
      <trkpt lat="44.08186" lon="2.13316">
        <ele>261.14</ele>
        <time>2013-10-08T10:44:12Z</time>
      </trkpt>
      <trkpt lat="44.08192" lon="2.13301">
        <ele>262.58</ele>
        <time>2013-10-08T10:44:23Z</time>
      </trkpt>
      <trkpt lat="44.08197" lon="2.13278">
        <ele>263.54</ele>
        <time>2013-10-08T10:44:38Z</time>
      </trkpt>
      <trkpt lat="44.082" lon="2.13258">
        <ele>261.14</ele>
        <time>2013-10-08T10:44:54Z</time>
      </trkpt>
      <trkpt lat="44.08199" lon="2.13232">
        <ele>259.21</ele>
        <time>2013-10-08T10:45:11Z</time>
      </trkpt>
      <trkpt lat="44.08194" lon="2.13209">
        <ele>259.69</ele>
        <time>2013-10-08T10:45:27Z</time>
      </trkpt>
      <trkpt lat="44.08189" lon="2.13189">
        <ele>261.14</ele>
        <time>2013-10-08T10:45:41Z</time>
      </trkpt>
      <trkpt lat="44.0818" lon="2.13169">
        <ele>263.54</ele>
        <time>2013-10-08T10:45:55Z</time>
      </trkpt>
      <trkpt lat="44.08166" lon="2.13145">
        <ele>266.42</ele>
        <time>2013-10-08T10:46:10Z</time>
      </trkpt>
      <trkpt lat="44.08165" lon="2.13143">
        <ele>264.98</ele>
        <time>2013-10-08T10:46:14Z</time>
      </trkpt>
      <trkpt lat="44.08152" lon="2.13123">
        <ele>265.46</ele>
        <time>2013-10-08T10:46:23Z</time>
      </trkpt>
      <trkpt lat="44.0815" lon="2.1312">
        <ele>266.9</ele>
        <time>2013-10-08T10:46:28Z</time>
      </trkpt>
      <trkpt lat="44.08143" lon="2.13113">
        <ele>266.42</ele>
        <time>2013-10-08T10:46:32Z</time>
      </trkpt>
      <trkpt lat="44.08141" lon="2.13109">
        <ele>266.42</ele>
        <time>2013-10-08T10:46:34Z</time>
      </trkpt>
      <trkpt lat="44.08132" lon="2.13098">
        <ele>264.5</ele>
        <time>2013-10-08T10:46:49Z</time>
      </trkpt>
      <trkpt lat="44.08131" lon="2.13097">
        <ele>264.5</ele>
        <time>2013-10-08T10:46:50Z</time>
      </trkpt>
      <trkpt lat="44.08126" lon="2.13095">
        <ele>263.54</ele>
        <time>2013-10-08T10:46:56Z</time>
      </trkpt>
      <trkpt lat="44.08125" lon="2.13089">
        <ele>263.06</ele>
        <time>2013-10-08T10:47:00Z</time>
      </trkpt>
      <trkpt lat="44.08122" lon="2.13072">
        <ele>261.62</ele>
        <time>2013-10-08T10:47:08Z</time>
      </trkpt>
      <trkpt lat="44.08124" lon="2.13066">
        <ele>262.58</ele>
        <time>2013-10-08T10:47:12Z</time>
      </trkpt>
      <trkpt lat="44.0813" lon="2.13055">
        <ele>266.9</ele>
        <time>2013-10-08T10:47:21Z</time>
      </trkpt>
      <trkpt lat="44.08143" lon="2.13054">
        <ele>274.59</ele>
        <time>2013-10-08T10:47:33Z</time>
      </trkpt>
      <trkpt lat="44.08154" lon="2.1306">
        <ele>275.56</ele>
        <time>2013-10-08T10:47:46Z</time>
      </trkpt>
      <trkpt lat="44.08155" lon="2.13061">
        <ele>275.56</ele>
        <time>2013-10-08T10:47:47Z</time>
      </trkpt>
      <trkpt lat="44.08168" lon="2.13067">
        <ele>275.07</ele>
        <time>2013-10-08T10:47:57Z</time>
      </trkpt>
      <trkpt lat="44.08187" lon="2.13079">
        <ele>274.11</ele>
        <time>2013-10-08T10:48:16Z</time>
      </trkpt>
      <trkpt lat="44.08201" lon="2.13093">
        <ele>271.23</ele>
        <time>2013-10-08T10:48:33Z</time>
      </trkpt>
      <trkpt lat="44.08216" lon="2.13107">
        <ele>270.75</ele>
        <time>2013-10-08T10:48:50Z</time>
      </trkpt>
      <trkpt lat="44.08238" lon="2.13122">
        <ele>269.79</ele>
        <time>2013-10-08T10:49:07Z</time>
      </trkpt>
      <trkpt lat="44.08253" lon="2.13132">
        <ele>268.83</ele>
        <time>2013-10-08T10:49:19Z</time>
      </trkpt>
      <trkpt lat="44.08256" lon="2.13134">
        <ele>268.83</ele>
        <time>2013-10-08T10:49:22Z</time>
      </trkpt>
      <trkpt lat="44.08265" lon="2.13136">
        <ele>271.23</ele>
        <time>2013-10-08T10:49:31Z</time>
      </trkpt>
      <trkpt lat="44.08268" lon="2.13135">
        <ele>271.71</ele>
        <time>2013-10-08T10:49:33Z</time>
      </trkpt>
      <trkpt lat="44.0827" lon="2.13133">
        <ele>272.19</ele>
        <time>2013-10-08T10:49:36Z</time>
      </trkpt>
      <trkpt lat="44.08273" lon="2.13125">
        <ele>271.71</ele>
        <time>2013-10-08T10:49:42Z</time>
      </trkpt>
      <trkpt lat="44.08276" lon="2.13121">
        <ele>271.71</ele>
        <time>2013-10-08T10:49:46Z</time>
      </trkpt>
      <trkpt lat="44.08283" lon="2.13112">
        <ele>272.19</ele>
        <time>2013-10-08T10:49:55Z</time>
      </trkpt>
      <trkpt lat="44.0829" lon="2.13099">
        <ele>270.27</ele>
        <time>2013-10-08T10:50:04Z</time>
      </trkpt>
      <trkpt lat="44.08301" lon="2.13081">
        <ele>266.9</ele>
        <time>2013-10-08T10:50:18Z</time>
      </trkpt>
      <trkpt lat="44.08302" lon="2.13065">
        <ele>268.35</ele>
        <time>2013-10-08T10:50:30Z</time>
      </trkpt>
      <trkpt lat="44.08299" lon="2.13061">
        <ele>268.83</ele>
        <time>2013-10-08T10:50:42Z</time>
      </trkpt>
      <trkpt lat="44.08298" lon="2.13059">
        <ele>269.31</ele>
        <time>2013-10-08T10:50:59Z</time>
      </trkpt>
      <trkpt lat="44.08293" lon="2.13066">
        <ele>269.31</ele>
        <time>2013-10-08T10:51:11Z</time>
      </trkpt>
      <trkpt lat="44.08286" lon="2.13085">
        <ele>266.42</ele>
        <time>2013-10-08T10:51:25Z</time>
      </trkpt>
      <trkpt lat="44.08277" lon="2.13096">
        <ele>264.02</ele>
        <time>2013-10-08T10:51:38Z</time>
      </trkpt>
      <trkpt lat="44.0827" lon="2.13095">
        <ele>263.54</ele>
        <time>2013-10-08T10:51:43Z</time>
      </trkpt>
      <trkpt lat="44.08254" lon="2.13092">
        <ele>261.62</ele>
        <time>2013-10-08T10:51:59Z</time>
      </trkpt>
      <trkpt lat="44.08236" lon="2.13069">
        <ele>259.21</ele>
        <time>2013-10-08T10:52:23Z</time>
      </trkpt>
      <trkpt lat="44.08219" lon="2.13039">
        <ele>263.54</ele>
        <time>2013-10-08T10:52:44Z</time>
      </trkpt>
      <trkpt lat="44.08211" lon="2.13019">
        <ele>272.19</ele>
        <time>2013-10-08T10:52:59Z</time>
      </trkpt>
      <trkpt lat="44.08208" lon="2.13013">
        <ele>272.19</ele>
        <time>2013-10-08T10:53:04Z</time>
      </trkpt>
      <trkpt lat="44.082" lon="2.13">
        <ele>272.67</ele>
        <time>2013-10-08T10:53:16Z</time>
      </trkpt>
      <trkpt lat="44.08188" lon="2.12987">
        <ele>272.67</ele>
        <time>2013-10-08T10:53:28Z</time>
      </trkpt>
      <trkpt lat="44.08179" lon="2.12969">
        <ele>274.59</ele>
        <time>2013-10-08T10:53:42Z</time>
      </trkpt>
      <trkpt lat="44.08166" lon="2.12945">
        <ele>277</ele>
        <time>2013-10-08T10:53:59Z</time>
      </trkpt>
      <trkpt lat="44.08154" lon="2.12926">
        <ele>278.92</ele>
        <time>2013-10-08T10:54:16Z</time>
      </trkpt>
      <trkpt lat="44.08152" lon="2.12921">
        <ele>279.4</ele>
        <time>2013-10-08T10:54:20Z</time>
      </trkpt>
      <trkpt lat="44.0814" lon="2.12902">
        <ele>279.4</ele>
        <time>2013-10-08T10:54:36Z</time>
      </trkpt>
      <trkpt lat="44.0813" lon="2.12888">
        <ele>279.88</ele>
        <time>2013-10-08T10:54:50Z</time>
      </trkpt>
      <trkpt lat="44.08129" lon="2.12887">
        <ele>279.88</ele>
        <time>2013-10-08T10:54:51Z</time>
      </trkpt>
      <trkpt lat="44.08114" lon="2.12877">
        <ele>283.25</ele>
        <time>2013-10-08T10:55:06Z</time>
      </trkpt>
      <trkpt lat="44.08098" lon="2.12867">
        <ele>287.09</ele>
        <time>2013-10-08T10:55:21Z</time>
      </trkpt>
      <trkpt lat="44.08084" lon="2.1286">
        <ele>285.17</ele>
        <time>2013-10-08T10:55:35Z</time>
      </trkpt>
      <trkpt lat="44.0807" lon="2.12856">
        <ele>282.28</ele>
        <time>2013-10-08T10:55:50Z</time>
      </trkpt>
      <trkpt lat="44.08055" lon="2.12854">
        <ele>279.88</ele>
        <time>2013-10-08T10:56:04Z</time>
      </trkpt>
      <trkpt lat="44.08039" lon="2.12851">
        <ele>281.8</ele>
        <time>2013-10-08T10:56:18Z</time>
      </trkpt>
      <trkpt lat="44.08025" lon="2.1285">
        <ele>283.25</ele>
        <time>2013-10-08T10:56:31Z</time>
      </trkpt>
      <trkpt lat="44.08011" lon="2.12849">
        <ele>284.21</ele>
        <time>2013-10-08T10:56:44Z</time>
      </trkpt>
      <trkpt lat="44.07995" lon="2.12846">
        <ele>283.73</ele>
        <time>2013-10-08T10:56:59Z</time>
      </trkpt>
      <trkpt lat="44.07977" lon="2.12843">
        <ele>287.09</ele>
        <time>2013-10-08T10:57:15Z</time>
      </trkpt>
      <trkpt lat="44.07968" lon="2.12842">
        <ele>289.01</ele>
        <time>2013-10-08T10:57:23Z</time>
      </trkpt>
      <trkpt lat="44.07959" lon="2.1284">
        <ele>289.49</ele>
        <time>2013-10-08T10:57:32Z</time>
      </trkpt>
      <trkpt lat="44.07956" lon="2.1284">
        <ele>289.49</ele>
        <time>2013-10-08T10:57:35Z</time>
      </trkpt>
      <trkpt lat="44.07942" lon="2.12839">
        <ele>291.42</ele>
        <time>2013-10-08T10:57:47Z</time>
      </trkpt>
      <trkpt lat="44.07926" lon="2.12835">
        <ele>294.3</ele>
        <time>2013-10-08T10:58:02Z</time>
      </trkpt>
      <trkpt lat="44.07911" lon="2.12833">
        <ele>296.22</ele>
        <time>2013-10-08T10:58:15Z</time>
      </trkpt>
      <trkpt lat="44.079" lon="2.12831">
        <ele>297.67</ele>
        <time>2013-10-08T10:58:25Z</time>
      </trkpt>
      <trkpt lat="44.07891" lon="2.12828">
        <ele>297.18</ele>
        <time>2013-10-08T10:58:33Z</time>
      </trkpt>
      <trkpt lat="44.07889" lon="2.12827">
        <ele>297.18</ele>
        <time>2013-10-08T10:58:35Z</time>
      </trkpt>
      <trkpt lat="44.07869" lon="2.12821">
        <ele>296.7</ele>
        <time>2013-10-08T10:58:52Z</time>
      </trkpt>
      <trkpt lat="44.07849" lon="2.12812">
        <ele>298.15</ele>
        <time>2013-10-08T10:59:10Z</time>
      </trkpt>
      <trkpt lat="44.07831" lon="2.12802">
        <ele>298.15</ele>
        <time>2013-10-08T10:59:25Z</time>
      </trkpt>
      <trkpt lat="44.07813" lon="2.12795">
        <ele>299.11</ele>
        <time>2013-10-08T10:59:41Z</time>
      </trkpt>
      <trkpt lat="44.07794" lon="2.12786">
        <ele>299.11</ele>
        <time>2013-10-08T10:59:58Z</time>
      </trkpt>
      <trkpt lat="44.07775" lon="2.12778">
        <ele>301.03</ele>
        <time>2013-10-08T11:00:15Z</time>
      </trkpt>
      <trkpt lat="44.07756" lon="2.12767">
        <ele>302.47</ele>
        <time>2013-10-08T11:00:32Z</time>
      </trkpt>
      <trkpt lat="44.0774" lon="2.12757">
        <ele>301.51</ele>
        <time>2013-10-08T11:00:48Z</time>
      </trkpt>
      <trkpt lat="44.07725" lon="2.12746">
        <ele>302.95</ele>
        <time>2013-10-08T11:01:03Z</time>
      </trkpt>
      <trkpt lat="44.07709" lon="2.12734">
        <ele>303.91</ele>
        <time>2013-10-08T11:01:18Z</time>
      </trkpt>
      <trkpt lat="44.07693" lon="2.12718">
        <ele>305.36</ele>
        <time>2013-10-08T11:01:36Z</time>
      </trkpt>
      <trkpt lat="44.07681" lon="2.127">
        <ele>305.36</ele>
        <time>2013-10-08T11:01:51Z</time>
      </trkpt>
      <trkpt lat="44.07678" lon="2.12676">
        <ele>304.39</ele>
        <time>2013-10-08T11:02:07Z</time>
      </trkpt>
      <trkpt lat="44.07674" lon="2.12649">
        <ele>306.8</ele>
        <time>2013-10-08T11:02:24Z</time>
      </trkpt>
      <trkpt lat="44.07666" lon="2.12626">
        <ele>313.05</ele>
        <time>2013-10-08T11:02:39Z</time>
      </trkpt>
      <trkpt lat="44.07648" lon="2.12614">
        <ele>315.93</ele>
        <time>2013-10-08T11:02:55Z</time>
      </trkpt>
      <trkpt lat="44.07642" lon="2.12612">
        <ele>316.89</ele>
        <time>2013-10-08T11:03:01Z</time>
      </trkpt>
      <trkpt lat="44.07639" lon="2.12613">
        <ele>318.33</ele>
        <time>2013-10-08T11:03:04Z</time>
      </trkpt>
      <trkpt lat="44.07638" lon="2.12612">
        <ele>318.33</ele>
        <time>2013-10-08T11:03:06Z</time>
      </trkpt>
      <trkpt lat="44.07635" lon="2.12608">
        <ele>321.22</ele>
        <time>2013-10-08T11:03:18Z</time>
      </trkpt>
      <trkpt lat="44.07637" lon="2.12608">
        <ele>321.22</ele>
        <time>2013-10-08T11:03:41Z</time>
      </trkpt>
      <trkpt lat="44.07637" lon="2.1261">
        <ele>320.74</ele>
        <time>2013-10-08T11:03:56Z</time>
      </trkpt>
      <trkpt lat="44.07636" lon="2.12611">
        <ele>318.81</ele>
        <time>2013-10-08T11:04:22Z</time>
      </trkpt>
      <trkpt lat="44.07638" lon="2.1261">
        <ele>317.85</ele>
        <time>2013-10-08T11:04:32Z</time>
      </trkpt>
      <trkpt lat="44.07639" lon="2.12608">
        <ele>316.41</ele>
        <time>2013-10-08T11:04:56Z</time>
      </trkpt>
      <trkpt lat="44.07639" lon="2.12607">
        <ele>316.89</ele>
        <time>2013-10-08T11:05:14Z</time>
      </trkpt>
      <trkpt lat="44.07639" lon="2.12607">
        <ele>317.37</ele>
        <time>2013-10-08T11:05:38Z</time>
      </trkpt>
      <trkpt lat="44.07641" lon="2.12606">
        <ele>318.33</ele>
        <time>2013-10-08T11:06:00Z</time>
      </trkpt>
      <trkpt lat="44.07644" lon="2.1261">
        <ele>318.81</ele>
        <time>2013-10-08T11:06:24Z</time>
      </trkpt>
      <trkpt lat="44.07646" lon="2.12611">
        <ele>318.81</ele>
        <time>2013-10-08T11:06:50Z</time>
      </trkpt>
      <trkpt lat="44.07647" lon="2.12612">
        <ele>318.81</ele>
        <time>2013-10-08T11:07:17Z</time>
      </trkpt>
      <trkpt lat="44.07647" lon="2.12612">
        <ele>318.81</ele>
        <time>2013-10-08T11:07:40Z</time>
      </trkpt>
      <trkpt lat="44.07647" lon="2.12612">
        <ele>318.81</ele>
        <time>2013-10-08T11:08:08Z</time>
      </trkpt>
      <trkpt lat="44.07646" lon="2.12612">
        <ele>318.33</ele>
        <time>2013-10-08T11:08:32Z</time>
      </trkpt>
      <trkpt lat="44.07646" lon="2.12612">
        <ele>318.33</ele>
        <time>2013-10-08T11:08:59Z</time>
      </trkpt>
      <trkpt lat="44.07645" lon="2.12612">
        <ele>319.3</ele>
        <time>2013-10-08T11:09:12Z</time>
      </trkpt>
      <trkpt lat="44.07642" lon="2.12606">
        <ele>318.81</ele>
        <time>2013-10-08T11:09:29Z</time>
      </trkpt>
      <trkpt lat="44.0764" lon="2.12598">
        <ele>317.85</ele>
        <time>2013-10-08T11:09:35Z</time>
      </trkpt>
      <trkpt lat="44.07638" lon="2.12574">
        <ele>317.37</ele>
        <time>2013-10-08T11:09:51Z</time>
      </trkpt>
      <trkpt lat="44.07639" lon="2.12571">
        <ele>316.89</ele>
        <time>2013-10-08T11:09:55Z</time>
      </trkpt>
      <trkpt lat="44.07637" lon="2.12557">
        <ele>315.93</ele>
        <time>2013-10-08T11:10:13Z</time>
      </trkpt>
      <trkpt lat="44.07637" lon="2.12552">
        <ele>315.93</ele>
        <time>2013-10-08T11:10:34Z</time>
      </trkpt>
      <trkpt lat="44.07637" lon="2.12545">
        <ele>315.45</ele>
        <time>2013-10-08T11:10:38Z</time>
      </trkpt>
      <trkpt lat="44.07637" lon="2.1254">
        <ele>314.49</ele>
        <time>2013-10-08T11:10:41Z</time>
      </trkpt>
      <trkpt lat="44.07639" lon="2.12527">
        <ele>312.57</ele>
        <time>2013-10-08T11:10:50Z</time>
      </trkpt>
      <trkpt lat="44.0764" lon="2.12492">
        <ele>312.57</ele>
        <time>2013-10-08T11:11:09Z</time>
      </trkpt>
      <trkpt lat="44.07641" lon="2.12478">
        <ele>312.57</ele>
        <time>2013-10-08T11:11:17Z</time>
      </trkpt>
      <trkpt lat="44.07642" lon="2.12468">
        <ele>312.57</ele>
        <time>2013-10-08T11:11:23Z</time>
      </trkpt>
      <trkpt lat="44.07647" lon="2.12448">
        <ele>314.97</ele>
        <time>2013-10-08T11:11:38Z</time>
      </trkpt>
      <trkpt lat="44.07648" lon="2.12447">
        <ele>314.97</ele>
        <time>2013-10-08T11:11:39Z</time>
      </trkpt>
      <trkpt lat="44.07659" lon="2.12431">
        <ele>314.01</ele>
        <time>2013-10-08T11:11:54Z</time>
      </trkpt>
      <trkpt lat="44.07661" lon="2.12429">
        <ele>314.01</ele>
        <time>2013-10-08T11:11:56Z</time>
      </trkpt>
      <trkpt lat="44.07665" lon="2.12425">
        <ele>313.05</ele>
        <time>2013-10-08T11:12:00Z</time>
      </trkpt>
      <trkpt lat="44.0767" lon="2.12416">
        <ele>314.49</ele>
        <time>2013-10-08T11:12:07Z</time>
      </trkpt>
      <trkpt lat="44.07673" lon="2.1241">
        <ele>314.01</ele>
        <time>2013-10-08T11:12:12Z</time>
      </trkpt>
      <trkpt lat="44.0768" lon="2.12398">
        <ele>314.49</ele>
        <time>2013-10-08T11:12:22Z</time>
      </trkpt>
      <trkpt lat="44.07686" lon="2.12388">
        <ele>313.53</ele>
        <time>2013-10-08T11:12:30Z</time>
      </trkpt>
      <trkpt lat="44.07689" lon="2.12385">
        <ele>314.01</ele>
        <time>2013-10-08T11:12:33Z</time>
      </trkpt>
      <trkpt lat="44.07696" lon="2.12374">
        <ele>313.05</ele>
        <time>2013-10-08T11:12:43Z</time>
      </trkpt>
      <trkpt lat="44.07703" lon="2.12362">
        <ele>311.12</ele>
        <time>2013-10-08T11:12:52Z</time>
      </trkpt>
      <trkpt lat="44.0771" lon="2.12351">
        <ele>311.12</ele>
        <time>2013-10-08T11:13:01Z</time>
      </trkpt>
      <trkpt lat="44.07722" lon="2.12335">
        <ele>310.64</ele>
        <time>2013-10-08T11:13:15Z</time>
      </trkpt>
      <trkpt lat="44.07722" lon="2.12332">
        <ele>310.64</ele>
        <time>2013-10-08T11:13:17Z</time>
      </trkpt>
      <trkpt lat="44.07732" lon="2.12314">
        <ele>310.16</ele>
        <time>2013-10-08T11:13:32Z</time>
      </trkpt>
      <trkpt lat="44.07742" lon="2.12293">
        <ele>311.12</ele>
        <time>2013-10-08T11:13:47Z</time>
      </trkpt>
      <trkpt lat="44.07759" lon="2.12272">
        <ele>308.72</ele>
        <time>2013-10-08T11:14:06Z</time>
      </trkpt>
      <trkpt lat="44.07772" lon="2.1225">
        <ele>308.72</ele>
        <time>2013-10-08T11:14:23Z</time>
      </trkpt>
      <trkpt lat="44.07784" lon="2.12235">
        <ele>306.8</ele>
        <time>2013-10-08T11:14:36Z</time>
      </trkpt>
      <trkpt lat="44.07787" lon="2.12226">
        <ele>307.76</ele>
        <time>2013-10-08T11:14:42Z</time>
      </trkpt>
      <trkpt lat="44.078" lon="2.1221">
        <ele>306.32</ele>
        <time>2013-10-08T11:14:56Z</time>
      </trkpt>
      <trkpt lat="44.07802" lon="2.12208">
        <ele>305.84</ele>
        <time>2013-10-08T11:14:58Z</time>
      </trkpt>
      <trkpt lat="44.07806" lon="2.12199">
        <ele>304.88</ele>
        <time>2013-10-08T11:15:04Z</time>
      </trkpt>
      <trkpt lat="44.07813" lon="2.12189">
        <ele>303.91</ele>
        <time>2013-10-08T11:15:12Z</time>
      </trkpt>
      <trkpt lat="44.07817" lon="2.12182">
        <ele>303.43</ele>
        <time>2013-10-08T11:15:17Z</time>
      </trkpt>
      <trkpt lat="44.07822" lon="2.12176">
        <ele>304.39</ele>
        <time>2013-10-08T11:15:22Z</time>
      </trkpt>
      <trkpt lat="44.0783" lon="2.12164">
        <ele>303.43</ele>
        <time>2013-10-08T11:15:31Z</time>
      </trkpt>
      <trkpt lat="44.07833" lon="2.12157">
        <ele>301.99</ele>
        <time>2013-10-08T11:15:37Z</time>
      </trkpt>
      <trkpt lat="44.07836" lon="2.12152">
        <ele>301.51</ele>
        <time>2013-10-08T11:15:41Z</time>
      </trkpt>
      <trkpt lat="44.07838" lon="2.12146">
        <ele>301.03</ele>
        <time>2013-10-08T11:15:45Z</time>
      </trkpt>
      <trkpt lat="44.07848" lon="2.12126">
        <ele>301.03</ele>
        <time>2013-10-08T11:16:01Z</time>
      </trkpt>
      <trkpt lat="44.07839" lon="2.12111">
        <ele>302.95</ele>
        <time>2013-10-08T11:16:14Z</time>
      </trkpt>
      <trkpt lat="44.07829" lon="2.121">
        <ele>305.84</ele>
        <time>2013-10-08T11:16:25Z</time>
      </trkpt>
      <trkpt lat="44.07818" lon="2.1209">
        <ele>307.76</ele>
        <time>2013-10-08T11:16:38Z</time>
      </trkpt>
      <trkpt lat="44.07817" lon="2.12087">
        <ele>308.24</ele>
        <time>2013-10-08T11:16:40Z</time>
      </trkpt>
      <trkpt lat="44.07816" lon="2.12081">
        <ele>307.76</ele>
        <time>2013-10-08T11:16:43Z</time>
      </trkpt>
      <trkpt lat="44.07807" lon="2.12062">
        <ele>307.28</ele>
        <time>2013-10-08T11:16:57Z</time>
      </trkpt>
      <trkpt lat="44.07802" lon="2.12044">
        <ele>305.84</ele>
        <time>2013-10-08T11:17:09Z</time>
      </trkpt>
      <trkpt lat="44.07795" lon="2.12026">
        <ele>302.47</ele>
        <time>2013-10-08T11:17:23Z</time>
      </trkpt>
      <trkpt lat="44.07789" lon="2.12009">
        <ele>300.55</ele>
        <time>2013-10-08T11:17:36Z</time>
      </trkpt>
      <trkpt lat="44.07782" lon="2.11989">
        <ele>298.63</ele>
        <time>2013-10-08T11:17:51Z</time>
      </trkpt>
      <trkpt lat="44.07775" lon="2.11973">
        <ele>295.74</ele>
        <time>2013-10-08T11:18:05Z</time>
      </trkpt>
      <trkpt lat="44.07768" lon="2.11956">
        <ele>292.86</ele>
        <time>2013-10-08T11:18:19Z</time>
      </trkpt>
      <trkpt lat="44.0776" lon="2.11938">
        <ele>291.42</ele>
        <time>2013-10-08T11:18:33Z</time>
      </trkpt>
      <trkpt lat="44.07757" lon="2.11931">
        <ele>289.49</ele>
        <time>2013-10-08T11:18:39Z</time>
      </trkpt>
      <trkpt lat="44.07751" lon="2.11923">
        <ele>287.57</ele>
        <time>2013-10-08T11:18:46Z</time>
      </trkpt>
      <trkpt lat="44.07744" lon="2.11912">
        <ele>286.61</ele>
        <time>2013-10-08T11:18:56Z</time>
      </trkpt>
      <trkpt lat="44.0774" lon="2.11904">
        <ele>287.09</ele>
        <time>2013-10-08T11:19:03Z</time>
      </trkpt>
      <trkpt lat="44.07733" lon="2.11895">
        <ele>285.65</ele>
        <time>2013-10-08T11:19:12Z</time>
      </trkpt>
      <trkpt lat="44.0772" lon="2.11878">
        <ele>283.73</ele>
        <time>2013-10-08T11:19:27Z</time>
      </trkpt>
      <trkpt lat="44.07717" lon="2.11876">
        <ele>282.28</ele>
        <time>2013-10-08T11:19:30Z</time>
      </trkpt>
      <trkpt lat="44.07711" lon="2.11868">
        <ele>281.32</ele>
        <time>2013-10-08T11:19:38Z</time>
      </trkpt>
      <trkpt lat="44.07708" lon="2.11865">
        <ele>281.32</ele>
        <time>2013-10-08T11:19:42Z</time>
      </trkpt>
      <trkpt lat="44.07696" lon="2.11853">
        <ele>281.8</ele>
        <time>2013-10-08T11:19:56Z</time>
      </trkpt>
      <trkpt lat="44.07681" lon="2.11847">
        <ele>282.77</ele>
        <time>2013-10-08T11:20:12Z</time>
      </trkpt>
      <trkpt lat="44.07668" lon="2.11841">
        <ele>282.77</ele>
        <time>2013-10-08T11:20:24Z</time>
      </trkpt>
      <trkpt lat="44.07665" lon="2.11837">
        <ele>282.77</ele>
        <time>2013-10-08T11:20:28Z</time>
      </trkpt>
      <trkpt lat="44.07659" lon="2.1183">
        <ele>282.77</ele>
        <time>2013-10-08T11:20:34Z</time>
      </trkpt>
      <trkpt lat="44.07647" lon="2.11822">
        <ele>285.17</ele>
        <time>2013-10-08T11:20:48Z</time>
      </trkpt>
      <trkpt lat="44.07635" lon="2.11804">
        <ele>285.65</ele>
        <time>2013-10-08T11:21:02Z</time>
      </trkpt>
      <trkpt lat="44.07615" lon="2.11794">
        <ele>287.57</ele>
        <time>2013-10-08T11:21:20Z</time>
      </trkpt>
      <trkpt lat="44.07614" lon="2.11793">
        <ele>287.57</ele>
        <time>2013-10-08T11:21:21Z</time>
      </trkpt>
      <trkpt lat="44.07604" lon="2.11786">
        <ele>289.97</ele>
        <time>2013-10-08T11:21:31Z</time>
      </trkpt>
      <trkpt lat="44.07598" lon="2.11781">
        <ele>290.46</ele>
        <time>2013-10-08T11:21:36Z</time>
      </trkpt>
      <trkpt lat="44.07584" lon="2.11773">
        <ele>293.34</ele>
        <time>2013-10-08T11:21:50Z</time>
      </trkpt>
      <trkpt lat="44.07573" lon="2.11765">
        <ele>295.26</ele>
        <time>2013-10-08T11:22:01Z</time>
      </trkpt>
      <trkpt lat="44.07573" lon="2.11764">
        <ele>295.26</ele>
        <time>2013-10-08T11:22:02Z</time>
      </trkpt>
      <trkpt lat="44.07562" lon="2.1175">
        <ele>297.18</ele>
        <time>2013-10-08T11:22:16Z</time>
      </trkpt>
      <trkpt lat="44.07557" lon="2.11743">
        <ele>296.22</ele>
        <time>2013-10-08T11:22:23Z</time>
      </trkpt>
      <trkpt lat="44.07553" lon="2.11739">
        <ele>296.7</ele>
        <time>2013-10-08T11:22:27Z</time>
      </trkpt>
      <trkpt lat="44.07548" lon="2.11726">
        <ele>299.59</ele>
        <time>2013-10-08T11:22:40Z</time>
      </trkpt>
      <trkpt lat="44.07548" lon="2.11723">
        <ele>299.11</ele>
        <time>2013-10-08T11:22:55Z</time>
      </trkpt>
      <trkpt lat="44.07547" lon="2.11722">
        <ele>298.63</ele>
        <time>2013-10-08T11:23:08Z</time>
      </trkpt>
      <trkpt lat="44.07547" lon="2.11721">
        <ele>297.67</ele>
        <time>2013-10-08T11:23:30Z</time>
      </trkpt>
      <trkpt lat="44.07547" lon="2.11719">
        <ele>296.7</ele>
        <time>2013-10-08T11:23:41Z</time>
      </trkpt>
      <trkpt lat="44.07546" lon="2.11727">
        <ele>294.3</ele>
        <time>2013-10-08T11:23:55Z</time>
      </trkpt>
      <trkpt lat="44.07546" lon="2.11724">
        <ele>293.82</ele>
        <time>2013-10-08T11:24:12Z</time>
      </trkpt>
      <trkpt lat="44.07546" lon="2.11723">
        <ele>294.3</ele>
        <time>2013-10-08T11:24:25Z</time>
      </trkpt>
      <trkpt lat="44.07546" lon="2.11724">
        <ele>295.74</ele>
        <time>2013-10-08T11:24:40Z</time>
      </trkpt>
      <trkpt lat="44.07548" lon="2.11724">
        <ele>296.7</ele>
        <time>2013-10-08T11:24:56Z</time>
      </trkpt>
      <trkpt lat="44.07548" lon="2.11724">
        <ele>296.7</ele>
        <time>2013-10-08T11:24:57Z</time>
      </trkpt>
      <trkpt lat="44.07548" lon="2.11726">
        <ele>295.74</ele>
        <time>2013-10-08T11:25:10Z</time>
      </trkpt>
      <trkpt lat="44.07544" lon="2.11717">
        <ele>295.26</ele>
        <time>2013-10-08T11:25:22Z</time>
      </trkpt>
      <trkpt lat="44.07542" lon="2.11714">
        <ele>295.26</ele>
        <time>2013-10-08T11:25:25Z</time>
      </trkpt>
      <trkpt lat="44.07537" lon="2.11706">
        <ele>294.3</ele>
        <time>2013-10-08T11:25:34Z</time>
      </trkpt>
      <trkpt lat="44.07532" lon="2.11688">
        <ele>294.78</ele>
        <time>2013-10-08T11:25:48Z</time>
      </trkpt>
      <trkpt lat="44.07531" lon="2.11687">
        <ele>294.78</ele>
        <time>2013-10-08T11:25:49Z</time>
      </trkpt>
      <trkpt lat="44.07529" lon="2.11684">
        <ele>294.78</ele>
        <time>2013-10-08T11:25:52Z</time>
      </trkpt>
      <trkpt lat="44.07523" lon="2.11668">
        <ele>298.15</ele>
        <time>2013-10-08T11:26:03Z</time>
      </trkpt>
      <trkpt lat="44.07517" lon="2.11658">
        <ele>301.99</ele>
        <time>2013-10-08T11:26:11Z</time>
      </trkpt>
      <trkpt lat="44.07514" lon="2.11646">
        <ele>303.43</ele>
        <time>2013-10-08T11:26:19Z</time>
      </trkpt>
      <trkpt lat="44.0751" lon="2.11627">
        <ele>307.76</ele>
        <time>2013-10-08T11:26:33Z</time>
      </trkpt>
      <trkpt lat="44.07508" lon="2.1162">
        <ele>307.76</ele>
        <time>2013-10-08T11:26:38Z</time>
      </trkpt>
      <trkpt lat="44.07502" lon="2.11607">
        <ele>307.76</ele>
        <time>2013-10-08T11:26:49Z</time>
      </trkpt>
      <trkpt lat="44.07497" lon="2.11589">
        <ele>305.84</ele>
        <time>2013-10-08T11:27:01Z</time>
      </trkpt>
      <trkpt lat="44.07492" lon="2.11575">
        <ele>306.8</ele>
        <time>2013-10-08T11:27:15Z</time>
      </trkpt>
      <trkpt lat="44.07495" lon="2.11564">
        <ele>306.8</ele>
        <time>2013-10-08T11:27:24Z</time>
      </trkpt>
      <trkpt lat="44.07497" lon="2.11563">
        <ele>305.84</ele>
        <time>2013-10-08T11:27:27Z</time>
      </trkpt>
      <trkpt lat="44.07509" lon="2.11557">
        <ele>303.91</ele>
        <time>2013-10-08T11:27:41Z</time>
      </trkpt>
      <trkpt lat="44.07511" lon="2.11555">
        <ele>304.39</ele>
        <time>2013-10-08T11:27:44Z</time>
      </trkpt>
      <trkpt lat="44.07512" lon="2.11552">
        <ele>304.39</ele>
        <time>2013-10-08T11:27:46Z</time>
      </trkpt>
      <trkpt lat="44.07515" lon="2.11537">
        <ele>298.63</ele>
        <time>2013-10-08T11:27:59Z</time>
      </trkpt>
      <trkpt lat="44.07518" lon="2.11525">
        <ele>296.22</ele>
        <time>2013-10-08T11:28:09Z</time>
      </trkpt>
      <trkpt lat="44.07521" lon="2.11512">
        <ele>293.82</ele>
        <time>2013-10-08T11:28:19Z</time>
      </trkpt>
      <trkpt lat="44.07521" lon="2.115">
        <ele>292.38</ele>
        <time>2013-10-08T11:28:26Z</time>
      </trkpt>
      <trkpt lat="44.07522" lon="2.11496">
        <ele>292.38</ele>
        <time>2013-10-08T11:28:29Z</time>
      </trkpt>
      <trkpt lat="44.07526" lon="2.11484">
        <ele>292.38</ele>
        <time>2013-10-08T11:28:39Z</time>
      </trkpt>
      <trkpt lat="44.07532" lon="2.11484">
        <ele>291.9</ele>
        <time>2013-10-08T11:28:42Z</time>
      </trkpt>
      <trkpt lat="44.07534" lon="2.11464">
        <ele>288.53</ele>
        <time>2013-10-08T11:28:54Z</time>
      </trkpt>
      <trkpt lat="44.07536" lon="2.11459">
        <ele>286.61</ele>
        <time>2013-10-08T11:29:00Z</time>
      </trkpt>
      <trkpt lat="44.07539" lon="2.11453">
        <ele>286.13</ele>
        <time>2013-10-08T11:29:05Z</time>
      </trkpt>
      <trkpt lat="44.0754" lon="2.11449">
        <ele>285.65</ele>
        <time>2013-10-08T11:29:08Z</time>
      </trkpt>
      <trkpt lat="44.07543" lon="2.11443">
        <ele>285.17</ele>
        <time>2013-10-08T11:29:13Z</time>
      </trkpt>
      <trkpt lat="44.07549" lon="2.11431">
        <ele>283.25</ele>
        <time>2013-10-08T11:29:22Z</time>
      </trkpt>
      <trkpt lat="44.0755" lon="2.11427">
        <ele>283.25</ele>
        <time>2013-10-08T11:29:25Z</time>
      </trkpt>
      <trkpt lat="44.07553" lon="2.11417">
        <ele>284.21</ele>
        <time>2013-10-08T11:29:32Z</time>
      </trkpt>
      <trkpt lat="44.07554" lon="2.11409">
        <ele>284.21</ele>
        <time>2013-10-08T11:29:38Z</time>
      </trkpt>
      <trkpt lat="44.07557" lon="2.11403">
        <ele>284.69</ele>
        <time>2013-10-08T11:29:43Z</time>
      </trkpt>
      <trkpt lat="44.07558" lon="2.11401">
        <ele>285.17</ele>
        <time>2013-10-08T11:29:44Z</time>
      </trkpt>
      <trkpt lat="44.07558" lon="2.11389">
        <ele>284.69</ele>
        <time>2013-10-08T11:29:51Z</time>
      </trkpt>
      <trkpt lat="44.0756" lon="2.11383">
        <ele>283.25</ele>
        <time>2013-10-08T11:29:56Z</time>
      </trkpt>
      <trkpt lat="44.0756" lon="2.11379">
        <ele>283.25</ele>
        <time>2013-10-08T11:29:59Z</time>
      </trkpt>
      <trkpt lat="44.07562" lon="2.11373">
        <ele>282.77</ele>
        <time>2013-10-08T11:30:03Z</time>
      </trkpt>
      <trkpt lat="44.07564" lon="2.11369">
        <ele>282.28</ele>
        <time>2013-10-08T11:30:06Z</time>
      </trkpt>
      <trkpt lat="44.07566" lon="2.11351">
        <ele>282.28</ele>
        <time>2013-10-08T11:30:17Z</time>
      </trkpt>
      <trkpt lat="44.07568" lon="2.11348">
        <ele>283.25</ele>
        <time>2013-10-08T11:30:19Z</time>
      </trkpt>
      <trkpt lat="44.07569" lon="2.11345">
        <ele>283.25</ele>
        <time>2013-10-08T11:30:22Z</time>
      </trkpt>
      <trkpt lat="44.07572" lon="2.11322">
        <ele>281.8</ele>
        <time>2013-10-08T11:30:36Z</time>
      </trkpt>
      <trkpt lat="44.07576" lon="2.11307">
        <ele>280.36</ele>
        <time>2013-10-08T11:30:46Z</time>
      </trkpt>
      <trkpt lat="44.07577" lon="2.11299">
        <ele>280.36</ele>
        <time>2013-10-08T11:30:51Z</time>
      </trkpt>
      <trkpt lat="44.07584" lon="2.11287">
        <ele>278.92</ele>
        <time>2013-10-08T11:31:00Z</time>
      </trkpt>
      <trkpt lat="44.07586" lon="2.11285">
        <ele>278.92</ele>
        <time>2013-10-08T11:31:02Z</time>
      </trkpt>
      <trkpt lat="44.07592" lon="2.11271">
        <ele>278.44</ele>
        <time>2013-10-08T11:31:11Z</time>
      </trkpt>
      <trkpt lat="44.07601" lon="2.11258">
        <ele>277</ele>
        <time>2013-10-08T11:31:22Z</time>
      </trkpt>
      <trkpt lat="44.07609" lon="2.11246">
        <ele>277.96</ele>
        <time>2013-10-08T11:31:33Z</time>
      </trkpt>
      <trkpt lat="44.0761" lon="2.11244">
        <ele>277.96</ele>
        <time>2013-10-08T11:31:35Z</time>
      </trkpt>
      <trkpt lat="44.07618" lon="2.11227">
        <ele>278.92</ele>
        <time>2013-10-08T11:31:47Z</time>
      </trkpt>
      <trkpt lat="44.07619" lon="2.11225">
        <ele>278.92</ele>
        <time>2013-10-08T11:31:49Z</time>
      </trkpt>
      <trkpt lat="44.07623" lon="2.11218">
        <ele>279.88</ele>
        <time>2013-10-08T11:31:54Z</time>
      </trkpt>
      <trkpt lat="44.07625" lon="2.11213">
        <ele>280.84</ele>
        <time>2013-10-08T11:31:58Z</time>
      </trkpt>
      <trkpt lat="44.07625" lon="2.11209">
        <ele>282.77</ele>
        <time>2013-10-08T11:32:07Z</time>
      </trkpt>
      <trkpt lat="44.07627" lon="2.11205">
        <ele>282.77</ele>
        <time>2013-10-08T11:32:10Z</time>
      </trkpt>
      <trkpt lat="44.0763" lon="2.112">
        <ele>283.25</ele>
        <time>2013-10-08T11:32:15Z</time>
      </trkpt>
      <trkpt lat="44.07633" lon="2.11198">
        <ele>283.73</ele>
        <time>2013-10-08T11:32:18Z</time>
      </trkpt>
      <trkpt lat="44.07635" lon="2.11194">
        <ele>283.73</ele>
        <time>2013-10-08T11:32:22Z</time>
      </trkpt>
      <trkpt lat="44.07642" lon="2.11186">
        <ele>284.21</ele>
        <time>2013-10-08T11:32:30Z</time>
      </trkpt>
      <trkpt lat="44.07646" lon="2.11183">
        <ele>284.69</ele>
        <time>2013-10-08T11:32:41Z</time>
      </trkpt>
      <trkpt lat="44.07649" lon="2.11178">
        <ele>286.13</ele>
        <time>2013-10-08T11:32:47Z</time>
      </trkpt>
      <trkpt lat="44.07652" lon="2.11173">
        <ele>286.13</ele>
        <time>2013-10-08T11:32:51Z</time>
      </trkpt>
      <trkpt lat="44.07654" lon="2.11173">
        <ele>286.61</ele>
        <time>2013-10-08T11:32:53Z</time>
      </trkpt>
      <trkpt lat="44.07657" lon="2.11169">
        <ele>287.09</ele>
        <time>2013-10-08T11:32:56Z</time>
      </trkpt>
      <trkpt lat="44.07661" lon="2.11163">
        <ele>287.57</ele>
        <time>2013-10-08T11:33:02Z</time>
      </trkpt>
      <trkpt lat="44.07664" lon="2.1116">
        <ele>288.05</ele>
        <time>2013-10-08T11:33:06Z</time>
      </trkpt>
      <trkpt lat="44.07668" lon="2.11155">
        <ele>288.53</ele>
        <time>2013-10-08T11:33:12Z</time>
      </trkpt>
      <trkpt lat="44.07672" lon="2.11151">
        <ele>289.49</ele>
        <time>2013-10-08T11:33:16Z</time>
      </trkpt>
      <trkpt lat="44.07681" lon="2.11144">
        <ele>291.9</ele>
        <time>2013-10-08T11:33:26Z</time>
      </trkpt>
      <trkpt lat="44.07685" lon="2.11143">
        <ele>291.9</ele>
        <time>2013-10-08T11:33:30Z</time>
      </trkpt>
      <trkpt lat="44.077" lon="2.11138">
        <ele>289.01</ele>
        <time>2013-10-08T11:33:44Z</time>
      </trkpt>
      <trkpt lat="44.07702" lon="2.11137">
        <ele>288.53</ele>
        <time>2013-10-08T11:33:47Z</time>
      </trkpt>
      <trkpt lat="44.0771" lon="2.11134">
        <ele>289.01</ele>
        <time>2013-10-08T11:33:53Z</time>
      </trkpt>
      <trkpt lat="44.07712" lon="2.11133">
        <ele>289.49</ele>
        <time>2013-10-08T11:33:55Z</time>
      </trkpt>
      <trkpt lat="44.07715" lon="2.11131">
        <ele>289.49</ele>
        <time>2013-10-08T11:33:58Z</time>
      </trkpt>
      <trkpt lat="44.07717" lon="2.11129">
        <ele>289.97</ele>
        <time>2013-10-08T11:34:03Z</time>
      </trkpt>
      <trkpt lat="44.07721" lon="2.11128">
        <ele>289.97</ele>
        <time>2013-10-08T11:34:06Z</time>
      </trkpt>
      <trkpt lat="44.07731" lon="2.11123">
        <ele>289.49</ele>
        <time>2013-10-08T11:34:14Z</time>
      </trkpt>
      <trkpt lat="44.07747" lon="2.11116">
        <ele>288.53</ele>
        <time>2013-10-08T11:34:28Z</time>
      </trkpt>
      <trkpt lat="44.07762" lon="2.11111">
        <ele>287.57</ele>
        <time>2013-10-08T11:34:40Z</time>
      </trkpt>
      <trkpt lat="44.07771" lon="2.11109">
        <ele>286.61</ele>
        <time>2013-10-08T11:34:49Z</time>
      </trkpt>
      <trkpt lat="44.07774" lon="2.11104">
        <ele>287.57</ele>
        <time>2013-10-08T11:34:54Z</time>
      </trkpt>
      <trkpt lat="44.07778" lon="2.11102">
        <ele>288.05</ele>
        <time>2013-10-08T11:34:58Z</time>
      </trkpt>
      <trkpt lat="44.0778" lon="2.11099">
        <ele>289.01</ele>
        <time>2013-10-08T11:35:01Z</time>
      </trkpt>
      <trkpt lat="44.07792" lon="2.11089">
        <ele>292.38</ele>
        <time>2013-10-08T11:35:15Z</time>
      </trkpt>
      <trkpt lat="44.07798" lon="2.11085">
        <ele>292.86</ele>
        <time>2013-10-08T11:35:22Z</time>
      </trkpt>
      <trkpt lat="44.07801" lon="2.11083">
        <ele>293.34</ele>
        <time>2013-10-08T11:35:25Z</time>
      </trkpt>
      <trkpt lat="44.07813" lon="2.11077">
        <ele>294.3</ele>
        <time>2013-10-08T11:35:36Z</time>
      </trkpt>
      <trkpt lat="44.07815" lon="2.11076">
        <ele>293.34</ele>
        <time>2013-10-08T11:35:38Z</time>
      </trkpt>
      <trkpt lat="44.07819" lon="2.11073">
        <ele>292.86</ele>
        <time>2013-10-08T11:35:42Z</time>
      </trkpt>
      <trkpt lat="44.07819" lon="2.11069">
        <ele>293.82</ele>
        <time>2013-10-08T11:35:44Z</time>
      </trkpt>
      <trkpt lat="44.07821" lon="2.11067">
        <ele>294.78</ele>
        <time>2013-10-08T11:35:46Z</time>
      </trkpt>
      <trkpt lat="44.07829" lon="2.11058">
        <ele>296.22</ele>
        <time>2013-10-08T11:35:56Z</time>
      </trkpt>
      <trkpt lat="44.07831" lon="2.11056">
        <ele>296.7</ele>
        <time>2013-10-08T11:35:59Z</time>
      </trkpt>
      <trkpt lat="44.07843" lon="2.1104">
        <ele>298.15</ele>
        <time>2013-10-08T11:36:13Z</time>
      </trkpt>
      <trkpt lat="44.07844" lon="2.11039">
        <ele>298.63</ele>
        <time>2013-10-08T11:36:15Z</time>
      </trkpt>
      <trkpt lat="44.07846" lon="2.11034">
        <ele>298.63</ele>
        <time>2013-10-08T11:36:19Z</time>
      </trkpt>
      <trkpt lat="44.07852" lon="2.11029">
        <ele>300.07</ele>
        <time>2013-10-08T11:36:25Z</time>
      </trkpt>
      <trkpt lat="44.0786" lon="2.11022">
        <ele>301.51</ele>
        <time>2013-10-08T11:36:33Z</time>
      </trkpt>
      <trkpt lat="44.07867" lon="2.11013">
        <ele>301.99</ele>
        <time>2013-10-08T11:36:42Z</time>
      </trkpt>
      <trkpt lat="44.07877" lon="2.11005">
        <ele>303.43</ele>
        <time>2013-10-08T11:36:53Z</time>
      </trkpt>
      <trkpt lat="44.0788" lon="2.11002">
        <ele>303.43</ele>
        <time>2013-10-08T11:36:57Z</time>
      </trkpt>
      <trkpt lat="44.07883" lon="2.11001">
        <ele>303.43</ele>
        <time>2013-10-08T11:37:00Z</time>
      </trkpt>
      <trkpt lat="44.07892" lon="2.10994">
        <ele>304.88</ele>
        <time>2013-10-08T11:37:12Z</time>
      </trkpt>
      <trkpt lat="44.07901" lon="2.10993">
        <ele>305.36</ele>
        <time>2013-10-08T11:37:24Z</time>
      </trkpt>
      <trkpt lat="44.079" lon="2.10993">
        <ele>305.36</ele>
        <time>2013-10-08T11:37:43Z</time>
      </trkpt>
      <trkpt lat="44.07901" lon="2.10992">
        <ele>305.36</ele>
        <time>2013-10-08T11:38:03Z</time>
      </trkpt>
      <trkpt lat="44.079" lon="2.10992">
        <ele>305.36</ele>
        <time>2013-10-08T11:38:22Z</time>
      </trkpt>
      <trkpt lat="44.07904" lon="2.10986">
        <ele>304.39</ele>
        <time>2013-10-08T11:38:35Z</time>
      </trkpt>
      <trkpt lat="44.07904" lon="2.10986">
        <ele>304.39</ele>
        <time>2013-10-08T11:38:36Z</time>
      </trkpt>
      <trkpt lat="44.07905" lon="2.10986">
        <ele>304.39</ele>
        <time>2013-10-08T11:38:38Z</time>
      </trkpt>
      <trkpt lat="44.07909" lon="2.10976">
        <ele>305.84</ele>
        <time>2013-10-08T11:38:45Z</time>
      </trkpt>
      <trkpt lat="44.07914" lon="2.10971">
        <ele>305.84</ele>
        <time>2013-10-08T11:38:54Z</time>
      </trkpt>
      <trkpt lat="44.07917" lon="2.10966">
        <ele>305.84</ele>
        <time>2013-10-08T11:38:58Z</time>
      </trkpt>
      <trkpt lat="44.07919" lon="2.10962">
        <ele>306.32</ele>
        <time>2013-10-08T11:39:02Z</time>
      </trkpt>
      <trkpt lat="44.07925" lon="2.10957">
        <ele>305.84</ele>
        <time>2013-10-08T11:39:08Z</time>
      </trkpt>
      <trkpt lat="44.07928" lon="2.10949">
        <ele>305.36</ele>
        <time>2013-10-08T11:39:14Z</time>
      </trkpt>
      <trkpt lat="44.07932" lon="2.1094">
        <ele>307.28</ele>
        <time>2013-10-08T11:39:25Z</time>
      </trkpt>
      <trkpt lat="44.07932" lon="2.1094">
        <ele>307.76</ele>
        <time>2013-10-08T11:39:39Z</time>
      </trkpt>
      <trkpt lat="44.07932" lon="2.10939">
        <ele>308.24</ele>
        <time>2013-10-08T11:39:42Z</time>
      </trkpt>
      <trkpt lat="44.07936" lon="2.10921">
        <ele>308.72</ele>
        <time>2013-10-08T11:39:57Z</time>
      </trkpt>
      <trkpt lat="44.07939" lon="2.1092">
        <ele>307.76</ele>
        <time>2013-10-08T11:40:16Z</time>
      </trkpt>
      <trkpt lat="44.07939" lon="2.10916">
        <ele>307.28</ele>
        <time>2013-10-08T11:40:28Z</time>
      </trkpt>
      <trkpt lat="44.07945" lon="2.10925">
        <ele>306.32</ele>
        <time>2013-10-08T11:40:43Z</time>
      </trkpt>
      <trkpt lat="44.0794" lon="2.10923">
        <ele>306.8</ele>
        <time>2013-10-08T11:41:01Z</time>
      </trkpt>
      <trkpt lat="44.07939" lon="2.10909">
        <ele>307.28</ele>
        <time>2013-10-08T11:41:09Z</time>
      </trkpt>
      <trkpt lat="44.07939" lon="2.10875">
        <ele>309.2</ele>
        <time>2013-10-08T11:41:27Z</time>
      </trkpt>
      <trkpt lat="44.07937" lon="2.10852">
        <ele>310.64</ele>
        <time>2013-10-08T11:41:41Z</time>
      </trkpt>
      <trkpt lat="44.07929" lon="2.10818">
        <ele>311.6</ele>
        <time>2013-10-08T11:42:00Z</time>
      </trkpt>
      <trkpt lat="44.07922" lon="2.10788">
        <ele>313.05</ele>
        <time>2013-10-08T11:42:17Z</time>
      </trkpt>
      <trkpt lat="44.07917" lon="2.10767">
        <ele>314.01</ele>
        <time>2013-10-08T11:42:30Z</time>
      </trkpt>
      <trkpt lat="44.07914" lon="2.10737">
        <ele>315.93</ele>
        <time>2013-10-08T11:42:47Z</time>
      </trkpt>
      <trkpt lat="44.07913" lon="2.10727">
        <ele>315.93</ele>
        <time>2013-10-08T11:42:52Z</time>
      </trkpt>
      <trkpt lat="44.07914" lon="2.10715">
        <ele>314.97</ele>
        <time>2013-10-08T11:42:59Z</time>
      </trkpt>
      <trkpt lat="44.07915" lon="2.10688">
        <ele>314.97</ele>
        <time>2013-10-08T11:43:14Z</time>
      </trkpt>
      <trkpt lat="44.07913" lon="2.10668">
        <ele>316.89</ele>
        <time>2013-10-08T11:43:26Z</time>
      </trkpt>
      <trkpt lat="44.07913" lon="2.10666">
        <ele>317.37</ele>
        <time>2013-10-08T11:43:27Z</time>
      </trkpt>
      <trkpt lat="44.0791" lon="2.10639">
        <ele>318.33</ele>
        <time>2013-10-08T11:43:42Z</time>
      </trkpt>
      <trkpt lat="44.07908" lon="2.10629">
        <ele>320.26</ele>
        <time>2013-10-08T11:43:48Z</time>
      </trkpt>
      <trkpt lat="44.07907" lon="2.10601">
        <ele>321.22</ele>
        <time>2013-10-08T11:44:04Z</time>
      </trkpt>
      <trkpt lat="44.07901" lon="2.10574">
        <ele>324.1</ele>
        <time>2013-10-08T11:44:20Z</time>
      </trkpt>
      <trkpt lat="44.07894" lon="2.10545">
        <ele>325.54</ele>
        <time>2013-10-08T11:44:37Z</time>
      </trkpt>
      <trkpt lat="44.07888" lon="2.10515">
        <ele>326.5</ele>
        <time>2013-10-08T11:44:56Z</time>
      </trkpt>
      <trkpt lat="44.07883" lon="2.10493">
        <ele>326.99</ele>
        <time>2013-10-08T11:45:11Z</time>
      </trkpt>
      <trkpt lat="44.0788" lon="2.10468">
        <ele>326.5</ele>
        <time>2013-10-08T11:45:26Z</time>
      </trkpt>
      <trkpt lat="44.0788" lon="2.10443">
        <ele>326.5</ele>
        <time>2013-10-08T11:45:41Z</time>
      </trkpt>
      <trkpt lat="44.07882" lon="2.10419">
        <ele>326.02</ele>
        <time>2013-10-08T11:45:56Z</time>
      </trkpt>
      <trkpt lat="44.07885" lon="2.104">
        <ele>325.54</ele>
        <time>2013-10-08T11:46:07Z</time>
      </trkpt>
      <trkpt lat="44.07891" lon="2.10379">
        <ele>321.7</ele>
        <time>2013-10-08T11:46:21Z</time>
      </trkpt>
      <trkpt lat="44.07891" lon="2.10376">
        <ele>321.7</ele>
        <time>2013-10-08T11:46:23Z</time>
      </trkpt>
      <trkpt lat="44.07893" lon="2.10362">
        <ele>322.66</ele>
        <time>2013-10-08T11:46:31Z</time>
      </trkpt>
      <trkpt lat="44.07899" lon="2.10337">
        <ele>322.18</ele>
        <time>2013-10-08T11:46:47Z</time>
      </trkpt>
      <trkpt lat="44.07904" lon="2.10316">
        <ele>321.22</ele>
        <time>2013-10-08T11:47:01Z</time>
      </trkpt>
      <trkpt lat="44.0791" lon="2.10285">
        <ele>319.3</ele>
        <time>2013-10-08T11:47:20Z</time>
      </trkpt>
      <trkpt lat="44.07911" lon="2.10283">
        <ele>318.81</ele>
        <time>2013-10-08T11:47:22Z</time>
      </trkpt>
      <trkpt lat="44.07917" lon="2.1026">
        <ele>318.33</ele>
        <time>2013-10-08T11:47:37Z</time>
      </trkpt>
      <trkpt lat="44.0792" lon="2.10249">
        <ele>315.93</ele>
        <time>2013-10-08T11:47:44Z</time>
      </trkpt>
      <trkpt lat="44.07923" lon="2.10242">
        <ele>316.41</ele>
        <time>2013-10-08T11:47:49Z</time>
      </trkpt>
      <trkpt lat="44.07933" lon="2.10223">
        <ele>314.01</ele>
        <time>2013-10-08T11:48:04Z</time>
      </trkpt>
      <trkpt lat="44.07938" lon="2.10197">
        <ele>312.57</ele>
        <time>2013-10-08T11:48:20Z</time>
      </trkpt>
      <trkpt lat="44.07944" lon="2.10174">
        <ele>311.6</ele>
        <time>2013-10-08T11:48:35Z</time>
      </trkpt>
      <trkpt lat="44.07944" lon="2.1015">
        <ele>310.64</ele>
        <time>2013-10-08T11:48:50Z</time>
      </trkpt>
      <trkpt lat="44.07937" lon="2.10119">
        <ele>310.16</ele>
        <time>2013-10-08T11:49:08Z</time>
      </trkpt>
      <trkpt lat="44.07932" lon="2.10102">
        <ele>310.16</ele>
        <time>2013-10-08T11:49:23Z</time>
      </trkpt>
      <trkpt lat="44.07927" lon="2.10096">
        <ele>311.12</ele>
        <time>2013-10-08T11:49:29Z</time>
      </trkpt>
      <trkpt lat="44.07917" lon="2.10074">
        <ele>313.05</ele>
        <time>2013-10-08T11:49:46Z</time>
      </trkpt>
      <trkpt lat="44.07906" lon="2.10054">
        <ele>314.49</ele>
        <time>2013-10-08T11:50:02Z</time>
      </trkpt>
      <trkpt lat="44.07896" lon="2.10036">
        <ele>315.93</ele>
        <time>2013-10-08T11:50:17Z</time>
      </trkpt>
      <trkpt lat="44.07887" lon="2.10018">
        <ele>317.85</ele>
        <time>2013-10-08T11:50:31Z</time>
      </trkpt>
      <trkpt lat="44.07884" lon="2.10012">
        <ele>318.33</ele>
        <time>2013-10-08T11:50:36Z</time>
      </trkpt>
      <trkpt lat="44.07881" lon="2.10005">
        <ele>317.37</ele>
        <time>2013-10-08T11:50:42Z</time>
      </trkpt>
      <trkpt lat="44.07871" lon="2.09984">
        <ele>316.89</ele>
        <time>2013-10-08T11:50:58Z</time>
      </trkpt>
      <trkpt lat="44.07869" lon="2.09978">
        <ele>317.85</ele>
        <time>2013-10-08T11:51:03Z</time>
      </trkpt>
      <trkpt lat="44.07867" lon="2.0997">
        <ele>317.37</ele>
        <time>2013-10-08T11:51:10Z</time>
      </trkpt>
      <trkpt lat="44.07858" lon="2.0995">
        <ele>316.89</ele>
        <time>2013-10-08T11:51:26Z</time>
      </trkpt>
      <trkpt lat="44.07851" lon="2.09933">
        <ele>317.37</ele>
        <time>2013-10-08T11:51:38Z</time>
      </trkpt>
      <trkpt lat="44.07839" lon="2.09911">
        <ele>318.33</ele>
        <time>2013-10-08T11:51:55Z</time>
      </trkpt>
      <trkpt lat="44.07828" lon="2.09897">
        <ele>319.78</ele>
        <time>2013-10-08T11:52:09Z</time>
      </trkpt>
      <trkpt lat="44.07816" lon="2.09884">
        <ele>317.85</ele>
        <time>2013-10-08T11:52:22Z</time>
      </trkpt>
      <trkpt lat="44.07804" lon="2.09873">
        <ele>315.93</ele>
        <time>2013-10-08T11:52:35Z</time>
      </trkpt>
      <trkpt lat="44.0779" lon="2.09869">
        <ele>314.01</ele>
        <time>2013-10-08T11:52:49Z</time>
      </trkpt>
      <trkpt lat="44.07773" lon="2.0987">
        <ele>313.53</ele>
        <time>2013-10-08T11:53:03Z</time>
      </trkpt>
      <trkpt lat="44.07757" lon="2.09872">
        <ele>311.6</ele>
        <time>2013-10-08T11:53:18Z</time>
      </trkpt>
      <trkpt lat="44.07739" lon="2.09871">
        <ele>308.72</ele>
        <time>2013-10-08T11:53:34Z</time>
      </trkpt>
      <trkpt lat="44.07724" lon="2.0987">
        <ele>308.24</ele>
        <time>2013-10-08T11:53:48Z</time>
      </trkpt>
      <trkpt lat="44.0772" lon="2.09868">
        <ele>307.76</ele>
        <time>2013-10-08T11:53:52Z</time>
      </trkpt>
      <trkpt lat="44.07719" lon="2.09861">
        <ele>307.76</ele>
        <time>2013-10-08T11:53:57Z</time>
      </trkpt>
      <trkpt lat="44.07719" lon="2.09856">
        <ele>307.76</ele>
        <time>2013-10-08T11:54:01Z</time>
      </trkpt>
      <trkpt lat="44.07723" lon="2.09831">
        <ele>309.2</ele>
        <time>2013-10-08T11:54:17Z</time>
      </trkpt>
      <trkpt lat="44.07726" lon="2.09817">
        <ele>310.16</ele>
        <time>2013-10-08T11:54:27Z</time>
      </trkpt>
      <trkpt lat="44.0773" lon="2.09799">
        <ele>309.68</ele>
        <time>2013-10-08T11:54:40Z</time>
      </trkpt>
      <trkpt lat="44.07733" lon="2.09788">
        <ele>310.16</ele>
        <time>2013-10-08T11:54:48Z</time>
      </trkpt>
      <trkpt lat="44.07733" lon="2.09785">
        <ele>309.68</ele>
        <time>2013-10-08T11:54:50Z</time>
      </trkpt>
      <trkpt lat="44.07739" lon="2.09765">
        <ele>309.2</ele>
        <time>2013-10-08T11:55:04Z</time>
      </trkpt>
      <trkpt lat="44.07739" lon="2.09764">
        <ele>309.2</ele>
        <time>2013-10-08T11:55:05Z</time>
      </trkpt>
      <trkpt lat="44.07746" lon="2.09745">
        <ele>309.2</ele>
        <time>2013-10-08T11:55:19Z</time>
      </trkpt>
      <trkpt lat="44.07749" lon="2.09735">
        <ele>307.76</ele>
        <time>2013-10-08T11:55:26Z</time>
      </trkpt>
      <trkpt lat="44.07755" lon="2.09721">
        <ele>308.24</ele>
        <time>2013-10-08T11:55:36Z</time>
      </trkpt>
      <trkpt lat="44.07761" lon="2.097">
        <ele>307.76</ele>
        <time>2013-10-08T11:55:50Z</time>
      </trkpt>
      <trkpt lat="44.07768" lon="2.09679">
        <ele>308.24</ele>
        <time>2013-10-08T11:56:05Z</time>
      </trkpt>
      <trkpt lat="44.07769" lon="2.09676">
        <ele>308.72</ele>
        <time>2013-10-08T11:56:07Z</time>
      </trkpt>
      <trkpt lat="44.07776" lon="2.0966">
        <ele>308.24</ele>
        <time>2013-10-08T11:56:20Z</time>
      </trkpt>
      <trkpt lat="44.07778" lon="2.09657">
        <ele>308.24</ele>
        <time>2013-10-08T11:56:23Z</time>
      </trkpt>
      <trkpt lat="44.07781" lon="2.0965">
        <ele>308.24</ele>
        <time>2013-10-08T11:56:28Z</time>
      </trkpt>
      <trkpt lat="44.07784" lon="2.09648">
        <ele>308.72</ele>
        <time>2013-10-08T11:56:31Z</time>
      </trkpt>
      <trkpt lat="44.07794" lon="2.09632">
        <ele>311.12</ele>
        <time>2013-10-08T11:56:45Z</time>
      </trkpt>
      <trkpt lat="44.078" lon="2.09616">
        <ele>311.12</ele>
        <time>2013-10-08T11:56:57Z</time>
      </trkpt>
      <trkpt lat="44.07801" lon="2.09612">
        <ele>310.64</ele>
        <time>2013-10-08T11:57:00Z</time>
      </trkpt>
      <trkpt lat="44.07803" lon="2.09605">
        <ele>310.16</ele>
        <time>2013-10-08T11:57:05Z</time>
      </trkpt>
      <trkpt lat="44.07808" lon="2.09586">
        <ele>308.72</ele>
        <time>2013-10-08T11:57:17Z</time>
      </trkpt>
      <trkpt lat="44.07814" lon="2.09562">
        <ele>307.28</ele>
        <time>2013-10-08T11:57:34Z</time>
      </trkpt>
      <trkpt lat="44.0782" lon="2.0954">
        <ele>305.84</ele>
        <time>2013-10-08T11:57:49Z</time>
      </trkpt>
      <trkpt lat="44.07822" lon="2.09521">
        <ele>304.39</ele>
        <time>2013-10-08T11:58:02Z</time>
      </trkpt>
      <trkpt lat="44.07824" lon="2.09509">
        <ele>303.91</ele>
        <time>2013-10-08T11:58:09Z</time>
      </trkpt>
      <trkpt lat="44.0783" lon="2.09482">
        <ele>301.03</ele>
        <time>2013-10-08T11:58:27Z</time>
      </trkpt>
      <trkpt lat="44.07832" lon="2.09467">
        <ele>299.11</ele>
        <time>2013-10-08T11:58:36Z</time>
      </trkpt>
      <trkpt lat="44.07833" lon="2.09463">
        <ele>298.63</ele>
        <time>2013-10-08T11:58:39Z</time>
      </trkpt>
      <trkpt lat="44.07835" lon="2.09455">
        <ele>298.63</ele>
        <time>2013-10-08T11:58:44Z</time>
      </trkpt>
      <trkpt lat="44.07836" lon="2.09428">
        <ele>299.11</ele>
        <time>2013-10-08T11:58:59Z</time>
      </trkpt>
      <trkpt lat="44.07839" lon="2.09416">
        <ele>299.11</ele>
        <time>2013-10-08T11:59:07Z</time>
      </trkpt>
      <trkpt lat="44.07842" lon="2.09393">
        <ele>296.7</ele>
        <time>2013-10-08T11:59:21Z</time>
      </trkpt>
      <trkpt lat="44.07845" lon="2.09369">
        <ele>294.78</ele>
        <time>2013-10-08T11:59:37Z</time>
      </trkpt>
      <trkpt lat="44.07849" lon="2.09353">
        <ele>292.86</ele>
        <time>2013-10-08T11:59:49Z</time>
      </trkpt>
      <trkpt lat="44.07851" lon="2.09343">
        <ele>292.38</ele>
        <time>2013-10-08T11:59:54Z</time>
      </trkpt>
      <trkpt lat="44.07856" lon="2.09322">
        <ele>290.46</ele>
        <time>2013-10-08T12:00:09Z</time>
      </trkpt>
      <trkpt lat="44.0786" lon="2.09301">
        <ele>289.97</ele>
        <time>2013-10-08T12:00:23Z</time>
      </trkpt>
      <trkpt lat="44.07853" lon="2.09301">
        <ele>289.49</ele>
        <time>2013-10-08T12:00:35Z</time>
      </trkpt>
      <trkpt lat="44.07837" lon="2.09303">
        <ele>287.09</ele>
        <time>2013-10-08T12:00:50Z</time>
      </trkpt>
      <trkpt lat="44.07824" lon="2.09305">
        <ele>285.17</ele>
        <time>2013-10-08T12:01:03Z</time>
      </trkpt>
      <trkpt lat="44.0782" lon="2.09307">
        <ele>283.25</ele>
        <time>2013-10-08T12:01:08Z</time>
      </trkpt>
      <trkpt lat="44.07801" lon="2.09313">
        <ele>277</ele>
        <time>2013-10-08T12:01:26Z</time>
      </trkpt>
      <trkpt lat="44.07794" lon="2.09317">
        <ele>274.11</ele>
        <time>2013-10-08T12:01:34Z</time>
      </trkpt>
      <trkpt lat="44.07784" lon="2.09322">
        <ele>269.79</ele>
        <time>2013-10-08T12:01:45Z</time>
      </trkpt>
      <trkpt lat="44.07766" lon="2.09331">
        <ele>264.98</ele>
        <time>2013-10-08T12:02:03Z</time>
      </trkpt>
      <trkpt lat="44.07754" lon="2.09339">
        <ele>264.02</ele>
        <time>2013-10-08T12:02:16Z</time>
      </trkpt>
      <trkpt lat="44.07745" lon="2.09345">
        <ele>262.58</ele>
        <time>2013-10-08T12:02:26Z</time>
      </trkpt>
      <trkpt lat="44.07736" lon="2.09349">
        <ele>261.62</ele>
        <time>2013-10-08T12:02:35Z</time>
      </trkpt>
      <trkpt lat="44.07732" lon="2.09353">
        <ele>261.62</ele>
        <time>2013-10-08T12:02:40Z</time>
      </trkpt>
      <trkpt lat="44.07729" lon="2.09353">
        <ele>262.1</ele>
        <time>2013-10-08T12:02:44Z</time>
      </trkpt>
      <trkpt lat="44.07724" lon="2.09355">
        <ele>262.1</ele>
        <time>2013-10-08T12:02:48Z</time>
      </trkpt>
      <trkpt lat="44.07711" lon="2.09357">
        <ele>263.54</ele>
        <time>2013-10-08T12:03:00Z</time>
      </trkpt>
      <trkpt lat="44.07699" lon="2.09363">
        <ele>263.54</ele>
        <time>2013-10-08T12:03:12Z</time>
      </trkpt>
      <trkpt lat="44.07685" lon="2.09377">
        <ele>261.14</ele>
        <time>2013-10-08T12:03:29Z</time>
      </trkpt>
      <trkpt lat="44.07675" lon="2.09383">
        <ele>259.21</ele>
        <time>2013-10-08T12:03:40Z</time>
      </trkpt>
      <trkpt lat="44.07667" lon="2.09389">
        <ele>258.73</ele>
        <time>2013-10-08T12:03:49Z</time>
      </trkpt>
      <trkpt lat="44.07661" lon="2.09397">
        <ele>256.33</ele>
        <time>2013-10-08T12:03:58Z</time>
      </trkpt>
      <trkpt lat="44.07659" lon="2.09401">
        <ele>256.33</ele>
        <time>2013-10-08T12:04:01Z</time>
      </trkpt>
      <trkpt lat="44.07656" lon="2.09407">
        <ele>256.33</ele>
        <time>2013-10-08T12:04:05Z</time>
      </trkpt>
      <trkpt lat="44.07654" lon="2.09415">
        <ele>254.89</ele>
        <time>2013-10-08T12:04:20Z</time>
      </trkpt>
      <trkpt lat="44.0765" lon="2.09432">
        <ele>254.41</ele>
        <time>2013-10-08T12:04:34Z</time>
      </trkpt>
      <trkpt lat="44.07648" lon="2.09444">
        <ele>254.41</ele>
        <time>2013-10-08T12:04:46Z</time>
      </trkpt>
      <trkpt lat="44.07647" lon="2.09451">
        <ele>254.89</ele>
        <time>2013-10-08T12:04:50Z</time>
      </trkpt>
      <trkpt lat="44.07644" lon="2.09469">
        <ele>256.81</ele>
        <time>2013-10-08T12:05:02Z</time>
      </trkpt>
      <trkpt lat="44.07643" lon="2.09489">
        <ele>255.37</ele>
        <time>2013-10-08T12:05:16Z</time>
      </trkpt>
      <trkpt lat="44.07643" lon="2.0949">
        <ele>255.37</ele>
        <time>2013-10-08T12:05:17Z</time>
      </trkpt>
      <trkpt lat="44.07644" lon="2.09495">
        <ele>254.89</ele>
        <time>2013-10-08T12:05:20Z</time>
      </trkpt>
      <trkpt lat="44.07632" lon="2.09514">
        <ele>253.44</ele>
        <time>2013-10-08T12:05:34Z</time>
      </trkpt>
      <trkpt lat="44.07615" lon="2.09511">
        <ele>250.56</ele>
        <time>2013-10-08T12:05:49Z</time>
      </trkpt>
      <trkpt lat="44.07599" lon="2.09505">
        <ele>247.2</ele>
        <time>2013-10-08T12:06:03Z</time>
      </trkpt>
      <trkpt lat="44.07591" lon="2.09504">
        <ele>246.72</ele>
        <time>2013-10-08T12:06:10Z</time>
      </trkpt>
      <trkpt lat="44.07582" lon="2.09509">
        <ele>246.72</ele>
        <time>2013-10-08T12:06:19Z</time>
      </trkpt>
      <trkpt lat="44.07579" lon="2.09512">
        <ele>247.2</ele>
        <time>2013-10-08T12:06:23Z</time>
      </trkpt>
      <trkpt lat="44.07568" lon="2.09524">
        <ele>248.16</ele>
        <time>2013-10-08T12:06:37Z</time>
      </trkpt>
      <trkpt lat="44.07563" lon="2.09533">
        <ele>249.12</ele>
        <time>2013-10-08T12:06:45Z</time>
      </trkpt>
      <trkpt lat="44.07551" lon="2.0955">
        <ele>248.64</ele>
        <time>2013-10-08T12:07:01Z</time>
      </trkpt>
      <trkpt lat="44.07541" lon="2.09565">
        <ele>251.04</ele>
        <time>2013-10-08T12:07:16Z</time>
      </trkpt>
      <trkpt lat="44.07533" lon="2.09576">
        <ele>251.52</ele>
        <time>2013-10-08T12:07:29Z</time>
      </trkpt>
      <trkpt lat="44.07533" lon="2.09578">
        <ele>252</ele>
        <time>2013-10-08T12:07:31Z</time>
      </trkpt>
      <trkpt lat="44.07529" lon="2.09583">
        <ele>252</ele>
        <time>2013-10-08T12:07:36Z</time>
      </trkpt>
      <trkpt lat="44.07526" lon="2.09589">
        <ele>252</ele>
        <time>2013-10-08T12:07:41Z</time>
      </trkpt>
      <trkpt lat="44.07515" lon="2.09605">
        <ele>253.93</ele>
        <time>2013-10-08T12:07:56Z</time>
      </trkpt>
      <trkpt lat="44.07513" lon="2.09608">
        <ele>253.93</ele>
        <time>2013-10-08T12:07:59Z</time>
      </trkpt>
      <trkpt lat="44.07507" lon="2.09616">
        <ele>252.96</ele>
        <time>2013-10-08T12:08:07Z</time>
      </trkpt>
      <trkpt lat="44.075" lon="2.09625">
        <ele>252.96</ele>
        <time>2013-10-08T12:08:15Z</time>
      </trkpt>
      <trkpt lat="44.07496" lon="2.09629">
        <ele>252.48</ele>
        <time>2013-10-08T12:08:20Z</time>
      </trkpt>
      <trkpt lat="44.0748" lon="2.09632">
        <ele>248.64</ele>
        <time>2013-10-08T12:08:36Z</time>
      </trkpt>
      <trkpt lat="44.07478" lon="2.09634">
        <ele>248.16</ele>
        <time>2013-10-08T12:08:38Z</time>
      </trkpt>
      <trkpt lat="44.07472" lon="2.09634">
        <ele>246.72</ele>
        <time>2013-10-08T12:08:43Z</time>
      </trkpt>
      <trkpt lat="44.07462" lon="2.0964">
        <ele>245.27</ele>
        <time>2013-10-08T12:08:52Z</time>
      </trkpt>
      <trkpt lat="44.07457" lon="2.09642">
        <ele>244.79</ele>
        <time>2013-10-08T12:08:56Z</time>
      </trkpt>
      <trkpt lat="44.0744" lon="2.09651">
        <ele>242.39</ele>
        <time>2013-10-08T12:09:12Z</time>
      </trkpt>
      <trkpt lat="44.0744" lon="2.09652">
        <ele>241.91</ele>
        <time>2013-10-08T12:09:13Z</time>
      </trkpt>
      <trkpt lat="44.07423" lon="2.09663">
        <ele>241.91</ele>
        <time>2013-10-08T12:09:29Z</time>
      </trkpt>
      <trkpt lat="44.07412" lon="2.09679">
        <ele>240.47</ele>
        <time>2013-10-08T12:09:43Z</time>
      </trkpt>
      <trkpt lat="44.07405" lon="2.097">
        <ele>243.35</ele>
        <time>2013-10-08T12:09:57Z</time>
      </trkpt>
      <trkpt lat="44.07404" lon="2.09702">
        <ele>243.83</ele>
        <time>2013-10-08T12:09:58Z</time>
      </trkpt>
      <trkpt lat="44.07404" lon="2.09705">
        <ele>243.83</ele>
        <time>2013-10-08T12:10:00Z</time>
      </trkpt>
      <trkpt lat="44.07398" lon="2.09726">
        <ele>247.68</ele>
        <time>2013-10-08T12:10:15Z</time>
      </trkpt>
      <trkpt lat="44.07393" lon="2.09745">
        <ele>251.04</ele>
        <time>2013-10-08T12:10:30Z</time>
      </trkpt>
      <trkpt lat="44.07388" lon="2.09763">
        <ele>249.6</ele>
        <time>2013-10-08T12:10:44Z</time>
      </trkpt>
      <trkpt lat="44.07377" lon="2.0978">
        <ele>246.72</ele>
        <time>2013-10-08T12:10:59Z</time>
      </trkpt>
      <trkpt lat="44.07367" lon="2.09797">
        <ele>242.87</ele>
        <time>2013-10-08T12:11:13Z</time>
      </trkpt>
      <trkpt lat="44.07353" lon="2.09816">
        <ele>238.06</ele>
        <time>2013-10-08T12:11:31Z</time>
      </trkpt>
      <trkpt lat="44.07344" lon="2.09834">
        <ele>234.7</ele>
        <time>2013-10-08T12:11:45Z</time>
      </trkpt>
      <trkpt lat="44.07338" lon="2.09847">
        <ele>234.7</ele>
        <time>2013-10-08T12:11:55Z</time>
      </trkpt>
      <trkpt lat="44.07333" lon="2.09853">
        <ele>235.18</ele>
        <time>2013-10-08T12:12:01Z</time>
      </trkpt>
      <trkpt lat="44.07326" lon="2.09857">
        <ele>235.66</ele>
        <time>2013-10-08T12:12:16Z</time>
      </trkpt>
      <trkpt lat="44.07318" lon="2.09862">
        <ele>236.14</ele>
        <time>2013-10-08T12:12:30Z</time>
      </trkpt>
      <trkpt lat="44.07311" lon="2.09865">
        <ele>234.22</ele>
        <time>2013-10-08T12:12:44Z</time>
      </trkpt>
      <trkpt lat="44.0731" lon="2.09865">
        <ele>233.74</ele>
        <time>2013-10-08T12:12:45Z</time>
      </trkpt>
      <trkpt lat="44.07298" lon="2.09876">
        <ele>230.85</ele>
        <time>2013-10-08T12:13:00Z</time>
      </trkpt>
      <trkpt lat="44.07295" lon="2.09884">
        <ele>231.33</ele>
        <time>2013-10-08T12:13:09Z</time>
      </trkpt>
      <trkpt lat="44.07295" lon="2.09889">
        <ele>230.85</ele>
        <time>2013-10-08T12:13:12Z</time>
      </trkpt>
      <trkpt lat="44.07298" lon="2.09896">
        <ele>229.89</ele>
        <time>2013-10-08T12:13:18Z</time>
      </trkpt>
      <trkpt lat="44.07305" lon="2.09898">
        <ele>229.41</ele>
        <time>2013-10-08T12:13:25Z</time>
      </trkpt>
      <trkpt lat="44.07321" lon="2.09908">
        <ele>227.97</ele>
        <time>2013-10-08T12:13:41Z</time>
      </trkpt>
      <trkpt lat="44.07323" lon="2.09912">
        <ele>228.45</ele>
        <time>2013-10-08T12:13:44Z</time>
      </trkpt>
      <trkpt lat="44.07326" lon="2.09922">
        <ele>226.05</ele>
        <time>2013-10-08T12:13:53Z</time>
      </trkpt>
      <trkpt lat="44.07321" lon="2.09925">
        <ele>224.61</ele>
        <time>2013-10-08T12:13:58Z</time>
      </trkpt>
      <trkpt lat="44.07314" lon="2.09924">
        <ele>224.12</ele>
        <time>2013-10-08T12:14:03Z</time>
      </trkpt>
      <trkpt lat="44.0731" lon="2.09925">
        <ele>223.16</ele>
        <time>2013-10-08T12:14:07Z</time>
      </trkpt>
      <trkpt lat="44.07293" lon="2.0992">
        <ele>220.28</ele>
        <time>2013-10-08T12:14:22Z</time>
      </trkpt>
      <trkpt lat="44.07287" lon="2.09916">
        <ele>219.8</ele>
        <time>2013-10-08T12:14:27Z</time>
      </trkpt>
      <trkpt lat="44.07276" lon="2.09908">
        <ele>219.32</ele>
        <time>2013-10-08T12:14:38Z</time>
      </trkpt>
      <trkpt lat="44.07272" lon="2.09905">
        <ele>220.28</ele>
        <time>2013-10-08T12:14:42Z</time>
      </trkpt>
      <trkpt lat="44.07266" lon="2.09898">
        <ele>221.72</ele>
        <time>2013-10-08T12:14:54Z</time>
      </trkpt>
      <trkpt lat="44.07265" lon="2.09897">
        <ele>221.72</ele>
        <time>2013-10-08T12:14:55Z</time>
      </trkpt>
      <trkpt lat="44.07254" lon="2.09879">
        <ele>221.72</ele>
        <time>2013-10-08T12:15:10Z</time>
      </trkpt>
      <trkpt lat="44.07246" lon="2.09867">
        <ele>220.76</ele>
        <time>2013-10-08T12:15:22Z</time>
      </trkpt>
      <trkpt lat="44.07243" lon="2.09863">
        <ele>221.24</ele>
        <time>2013-10-08T12:15:26Z</time>
      </trkpt>
      <trkpt lat="44.07237" lon="2.09856">
        <ele>221.24</ele>
        <time>2013-10-08T12:15:32Z</time>
      </trkpt>
      <trkpt lat="44.07221" lon="2.09828">
        <ele>221.24</ele>
        <time>2013-10-08T12:15:51Z</time>
      </trkpt>
      <trkpt lat="44.07212" lon="2.09806">
        <ele>222.2</ele>
        <time>2013-10-08T12:16:09Z</time>
      </trkpt>
      <trkpt lat="44.07206" lon="2.09799">
        <ele>220.28</ele>
        <time>2013-10-08T12:16:16Z</time>
      </trkpt>
      <trkpt lat="44.07198" lon="2.09789">
        <ele>217.88</ele>
        <time>2013-10-08T12:16:26Z</time>
      </trkpt>
      <trkpt lat="44.07193" lon="2.09777">
        <ele>217.4</ele>
        <time>2013-10-08T12:16:38Z</time>
      </trkpt>
      <trkpt lat="44.0718" lon="2.09762">
        <ele>217.4</ele>
        <time>2013-10-08T12:16:52Z</time>
      </trkpt>
      <trkpt lat="44.07177" lon="2.09757">
        <ele>216.91</ele>
        <time>2013-10-08T12:16:56Z</time>
      </trkpt>
      <trkpt lat="44.07167" lon="2.09747">
        <ele>216.91</ele>
        <time>2013-10-08T12:17:07Z</time>
      </trkpt>
      <trkpt lat="44.07164" lon="2.09732">
        <ele>220.28</ele>
        <time>2013-10-08T12:17:16Z</time>
      </trkpt>
      <trkpt lat="44.07164" lon="2.09722">
        <ele>218.84</ele>
        <time>2013-10-08T12:17:29Z</time>
      </trkpt>
      <trkpt lat="44.07165" lon="2.09723">
        <ele>217.88</ele>
        <time>2013-10-08T12:17:51Z</time>
      </trkpt>
      <trkpt lat="44.07163" lon="2.09722">
        <ele>216.91</ele>
        <time>2013-10-08T12:18:11Z</time>
      </trkpt>
      <trkpt lat="44.07165" lon="2.09716">
        <ele>216.43</ele>
        <time>2013-10-08T12:18:16Z</time>
      </trkpt>
      <trkpt lat="44.07167" lon="2.09711">
        <ele>216.91</ele>
        <time>2013-10-08T12:18:19Z</time>
      </trkpt>
    </trkseg>
  </trk>
</gpx>